GFSSW_sfc_rhum_000.txt.gz
RH
69 69 69 70 70 69 69 68 69 75 78 78 76 75 77 78 78 90 97 80 72 65 72 71 69 62 61 68 52 51 61 66 54 43 37 35 42 38 34 35 33 34 44 46 63
67 66 66 66 68 69 70 68 70 72 75 77 76 76 80 79 91 97 72 63 63 63 78 79 77 60 66 71 55 57 71 60 46 38 37 40 49 40 37 35 33 33 45 65 72
67 65 65 66 66 67 71 71 70 71 74 79 76 78 80 78 84 78 64 66 62 59 71 86 67 65 69 63 58 60 64 54 46 40 40 49 48 43 39 38 32 29 29 45 76
64 66 67 67 68 67 68 71 72 72 73 74 77 79 82 80 92 61 56 57 62 56 63 86 87 67 74 70 60 68 53 50 49 48 51 53 45 43 38 34 30 30 33 39 61
65 67 68 68 68 68 68 69 71 73 73 73 77 79 89 90 77 49 55 53 55 63 69 83 75 68 73 69 66 73 63 56 50 52 54 51 47 44 38 31 32 31 30 32 53
69 68 68 70 71 71 71 70 72 74 73 72 77 81 92 96 54 49 50 50 64 69 71 80 73 59 64 64 63 62 58 57 54 47 44 43 43 43 38 35 30 30 31 30 44
70 70 70 69 69 70 71 69 69 75 78 74 78 82 88 76 55 58 53 49 58 68 72 82 80 51 56 63 59 60 69 55 48 47 46 46 43 42 34 38 32 32 36 35 37
71 74 73 73 73 73 72 70 70 74 76 76 76 89 88 60 54 54 58 58 60 67 70 84 78 56 56 50 45 57 63 70 54 46 42 41 40 35 36 40 35 34 42 48 54
71 71 72 78 80 84 79 77 77 76 70 76 86 88 83 58 70 62 57 64 73 72 77 72 74 65 59 63 55 50 59 63 52 42 45 48 52 34 38 32 33 50 53 54 56
73 73 70 76 80 87 84 79 79 76 79 71 73 88 78 77 69 64 61 56 72 80 79 94 85 80 85 85 88 66 57 70 61 48 49 47 46 34 39 37 38 41 57 60 58
76 80 77 82 82 90 94 93 93 96 86 89 80 79 71 61 63 68 56 58 70 87 94 94 93 95 85 70 73 65 64 67 52 42 47 46 48 38 37 36 39 48 54 60 57
80 81 82 85 89 92 92 88 72 73 90 77 78 74 62 72 82 68 52 74 86 78 78 94 91 70 75 72 67 54 52 61 53 47 46 46 44 39 40 34 37 47 56 59 60
82 83 88 90 94 97 90 72 86 70 86 87 75 77 72 67 80 78 59 71 87 66 83 80 82 62 68 70 63 60 58 71 65 50 50 52 51 48 40 45 46 50 55 62 59
84 82 89 93 98 94 95 84 90 74 99 95 84 78 72 77 85 63 51 64 79 69 75 86 75 75 69 82 73 90 55 49 52 57 64 52 66 54 41 47 50 56 59 62 65
87 83 88 95 96 97 90 90 92 96 97 78 80 61 73 79 77 80 52 60 88 76 76 86 89 91 79 70 71 80 50 50 52 61 67 66 62 52 48 50 52 55 58 64 68
88 88 88 97 98 96 93 90 92 100 96 93 82 80 83 74 78 76 74 78 68 71 75 75 70 77 82 71 59 53 49 48 55 60 74 60 54 57 48 45 54 57 54 61 68
88 87 89 91 96 96 92 95 99 99 86 93 85 76 76 84 80 79 82 90 84 93 90 74 83 61 59 56 48 51 50 78 70 76 75 67 66 51 44 39 41 47 51 61 69
90 91 89 85 96 93 96 96 100 96 84 72 81 74 84 72 81 75 88 94 85 73 72 86 95 58 43 66 70 58 58 72 75 78 69 64 63 42 48 52 43 43 48 62 69
90 84 93 91 94 92 95 100 98 79 76 80 76 80 90 72 86 87 86 88 74 59 68 81 82 47 36 40 55 59 56 56 67 78 81 70 53 42 50 54 58 51 54 64 68
91 94 96 86 92 95 98 98 95 70 72 68 82 77 96 80 91 92 91 73 73 57 56 61 62 50 43 32 35 46 43 59 68 77 80 72 62 53 42 58 62 58 57 63 67
94 95 93 87 95 98 99 95 85 63 66 68 82 86 76 85 88 90 87 76 59 57 54 52 56 62 44 48 45 44 50 58 60 69 69 73 54 47 43 48 56 56 56 62 66
97 94 94 88 99 97 95 93 70 73 85 80 66 65 71 79 78 87 87 71 56 66 67 59 64 63 53 66 48 48 45 50 64 67 71 67 56 45 49 50 55 56 56 57 62
95 98 89 99 99 99 95 85 76 81 84 82 71 62 55 68 82 78 88 73 70 66 67 62 72 85 74 72 73 66 55 50 57 62 68 64 55 41 48 52 53 52 53 55 63
93 89 99 99 96 89 94 88 92 94 92 72 68 65 58 72 76 88 89 73 67 66 76 59 68 66 73 69 64 74 60 56 53 67 65 61 54 52 49 49 52 58 66 60 71
95 70 77 95 91 76 75 89 94 93 81 66 75 59 67 80 83 88 77 70 61 70 62 53 61 64 58 64 63 60 59 57 54 51 56 55 52 54 55 51 49 56 57 67 74
87 83 76 81 65 62 70 80 76 67 69 73 80 72 65 70 72 83 71 75 69 62 59 55 59 52 52 49 47 56 59 60 59 58 57 59 57 47 64 67 71 74 65 68 70
94 86 61 68 63 60 64 67 63 58 63 66 66 67 59 58 56 62 60 60 59 53 54 48 49 52 59 57 56 46 44 68 61 57 55 60 46 50 66 60 68 67 64 63 67

GFSSW_sfc_rhum_003.txt.gz
RH
66 66 66 67 68 71 70 67 68 70 76 81 83 78 82 81 80 80 95 70 68 60 60 68 70 67 51 58 45 44 53 58 49 42 37 27 38 34 29 29 27 24 27 29 47
67 65 64 64 64 67 70 70 68 69 71 74 76 79 79 83 82 87 70 65 63 60 67 86 78 61 61 61 52 50 63 56 43 38 33 31 41 38 35 34 29 25 25 38 47
65 65 65 65 65 66 67 70 73 70 71 73 77 81 81 75 87 78 65 71 66 59 61 77 85 67 67 59 55 55 58 51 44 39 34 40 45 39 35 40 30 26 25 26 39
64 64 64 66 67 68 67 69 72 75 72 74 77 80 83 72 91 55 54 61 64 58 62 73 90 76 74 67 53 57 51 47 45 44 45 46 44 43 38 33 29 29 29 29 26
67 65 66 66 68 68 68 68 70 71 74 73 75 80 88 96 77 49 52 53 54 62 71 80 82 71 75 64 60 58 54 51 48 50 52 51 50 44 38 32 28 30 30 27 26
69 69 69 68 68 70 70 70 69 71 76 77 76 81 86 96 53 48 52 50 49 66 73 74 78 57 65 62 60 58 53 48 52 49 45 44 44 40 35 31 28 28 28 28 29
70 71 72 73 72 70 70 70 69 70 77 77 77 82 85 77 55 56 55 58 50 62 77 70 75 52 56 63 57 58 61 55 52 46 45 45 45 45 33 31 30 29 30 43 50
72 72 75 74 74 74 74 72 73 76 77 76 72 86 84 60 56 57 54 58 54 63 70 66 75 69 56 48 52 60 55 71 54 41 40 37 48 33 31 34 30 29 41 49 52
71 73 75 75 75 78 83 80 76 77 77 74 90 88 84 58 73 59 53 61 62 76 75 62 81 76 62 62 61 62 80 68 60 44 45 41 44 36 29 28 27 30 43 46 48
73 78 79 75 74 79 83 88 80 80 77 73 74 89 81 76 69 65 63 56 70 81 80 81 95 88 76 79 92 70 65 54 56 43 44 43 43 35 32 32 29 32 46 48 51
78 80 81 80 81 86 88 99 98 96 84 81 81 76 70 59 61 70 62 59 64 85 87 85 91 96 76 71 62 56 53 53 56 42 41 44 43 35 33 34 34 41 48 48 50
79 82 83 83 85 87 95 94 74 69 88 77 74 69 63 69 79 70 55 68 84 87 72 83 93 74 71 73 62 59 59 59 52 44 41 45 42 36 37 35 32 42 49 48 50
81 83 82 82 89 95 96 85 76 70 86 84 71 78 77 66 76 77 61 66 81 67 74 80 78 62 68 82 75 64 64 61 61 50 44 47 45 41 34 34 43 47 49 49 51
86 85 84 85 98 97 96 95 85 80 99 90 90 74 73 74 82 65 58 63 75 64 62 84 72 70 73 76 72 85 54 55 53 59 65 43 53 47 37 36 47 50 51 52 56
87 85 84 91 97 96 92 93 91 90 98 82 84 58 71 68 71 84 58 62 80 63 66 88 84 76 82 74 69 76 61 62 56 54 51 49 50 43 38 39 45 49 54 56 58
90 86 87 95 98 94 94 92 94 100 97 97 81 89 85 78 72 76 70 67 65 60 56 88 72 74 70 67 66 50 57 62 53 51 61 52 47 47 40 34 45 47 50 57 59
90 89 90 88 95 95 92 93 100 98 90 97 93 85 75 86 76 77 79 81 94 89 81 88 86 85 84 65 58 54 72 97 95 72 64 55 55 43 39 34 37 42 46 56 59
92 91 88 84 92 91 93 97 99 84 86 73 80 79 80 74 83 78 79 88 85 81 72 96 98 72 77 79 73 75 73 78 75 69 59 58 57 36 35 40 40 42 43 58 61
91 81 92 87 91 94 95 100 90 84 77 78 78 82 77 72 79 83 83 74 78 86 64 77 85 59 58 53 60 78 81 52 63 66 68 62 50 39 41 44 47 47 50 60 61
87 93 90 85 88 94 99 99 93 86 70 63 77 73 81 77 98 79 83 61 76 73 67 74 70 58 38 42 38 59 47 74 60 67 71 65 56 49 38 40 52 51 50 60 62
98 99 88 88 89 98 99 97 89 78 57 64 76 92 67 86 94 87 79 78 76 70 65 55 62 66 41 46 49 54 76 59 55 63 64 61 49 41 39 38 48 50 51 56 60
98 96 96 91 99 96 97 88 83 69 70 75 73 74 83 73 82 80 86 76 68 62 60 51 62 68 54 58 46 42 49 50 58 63 63 58 52 36 41 44 50 50 52 54 58
97 94 97 96 99 97 92 91 86 80 78 80 74 68 70 81 92 82 80 68 66 61 66 56 69 78 64 60 65 54 45 47 53 57 63 59 51 37 44 50 52 51 50 51 58
98 98 100 99 97 99 96 92 91 87 82 81 67 59 67 76 80 91 83 72 70 56 68 57 67 72 72 67 62 68 57 53 47 59 59 55 46 40 42 47 48 47 49 50 58
99 93 89 97 97 96 94 90 91 91 92 85 78 66 63 87 90 92 88 68 64 76 62 52 61 62 59 60 56 56 56 52 51 44 48 48 50 42 38 45 44 41 46 59 70
97 91 91 79 72 98 92 98 89 93 92 83 74 64 62 74 79 90 78 73 68 62 66 58 61 53 55 55 54 62 60 52 50 55 52 52 52 41 48 51 55 54 55 63 70
95 92 76 71 63 67 73 90 91 85 85 66 65 58 65 62 64 66 65 60 60 57 58 61 52 57 59 53 47 52 47 61 55 56 46 54 42 47 59 57 56 58 57 59 65

GFSSW_sfc_rhum_006.txt.gz
RH
65 65 64 64 65 67 69 69 68 69 72 80 84 81 82 83 81 67 70 48 47 55 57 48 53 51 49 46 39 33 38 38 34 34 28 20 27 25 24 24 19 18 17 19 27
64 65 64 63 63 64 67 69 70 68 69 71 75 78 81 83 68 75 59 65 64 61 43 53 54 52 51 47 44 40 42 36 29 26 27 26 29 30 30 24 21 17 16 17 18
64 64 63 64 64 65 66 66 70 73 70 70 74 76 81 71 77 67 59 67 69 60 47 44 65 58 57 45 43 41 42 30 31 29 27 31 31 30 33 32 22 21 18 18 18
65 64 63 64 64 65 66 66 69 72 74 72 74 77 82 63 81 54 56 56 63 56 51 46 74 75 68 58 40 45 37 31 32 32 34 34 30 34 32 32 23 22 22 21 18
68 67 66 66 65 66 66 66 66 70 72 73 73 76 76 92 64 44 51 46 41 55 62 51 76 61 64 52 42 46 35 35 32 34 34 35 38 35 33 26 23 23 23 20 18
70 70 69 70 68 67 68 69 69 68 71 75 75 80 69 86 40 37 38 41 39 50 67 50 59 46 42 46 48 40 39 36 32 35 35 40 35 36 28 22 22 22 22 21 24
71 71 72 73 72 71 67 67 69 69 70 73 76 66 74 63 39 38 43 40 39 42 56 49 46 63 43 53 42 39 47 40 37 37 37 36 38 32 24 19 21 20 21 30 34
71 74 76 76 74 72 70 70 72 77 71 71 68 68 70 45 39 43 39 44 41 36 46 45 50 77 80 41 46 52 49 51 34 37 36 34 40 26 21 20 21 20 24 31 35
71 74 75 79 77 78 78 78 83 75 73 70 67 68 68 49 55 44 40 45 48 42 40 48 63 86 67 73 67 56 57 50 40 36 36 36 35 22 21 21 20 19 25 29 32
75 77 79 80 78 78 78 79 86 78 73 66 63 76 58 61 50 45 42 41 52 54 62 70 81 96 85 81 81 62 53 42 44 34 34 34 35 26 21 22 21 20 26 29 31
78 80 82 83 82 80 84 88 97 99 84 74 65 54 56 46 50 54 46 48 54 66 85 64 92 95 67 73 47 36 41 46 37 32 36 37 35 27 25 24 23 22 26 29 31
79 82 84 84 82 83 92 97 78 70 95 71 64 56 57 52 65 55 47 56 64 84 82 68 94 64 74 61 56 42 46 46 34 35 35 36 38 32 25 24 23 23 27 30 33
79 82 84 84 80 89 94 92 85 83 92 82 75 70 60 56 64 62 54 50 62 79 87 78 75 61 81 62 57 48 49 41 40 42 40 37 37 30 24 24 26 23 27 29 31
83 84 85 82 95 91 96 94 89 81 100 89 89 72 66 61 70 46 48 46 62 79 85 59 58 80 75 69 55 55 41 44 50 62 55 36 43 31 23 26 28 30 32 32 35
87 84 86 85 86 92 94 90 88 87 97 68 81 50 55 60 49 57 49 47 62 79 81 76 80 88 84 66 47 48 47 48 53 59 52 45 42 28 28 26 30 32 32 34 36
90 87 88 83 80 87 90 87 88 98 94 93 82 85 80 64 51 60 66 46 59 67 63 53 82 78 54 53 50 47 47 50 46 50 61 39 39 29 23 21 25 32 34 37 38
94 90 85 66 74 89 91 93 100 98 85 98 97 93 74 67 56 65 73 74 94 97 99 81 88 90 54 78 63 49 59 97 91 80 56 37 39 27 24 23 24 31 34 35 38
96 92 83 71 70 92 93 98 100 84 94 83 84 88 81 60 56 69 64 64 71 84 64 98 98 95 62 60 79 62 51 50 62 56 43 42 41 24 24 26 23 24 30 35 39
95 86 88 80 79 88 96 100 84 91 84 94 74 89 67 58 54 77 57 54 69 74 73 95 98 78 67 59 55 84 81 38 43 44 40 35 33 27 28 29 30 27 33 40 40
85 83 81 71 86 95 99 98 94 83 82 58 57 53 57 56 88 78 54 39 57 61 58 60 94 69 65 65 62 63 50 68 46 55 52 38 38 29 25 26 32 30 35 39 41
81 96 77 82 92 96 100 98 89 75 68 45 47 50 46 51 84 59 50 48 45 50 55 51 50 73 58 75 74 61 81 64 43 41 40 37 32 23 26 26 28 28 31 38 43
85 96 97 91 98 95 98 92 87 84 69 39 40 40 38 46 68 85 50 55 34 50 62 54 38 80 64 45 42 47 51 48 54 52 40 38 30 24 26 28 30 29 32 36 38
75 93 97 88 98 97 87 89 85 83 64 45 53 45 40 47 73 70 57 42 44 56 55 42 42 59 72 57 46 56 46 47 36 36 41 41 33 26 29 33 34 32 34 37 40
76 96 99 99 89 96 94 90 92 72 55 55 52 52 53 53 45 56 58 59 59 50 65 52 43 37 48 46 41 52 45 46 46 48 40 36 30 27 30 34 35 33 32 34 40
78 78 78 94 95 96 95 89 88 88 75 77 60 55 45 59 69 63 56 69 57 65 59 51 46 42 43 41 38 41 47 42 44 40 40 34 34 26 23 30 30 31 31 33 38
68 73 70 69 76 88 97 94 90 93 83 87 92 55 48 54 58 68 70 62 67 63 57 48 52 40 43 48 40 42 40 43 43 40 34 32 33 24 24 27 30 28 31 36 40
73 71 63 60 57 78 88 92 89 84 93 88 72 57 57 54 44 49 50 48 49 56 60 52 46 45 48 40 41 50 41 40 37 33 32 37 30 29 35 33 32 36 38 40 43

GFSSW_sfc_rhum_009.txt.gz
RH
66 65 65 64 64 65 67 68 68 68 73 77 78 80 82 84 81 65 63 44 44 54 55 41 37 40 41 43 35 32 38 38 31 28 24 19 22 19 20 22 18 15 16 16 17
67 65 65 65 64 64 65 67 69 70 68 70 73 77 80 80 60 73 54 58 60 62 44 40 40 35 48 44 39 39 40 34 24 22 23 20 24 25 26 23 20 17 14 14 15
68 66 65 65 65 65 67 65 68 71 74 70 71 75 78 68 70 60 56 60 64 62 47 38 39 53 48 43 39 39 41 28 24 22 24 24 26 23 28 30 23 20 18 17 17
67 67 66 64 66 67 66 66 66 69 72 72 72 74 80 56 64 49 57 54 60 52 49 44 41 67 58 54 37 41 32 30 27 25 28 30 25 27 27 27 22 22 21 20 19
68 69 68 67 68 68 68 67 65 65 69 72 73 75 69 76 59 42 50 41 36 52 56 49 41 47 62 44 46 45 33 28 28 26 27 28 30 30 29 24 21 20 21 21 19
69 70 71 70 71 70 70 69 69 66 66 71 75 78 66 73 32 33 37 36 36 42 56 51 41 34 40 44 44 39 34 32 28 28 28 32 30 28 26 22 20 19 18 19 19
70 70 74 72 73 73 71 68 68 67 67 68 73 63 64 54 30 30 33 34 32 34 43 46 40 40 39 54 34 39 44 36 33 29 29 29 35 32 24 21 17 15 15 21 25
71 72 76 76 76 75 73 70 71 72 70 69 67 62 82 36 32 35 34 35 32 32 35 36 41 43 55 57 58 44 50 64 36 31 28 33 44 24 19 18 17 17 18 23 27
75 72 74 80 80 80 77 77 77 80 72 68 62 68 67 46 48 34 33 37 32 35 34 34 47 60 62 95 85 65 63 58 44 28 31 35 37 23 19 18 19 16 17 22 26
80 79 79 81 82 83 81 78 76 81 72 62 54 72 50 54 40 39 35 37 38 40 44 47 66 78 77 85 91 65 67 45 50 30 32 35 35 27 21 20 20 16 16 22 24
83 81 82 82 83 82 80 91 90 97 92 82 66 51 45 37 39 49 37 43 42 46 67 55 85 87 66 58 68 50 56 43 38 29 32 35 33 25 22 22 22 18 18 22 25
84 83 83 82 81 82 83 92 74 68 95 75 57 54 43 46 56 51 38 52 52 63 52 72 91 54 45 56 62 58 48 41 34 32 33 31 32 26 24 24 22 18 18 23 28
83 83 83 81 80 82 86 76 79 76 96 87 77 65 52 55 57 51 46 48 47 58 56 75 71 47 44 66 74 61 64 43 43 35 33 34 40 34 28 23 21 20 19 22 26
84 84 83 84 80 61 80 77 87 88 100 87 93 83 72 76 84 47 42 46 50 55 51 66 57 69 49 68 78 71 55 37 40 45 50 35 39 25 23 24 23 20 22 25 26
86 85 86 82 62 83 90 89 90 92 98 65 92 59 68 86 48 47 36 49 58 56 86 78 73 79 62 71 70 70 45 40 46 45 57 54 46 29 23 24 24 22 24 26 28
91 89 88 83 73 67 83 85 88 98 95 88 82 90 84 89 59 44 45 42 42 54 86 60 60 66 59 63 80 62 51 56 49 48 59 40 40 28 25 22 20 23 26 29 30
96 93 89 52 63 79 88 90 100 98 79 98 97 93 89 92 71 57 64 72 89 98 99 85 94 83 74 94 92 71 78 91 79 74 50 30 36 28 20 20 18 25 27 29 32
95 97 89 58 72 83 93 98 99 68 83 90 94 95 98 80 61 54 65 73 64 78 96 98 97 88 72 92 91 83 75 54 62 55 42 33 42 27 20 19 18 23 27 30 33
96 98 96 79 77 89 96 100 89 81 87 94 93 98 99 88 42 47 58 64 52 70 99 87 91 75 83 70 63 81 74 38 40 33 35 37 29 23 22 24 22 23 28 33 34
88 94 86 62 78 94 99 96 94 77 88 84 67 57 67 67 50 54 64 54 48 50 71 90 98 88 91 74 83 67 41 55 39 49 46 34 30 28 26 24 25 24 29 33 34
89 94 60 72 90 99 98 96 90 76 79 79 48 44 38 43 47 54 52 36 38 41 70 91 94 94 90 82 86 90 66 53 35 36 38 38 31 20 22 22 25 24 27 32 35
88 95 88 89 99 95 97 94 85 83 84 63 33 34 32 33 47 51 45 35 28 41 89 76 91 99 74 46 49 60 60 44 43 46 35 35 31 20 21 24 24 24 26 30 35
88 77 95 90 98 97 79 92 87 87 81 54 41 33 28 33 46 52 48 33 37 36 72 54 66 98 92 60 64 73 48 46 40 36 38 36 32 20 23 27 26 25 26 31 35
73 98 100 99 83 90 93 93 95 76 70 47 40 32 35 38 34 48 51 39 42 36 65 54 48 48 46 44 57 71 60 44 43 44 38 34 29 24 26 28 29 28 28 32 34
77 86 72 97 94 91 92 87 94 92 72 50 60 41 42 40 40 49 46 46 42 48 48 54 49 36 30 32 39 44 51 51 49 43 41 31 30 23 22 25 26 26 29 32 35
79 56 75 84 73 79 92 91 95 86 70 75 86 48 38 38 34 40 43 45 55 53 47 50 56 40 42 39 35 38 38 41 43 41 38 32 31 21 20 19 23 25 28 31 34
84 59 58 60 58 69 76 84 86 81 86 60 73 60 47 37 31 37 34 41 44 47 58 59 60 46 47 39 42 49 37 36 37 34 34 38 31 24 27 26 26 26 28 30 32

GFSSW_sfc_rhum_012.txt.gz
RH
66 66 66 66 66 65 66 69 70 70 73 84 81 78 79 82 83 73 75 50 51 57 58 41 39 39 44 55 47 45 60 55 45 40 33 23 27 22 24 28 24 22 22 24 21
68 67 65 66 66 66 66 67 68 73 70 69 70 75 78 81 68 73 59 57 58 58 53 44 42 37 47 56 53 53 64 52 33 29 29 25 26 28 30 30 28 25 20 19 21
68 68 66 66 64 66 66 69 67 70 74 71 69 72 78 74 78 62 55 60 62 60 57 48 42 44 61 49 52 51 62 42 31 26 25 29 30 26 32 38 32 30 29 28 29
69 67 67 66 65 66 66 67 68 69 71 73 70 73 80 62 74 54 58 56 56 53 59 56 49 55 69 63 45 54 43 39 37 30 30 35 31 32 30 33 30 28 28 28 28
69 68 68 69 68 68 67 68 67 66 68 71 73 74 71 71 57 48 50 45 44 54 65 59 57 49 62 51 49 51 44 36 32 32 30 30 36 36 33 29 27 27 27 28 28
72 70 71 72 71 72 70 68 68 68 69 70 73 77 74 77 33 32 42 39 38 41 58 59 55 43 44 48 55 48 46 46 37 31 31 34 35 35 33 28 28 27 27 24 28
75 74 76 75 72 73 73 71 67 68 69 69 72 69 70 58 29 30 36 40 37 36 42 52 52 62 42 48 43 43 55 47 44 36 34 33 40 39 32 28 28 28 21 28 30
76 76 77 79 77 76 74 72 71 74 74 71 70 64 79 42 38 35 33 36 34 32 37 37 42 55 61 51 61 65 57 78 47 39 36 38 51 36 29 29 29 23 27 32 33
79 79 76 79 81 82 81 74 75 76 78 71 68 70 68 46 50 38 36 40 34 33 36 32 43 62 62 72 87 77 80 73 64 41 38 39 47 36 30 28 29 26 24 30 35
84 84 81 80 82 83 82 76 73 78 77 62 55 72 59 52 44 41 37 38 41 39 44 50 60 77 80 82 92 79 85 60 68 48 42 42 42 37 31 27 27 27 24 32 35
85 86 83 83 83 83 82 78 87 94 91 75 66 52 43 41 39 44 39 42 45 50 66 55 79 87 78 70 67 61 59 67 47 44 44 42 40 38 32 32 33 32 28 33 38
86 88 84 84 82 82 80 83 71 83 94 81 64 59 44 45 53 48 39 55 59 74 58 71 85 59 54 57 64 62 75 76 51 42 42 39 41 34 34 30 29 30 27 34 41
87 87 85 83 82 83 82 77 70 73 99 90 79 70 59 52 59 52 47 53 60 69 65 77 65 55 51 54 63 64 68 78 72 47 51 44 48 41 32 28 30 29 26 34 38
86 87 85 86 84 70 80 68 76 83 100 92 92 81 66 76 84 47 43 51 58 64 59 65 52 52 60 60 55 67 54 64 74 82 74 46 71 44 35 34 34 33 32 36 37
88 87 86 80 77 76 85 86 88 92 98 80 89 65 68 88 68 66 52 66 66 58 58 78 68 60 65 76 54 66 56 67 70 81 86 63 59 49 33 40 35 31 31 36 37
91 88 88 91 83 80 83 82 89 99 95 88 87 92 91 86 82 69 64 61 54 64 59 72 56 58 61 56 65 54 68 83 80 77 90 80 60 52 38 33 31 31 35 37 38
93 92 90 69 80 82 82 91 100 99 68 96 96 84 80 92 92 89 80 76 80 94 88 91 87 68 74 86 63 66 88 98 100 99 92 46 62 49 30 26 26 28 36 38 42
93 96 91 71 82 82 85 96 99 58 76 89 93 93 99 90 94 94 93 77 63 74 86 88 86 87 79 86 77 82 92 99 98 97 60 39 58 45 26 25 28 30 36 39 43
95 99 98 86 84 85 92 100 80 67 86 94 96 99 98 94 92 94 81 78 62 59 98 97 95 80 68 63 74 82 99 83 84 41 53 54 44 34 31 30 32 35 38 42 44
99 98 96 88 89 95 99 95 77 75 86 91 97 78 74 84 88 74 69 52 57 51 61 93 100 82 81 75 83 86 74 98 84 60 74 58 50 45 39 38 32 38 42 44 45
96 99 84 89 94 99 99 91 73 70 82 94 82 59 53 60 61 53 46 44 48 50 77 92 98 96 81 95 90 97 97 82 68 60 60 62 51 34 34 33 34 36 38 43 45
97 98 87 91 99 98 97 82 87 87 83 86 84 81 40 43 53 55 57 56 39 50 85 89 96 100 98 74 73 77 82 60 55 66 62 54 51 29 32 32 33 33 36 41 44
97 97 95 88 98 98 84 87 91 91 86 88 71 45 32 36 45 42 53 43 54 64 78 92 98 99 99 94 95 92 77 59 60 56 62 54 52 31 38 36 35 35 40 41 46
97 99 100 99 90 88 89 95 96 85 87 79 58 41 37 36 34 54 48 48 45 55 71 86 81 99 97 76 82 89 72 58 64 70 60 53 46 38 41 40 38 38 40 45 46
95 91 81 98 96 93 90 91 95 96 85 74 54 46 39 44 39 41 51 45 48 51 61 83 92 86 60 62 63 65 66 62 62 58 65 48 39 34 38 41 40 40 42 46 47
97 84 88 87 71 81 90 92 95 91 92 76 70 61 60 46 39 45 44 48 49 53 48 53 77 66 50 45 51 63 60 59 55 51 51 47 48 30 30 35 39 42 42 44 45
96 77 72 74 81 88 84 86 87 88 85 79 67 58 67 42 35 28 33 38 45 54 64 65 74 68 63 50 49 59 50 56 56 52 51 55 43 36 35 33 38 39 41 44 46

GFSSW_sfc_rhum_015.txt.gz
RH
66 65 64 65 65 66 66 66 70 72 71 78 86 83 82 84 85 82 87 66 62 56 59 50 44 44 49 65 65 65 81 77 64 52 42 35 29 27 25 32 33 27 28 27 33
67 66 66 64 65 65 66 68 68 70 75 71 71 79 86 85 78 85 69 63 59 55 62 60 59 50 62 69 73 76 87 70 49 43 40 34 31 29 34 39 38 33 27 28 33
67 68 68 65 64 64 65 66 68 68 72 75 71 74 81 79 83 80 61 64 62 58 67 66 62 58 69 61 74 75 78 59 46 39 36 35 37 32 39 43 37 35 34 35 30
69 68 68 68 66 65 66 66 66 66 69 72 72 74 83 80 89 69 53 55 56 58 68 70 72 75 79 87 61 81 61 56 51 45 42 42 34 38 37 37 34 35 34 34 32
72 70 69 69 69 67 68 67 66 66 66 70 73 74 81 89 84 57 48 48 54 62 71 77 81 77 73 70 68 71 59 50 46 44 41 39 40 39 40 35 32 30 31 34 34
76 74 73 71 73 72 72 69 68 67 67 68 68 77 89 95 46 44 51 47 45 60 75 75 75 65 66 60 59 59 55 53 46 45 43 40 42 44 40 35 34 32 34 35 33
78 79 79 75 73 73 73 73 70 67 68 68 68 73 88 74 44 43 46 50 47 46 46 61 65 70 70 72 54 57 71 56 56 48 50 44 45 44 37 36 36 35 34 32 37
80 83 80 80 76 75 75 73 74 74 75 72 68 81 93 51 50 48 45 45 43 42 44 42 44 55 70 67 66 79 72 83 58 52 49 46 60 42 37 39 39 38 36 37 36
83 84 81 81 81 83 83 77 74 75 75 72 82 90 86 52 62 51 48 46 43 42 43 34 51 63 71 82 88 90 89 87 71 52 52 48 56 43 38 38 41 39 33 40 42
84 85 84 82 83 84 83 79 73 75 74 69 64 76 68 58 54 51 47 45 50 51 52 60 68 86 94 90 88 81 81 78 84 62 55 61 54 44 40 38 41 38 32 44 44
83 86 87 84 85 83 87 90 91 94 92 88 78 60 44 50 45 55 47 52 52 63 74 67 88 86 84 79 76 68 76 78 72 54 59 57 57 48 40 40 44 37 37 47 49
83 87 89 86 85 84 88 89 84 84 94 81 73 66 50 47 60 54 47 62 65 78 77 80 88 68 63 68 76 79 89 85 68 60 62 59 56 45 41 39 40 40 40 49 53
85 89 88 87 86 91 95 75 82 72 93 81 82 79 67 59 66 61 53 59 70 83 81 85 70 56 61 67 76 79 89 81 75 63 65 68 69 52 42 37 37 37 38 44 47
83 89 88 88 90 90 96 76 84 78 100 85 90 83 71 70 81 52 47 54 68 82 74 80 59 61 69 71 67 83 60 61 66 73 89 76 85 63 46 42 38 39 44 47 49
83 90 89 76 83 89 90 89 86 92 98 79 86 65 68 84 73 72 50 60 76 70 74 83 72 72 72 67 61 71 54 58 60 74 81 78 88 68 45 43 39 44 47 46 47
85 89 89 84 86 89 89 84 88 95 95 90 85 91 89 88 75 71 65 62 74 88 78 72 65 69 63 53 54 66 71 73 76 82 98 88 85 70 52 42 37 40 45 45 48
88 91 90 72 90 87 83 91 98 97 67 94 89 83 77 81 84 85 92 95 98 100 99 96 93 76 72 83 77 78 88 89 93 97 89 68 97 77 43 37 33 35 45 45 49
91 93 87 73 86 84 89 96 98 69 79 80 83 76 96 74 87 85 98 98 94 98 96 96 92 89 76 77 77 85 82 92 89 87 75 78 96 60 44 34 33 36 42 47 54
94 98 97 95 86 84 92 100 87 70 79 93 95 100 99 91 84 93 92 97 75 90 90 99 94 71 68 65 64 79 92 66 96 88 98 89 60 40 39 41 42 46 47 51 59
99 98 96 88 86 90 98 92 83 72 82 91 98 95 88 80 92 97 95 82 74 59 63 84 96 66 70 68 71 75 65 95 99 98 96 74 56 49 46 45 46 48 50 53 58
99 99 95 87 91 97 99 93 74 71 77 94 95 97 92 87 91 91 77 61 64 58 55 72 96 92 95 96 84 92 93 80 92 87 89 88 63 44 40 39 47 48 49 53 57
98 99 97 94 99 98 98 80 75 79 76 87 92 93 85 65 83 72 68 47 54 60 67 88 98 99 89 80 71 61 79 73 93 99 89 61 54 40 39 38 42 47 48 50 54
96 99 97 88 99 99 86 79 76 87 87 91 93 78 66 53 77 60 65 52 68 70 87 92 98 95 98 93 85 81 78 67 71 97 78 60 54 41 43 42 39 48 50 52 55
98 98 100 100 95 92 91 89 93 85 91 85 84 70 71 60 54 54 53 60 56 65 79 90 96 99 98 94 82 83 73 80 93 96 73 55 51 52 47 43 44 50 50 53 54
97 96 84 98 96 93 84 87 94 96 91 86 86 85 67 56 46 59 53 51 60 67 80 90 100 98 92 85 77 76 80 90 98 73 62 48 43 47 47 46 45 52 52 53 54
98 97 88 88 82 95 93 94 89 93 91 90 90 61 61 64 48 52 57 58 58 74 89 86 98 94 91 72 72 81 83 69 61 59 54 57 60 39 48 48 49 55 52 52 53
97 86 78 91 84 92 90 87 85 82 86 81 83 75 74 68 60 68 43 44 46 56 64 73 83 92 69 75 71 81 70 69 63 60 54 64 52 42 47 43 46 55 50 53 56

GFSSW_sfc_rhum_018.txt.gz
RH
67 67 66 66 66 66 65 66 67 71 74 73 81 85 85 88 87 84 95 69 67 57 60 54 50 49 55 64 68 71 90 90 69 60 47 40 39 29 26 33 34 32 30 29 36
69 68 68 66 66 65 66 66 67 69 72 75 72 79 86 87 80 90 74 66 61 57 66 67 70 65 68 71 72 88 95 80 60 52 49 43 37 34 37 39 42 39 33 35 44
71 69 69 69 67 65 65 67 67 68 71 74 72 76 82 83 84 81 64 67 65 62 69 74 74 71 74 69 79 87 90 66 56 47 46 46 44 35 37 43 38 40 40 35 40
74 71 70 66 69 66 66 66 67 66 67 72 74 75 82 85 90 69 54 56 63 65 71 76 82 83 80 89 73 83 71 65 63 55 57 59 43 44 40 37 33 36 37 39 36
76 73 72 70 71 70 69 67 66 66 67 69 74 76 84 98 88 54 47 51 61 70 82 84 89 85 80 74 73 82 73 61 60 58 54 50 54 48 43 35 35 35 34 36 36
78 76 76 73 73 74 72 71 68 67 67 68 69 77 88 92 55 50 57 52 52 69 84 82 86 77 80 74 73 64 62 62 56 55 54 55 52 49 41 38 39 36 36 37 37
80 82 82 79 74 75 74 74 72 68 68 68 68 76 95 80 50 53 49 56 51 55 68 75 76 85 80 80 64 64 79 68 62 62 61 53 62 60 43 40 40 40 37 39 37
81 84 85 83 76 77 74 75 77 75 74 72 69 84 94 57 56 55 53 54 52 45 48 47 51 72 66 66 74 84 86 92 64 59 57 58 75 52 42 45 44 42 42 44 37
81 82 85 84 83 83 83 80 77 76 74 72 84 92 88 55 68 54 55 56 47 47 47 36 49 62 67 85 91 91 97 88 80 57 59 62 65 48 44 47 46 46 46 43 44
81 84 85 85 84 85 85 82 76 75 74 71 65 89 75 64 60 57 52 52 53 55 56 60 66 85 92 90 92 78 93 84 81 71 64 64 63 58 48 48 45 40 46 44 46
80 82 86 86 85 86 88 92 93 97 97 90 80 73 49 56 52 61 55 55 60 68 83 72 90 88 82 82 84 86 82 86 78 63 73 69 64 53 50 51 52 48 48 44 50
82 82 84 88 85 87 89 94 82 75 96 84 79 71 56 53 61 62 53 69 74 88 81 81 88 64 66 70 82 86 93 90 72 60 63 76 75 58 48 47 46 43 48 46 56
79 80 83 88 86 92 95 86 80 76 96 82 84 81 74 65 69 64 57 66 77 85 77 78 67 59 68 76 84 84 90 85 84 67 60 58 67 64 55 46 45 41 45 46 50
79 80 84 88 92 96 92 81 82 78 97 88 88 80 75 70 79 54 50 57 71 84 76 75 66 68 70 78 77 92 71 72 74 81 89 70 88 70 56 54 48 41 50 49 52
83 81 89 78 89 95 79 86 88 89 88 71 85 66 71 78 72 75 50 59 88 84 81 87 84 81 79 71 64 79 61 67 72 82 88 75 87 65 58 60 54 43 51 49 51
95 85 89 82 89 84 90 84 89 95 92 93 83 89 90 87 78 75 69 62 82 87 76 74 64 67 65 55 62 69 71 73 81 77 97 68 73 66 69 56 50 45 46 48 51
95 90 89 65 90 88 83 88 97 96 68 96 88 89 79 82 82 81 85 95 99 100 98 98 95 77 72 71 64 67 82 94 99 98 85 62 70 64 62 54 41 39 49 53 52
96 93 83 68 89 84 89 93 94 67 84 74 77 76 88 72 90 80 92 95 87 98 100 98 98 96 74 72 80 78 76 92 93 99 76 61 84 76 53 42 40 44 41 52 57
95 97 96 93 84 88 91 100 86 72 79 78 81 92 94 85 81 87 90 90 65 91 96 98 95 73 71 61 61 88 95 64 81 85 90 86 84 67 54 47 45 42 50 57 62
99 98 97 88 85 93 98 97 80 81 84 80 88 90 87 79 87 92 86 73 72 84 75 84 98 76 76 70 70 77 66 92 96 98 97 89 93 66 51 49 56 55 57 60 66
98 98 97 89 89 98 99 97 76 81 77 84 89 94 85 88 82 80 80 74 76 76 82 81 87 92 88 96 78 86 94 76 70 77 98 84 81 61 40 43 54 55 57 64 69
99 100 97 93 99 98 99 81 70 82 80 81 83 90 91 87 94 94 87 66 62 61 88 71 89 96 87 62 64 74 72 72 82 79 73 90 74 42 42 43 53 58 56 61 64
96 99 97 90 99 98 88 79 77 84 82 89 93 86 75 85 84 79 66 51 64 59 67 75 99 98 96 88 89 97 82 69 66 90 94 96 70 43 49 57 56 55 60 62 67
98 98 100 99 91 93 86 86 88 79 77 84 88 80 83 83 67 65 63 60 64 63 80 87 98 98 90 98 87 98 79 72 70 78 74 93 78 57 50 48 59 62 62 64 66
99 95 86 97 97 86 85 82 88 93 88 86 94 92 89 90 68 69 58 62 66 78 88 94 100 99 96 92 95 73 69 74 82 80 90 71 68 47 45 43 54 60 63 64 67
99 97 89 86 83 90 89 92 85 85 88 94 96 80 86 92 58 60 59 60 72 85 89 94 98 100 97 88 93 86 72 78 77 88 93 86 94 38 52 52 64 64 61 62 64
98 90 83 87 86 94 95 89 86 78 83 80 85 89 90 81 64 57 61 49 61 78 92 96 98 99 99 88 87 96 77 75 75 78 87 97 74 46 51 46 61 68 57 58 61

GFSSW_sfc_rhum_021.txt.gz
RH
70 68 67 67 68 69 69 68 68 71 76 75 79 85 88 89 89 87 94 74 72 57 59 58 56 62 58 66 71 72 91 90 71 66 50 47 45 38 33 35 37 36 40 35 40
73 70 68 68 68 69 69 69 70 70 72 76 74 81 87 88 85 94 74 70 65 62 69 70 70 69 72 74 75 91 95 75 66 59 53 47 45 40 37 38 43 43 36 47 54
76 73 70 69 70 69 68 69 69 69 72 74 73 76 82 85 87 81 65 68 68 64 68 75 77 76 78 76 84 90 87 64 67 56 51 55 49 44 46 46 40 39 42 43 57
78 76 73 70 65 70 68 69 69 68 68 73 75 76 81 85 92 70 56 58 63 70 74 79 85 88 87 89 79 87 75 73 69 61 64 67 54 51 46 41 37 38 39 42 37
81 79 75 73 71 73 70 71 69 68 68 70 74 77 85 95 88 57 54 56 66 77 86 88 91 88 87 82 79 86 82 67 64 66 66 62 65 64 54 44 38 37 39 40 40
80 82 80 78 75 76 74 73 70 68 69 69 70 77 88 90 54 54 54 57 61 82 92 89 91 84 90 84 82 72 67 66 62 62 63 65 62 65 58 46 44 41 40 39 41
80 81 84 82 76 75 77 74 73 70 70 68 70 77 95 77 53 54 49 58 58 70 81 84 83 87 82 89 74 73 84 72 67 64 66 61 66 66 56 52 47 45 44 40 39
80 80 83 85 82 78 77 74 78 76 73 71 70 86 88 58 62 60 56 57 54 57 53 56 72 85 80 65 73 86 89 95 68 63 62 63 73 62 52 53 53 49 48 45 43
81 81 83 84 85 82 83 80 80 77 73 73 86 91 85 53 72 60 57 56 53 51 52 39 50 65 62 84 85 86 94 90 78 62 63 69 69 55 50 53 54 52 51 46 46
85 81 79 84 86 85 86 82 80 77 76 73 67 89 76 65 64 60 60 55 58 56 59 59 66 79 84 90 87 87 99 93 86 74 70 74 70 60 56 58 56 54 49 50 48
90 84 80 86 86 87 88 91 91 94 97 89 80 79 56 58 54 65 56 60 60 68 83 76 90 92 76 89 89 94 93 87 79 63 75 78 75 65 61 58 54 61 54 53 47
89 92 80 82 86 87 88 90 84 72 94 83 82 73 60 59 67 61 53 69 77 92 85 88 96 77 68 74 80 87 89 86 77 67 70 71 72 61 56 57 55 50 52 49 51
84 91 87 82 89 93 89 85 78 78 94 78 87 84 79 68 71 69 60 72 86 94 92 91 74 60 67 76 82 87 92 77 82 72 68 69 61 44 43 49 52 50 46 45 47
81 89 93 81 97 90 92 81 82 77 97 81 92 84 79 72 82 57 54 62 73 87 86 86 67 65 71 78 79 84 73 75 77 88 91 76 78 58 60 52 54 50 50 52 53
81 87 95 90 94 96 81 86 86 78 90 74 88 67 72 79 71 78 59 60 76 83 88 90 93 78 79 74 70 73 65 78 82 92 95 81 94 72 53 50 50 60 52 54 54
77 90 95 90 90 82 84 83 86 92 94 87 86 87 90 84 78 77 73 61 75 84 78 79 72 75 76 62 64 68 74 80 79 88 95 72 84 60 43 50 57 59 53 51 56
78 89 94 76 90 87 80 88 98 97 72 93 81 88 82 86 83 83 90 93 94 99 97 98 95 82 78 79 66 71 89 98 98 96 85 66 77 61 46 52 48 47 48 52 56
82 84 86 77 89 79 81 94 92 70 92 77 83 87 92 80 82 80 86 90 85 98 100 98 98 96 82 80 81 84 88 95 91 94 85 49 63 53 47 36 33 39 50 56 58
85 94 96 97 84 77 87 99 85 70 80 78 70 89 88 74 77 88 88 77 74 87 96 96 95 91 84 70 80 99 99 74 86 84 95 83 74 68 52 57 54 44 47 61 62
99 97 98 89 79 86 94 88 83 80 77 72 89 78 78 80 88 86 78 79 81 69 68 82 97 83 82 70 80 89 70 96 99 96 94 79 87 64 72 60 42 58 54 60 64
97 97 97 85 80 96 99 93 81 83 77 83 84 84 72 82 82 84 76 73 75 80 75 78 90 92 94 96 89 91 95 91 78 88 94 93 76 78 61 53 54 57 58 64 69
96 100 97 89 98 97 99 88 72 91 83 81 80 74 86 80 83 87 94 76 69 84 88 75 92 96 81 70 62 65 70 78 89 87 77 77 62 48 56 48 56 67 69 74 76
98 98 96 90 99 99 92 83 81 90 83 81 82 78 73 82 88 90 80 61 69 76 88 78 99 96 98 83 83 99 74 65 69 84 76 75 43 44 48 54 58 70 73 75 82
98 100 99 97 92 83 87 85 88 76 80 81 88 81 85 84 78 82 78 60 60 61 65 71 99 98 90 97 88 96 88 80 78 90 74 67 59 53 60 64 65 72 73 80 80
98 97 93 99 98 79 77 79 83 93 82 78 91 89 92 92 76 92 73 61 71 68 82 92 100 100 96 94 99 96 77 78 92 75 74 53 71 73 62 67 66 72 72 78 79
98 97 89 87 85 84 86 94 86 80 90 95 97 85 86 94 70 68 66 65 74 87 87 96 99 100 97 90 95 98 94 80 75 65 60 62 85 56 56 61 65 70 69 74 77
99 91 85 87 86 90 90 85 83 76 80 73 86 93 86 83 76 70 74 65 57 79 93 98 99 100 100 94 96 99 86 76 69 64 66 93 67 63 61 60 54 65 63 68 72

GFSSW_sfc_rhum_024.txt.gz
RH
75 71 68 67 68 68 69 68 70 71 73 78 77 82 86 87 90 92 92 78 77 61 60 62 60 65 62 70 77 76 91 94 80 70 59 50 50 41 36 38 39 38 46 38 51
78 74 71 69 68 69 70 69 69 71 72 74 76 80 86 88 93 96 74 69 65 61 73 73 73 71 73 79 80 91 97 80 68 61 58 52 54 48 44 46 46 42 37 51 60
82 77 74 71 69 69 70 69 70 70 72 75 77 77 84 84 84 81 66 68 70 68 70 76 79 76 81 80 85 91 90 73 70 63 61 61 56 50 55 57 44 43 41 45 74
75 81 77 74 71 70 70 69 69 69 69 74 77 77 81 88 85 71 54 56 64 70 72 79 85 85 86 86 80 89 81 80 75 67 71 74 66 64 53 49 40 45 41 44 45
78 79 81 77 74 69 73 70 70 69 69 70 75 79 85 91 89 61 61 59 70 79 79 85 89 85 87 86 85 89 86 72 68 64 70 68 71 76 68 53 48 48 44 42 42
78 81 80 84 78 76 76 73 72 69 70 71 70 77 89 82 51 56 54 57 76 77 82 89 89 86 90 88 84 79 75 72 66 64 65 67 64 71 64 60 56 50 47 45 45
86 82 82 84 81 77 76 76 73 71 72 69 70 78 95 79 57 60 51 60 61 76 94 92 84 86 88 92 80 84 88 80 74 68 66 65 69 72 53 59 60 58 52 47 45
85 88 82 82 84 81 76 77 77 77 73 71 72 86 85 58 66 62 60 56 56 60 55 74 82 92 86 78 71 82 81 95 71 68 63 64 74 58 54 57 62 58 60 53 46
71 87 86 81 83 84 83 80 80 82 76 74 88 90 86 54 75 63 57 56 59 62 56 41 60 77 78 90 88 79 88 86 73 63 68 77 80 62 59 64 68 66 63 56 50
68 76 90 84 81 85 86 82 79 80 78 74 72 93 76 68 66 62 65 54 58 60 60 64 68 80 85 94 94 87 86 78 72 72 73 77 76 60 57 59 59 64 64 60 55
67 75 91 91 82 85 86 94 97 96 90 87 83 80 62 61 58 68 62 61 62 67 88 78 88 94 83 85 86 96 90 89 70 59 72 74 72 62 58 68 69 61 56 63 58
69 75 82 92 87 86 87 93 76 71 92 85 84 81 66 66 72 68 58 73 80 90 84 89 96 76 74 71 76 79 86 84 66 59 76 78 74 59 55 56 56 62 58 58 58
72 76 84 90 95 93 84 80 80 72 88 80 87 80 82 70 76 74 64 74 88 95 94 92 76 66 73 81 79 77 88 87 82 69 66 72 68 44 36 38 40 42 44 48 54
73 70 75 91 99 92 89 82 78 68 95 76 94 87 83 72 76 59 58 69 81 94 93 91 72 75 80 82 82 90 74 77 83 90 89 75 82 52 45 38 40 39 46 50 56
75 72 73 85 98 95 92 85 80 71 91 76 89 65 74 75 74 80 63 63 78 81 84 86 92 93 90 74 74 77 68 80 84 92 95 86 95 72 55 54 50 63 66 58 57
73 72 75 93 98 83 79 79 82 88 96 90 86 89 91 82 74 75 72 65 73 77 78 75 76 76 77 65 66 68 77 80 85 89 95 72 89 59 46 41 40 33 44 52 55
82 85 81 88 98 83 74 83 95 96 74 88 85 80 75 83 79 81 87 94 95 100 98 94 88 80 75 85 74 75 99 97 98 98 89 70 82 63 44 41 40 36 50 57 59
80 78 86 86 94 81 80 87 94 72 89 76 79 78 83 76 76 77 87 93 84 96 100 99 93 86 84 77 83 84 86 95 93 95 86 61 74 62 48 40 36 34 52 57 64
84 98 96 84 94 76 73 91 82 74 77 82 82 96 97 76 75 81 86 89 63 80 98 98 94 90 75 76 67 97 98 76 94 95 97 86 73 55 54 49 54 48 39 42 66
96 94 93 84 92 86 85 87 80 74 75 72 88 80 87 84 85 90 78 76 72 64 74 86 96 84 84 80 78 92 82 98 99 96 94 82 76 64 55 49 56 55 59 52 70
95 96 91 94 92 95 95 89 82 81 73 79 81 86 76 77 82 83 80 69 78 81 75 73 91 91 92 96 87 98 99 99 96 95 88 80 69 63 62 65 65 60 54 60 71
95 100 96 93 99 98 95 86 78 90 84 83 78 78 82 74 80 79 85 74 72 80 86 71 95 96 83 68 65 68 78 81 90 90 87 87 61 57 74 67 65 65 71 73 73
98 97 97 88 100 99 91 87 84 91 85 81 85 78 72 86 96 82 85 68 76 82 84 75 98 98 93 86 81 100 87 69 67 84 88 90 53 30 41 52 72 81 90 93 91
97 99 99 98 94 88 86 83 96 80 76 72 76 78 86 95 88 91 89 67 74 75 70 70 98 96 93 86 96 98 94 96 90 95 74 71 59 44 44 74 77 74 93 95 93
98 98 92 100 98 79 76 82 88 93 82 76 86 84 94 98 98 95 86 77 72 68 72 85 99 95 96 91 100 99 95 98 98 80 85 58 54 43 65 73 88 78 93 94 92
98 96 95 90 82 78 84 89 81 88 86 85 93 78 89 97 79 80 85 76 68 87 88 92 98 100 97 85 96 98 96 95 88 77 74 64 64 47 64 76 84 84 82 90 83
97 93 83 89 81 92 83 89 76 78 84 75 80 90 96 88 80 75 70 73 80 74 88 98 100 100 95 98 94 98 90 89 87 72 69 87 61 47 52 79 75 71 72 75 79

GFSSW_sfc_rhum_027.txt.gz
RH
77 80 73 70 68 67 67 69 70 71 72 72 76 77 85 86 89 89 91 70 73 63 59 56 54 57 53 58 66 64 77 76 63 60 46 39 38 34 32 30 32 29 29 32 52
79 76 77 72 70 68 68 70 69 70 72 73 75 75 84 87 89 95 72 68 67 62 67 63 64 58 61 65 70 75 86 72 61 54 48 43 43 41 37 39 37 33 30 36 53
77 77 80 75 73 70 69 70 69 70 71 73 76 76 81 82 75 74 62 70 70 70 66 66 67 62 65 66 72 81 81 66 60 55 56 60 56 43 44 50 41 36 33 34 48
85 79 76 80 76 72 70 70 69 70 69 71 76 77 80 80 74 65 56 58 62 70 66 73 71 72 75 74 69 77 73 75 67 62 64 68 62 64 53 48 38 35 38 37 35
75 85 82 78 80 75 70 72 70 69 68 70 73 78 78 85 88 59 59 56 62 72 77 75 76 74 74 75 74 83 76 68 64 60 59 62 67 63 64 52 45 46 48 44 40
67 77 85 83 80 82 76 75 72 70 70 71 70 74 80 75 46 54 51 54 77 80 80 73 75 71 75 77 72 68 69 68 64 60 58 60 57 61 51 52 53 53 48 42 41
65 72 83 85 80 83 76 77 74 72 72 69 72 76 92 78 56 57 53 55 56 69 83 83 72 75 78 87 74 74 82 71 69 65 63 57 61 68 48 46 45 45 45 45 42
63 68 71 86 85 82 80 77 77 77 75 72 74 80 81 56 64 60 56 52 53 55 66 81 84 82 82 72 69 80 80 78 62 60 61 57 58 48 44 48 51 48 44 47 40
67 65 67 83 89 84 84 83 80 79 76 76 87 82 86 53 70 63 54 52 57 57 52 54 68 76 79 88 84 84 85 88 67 58 60 68 71 53 53 52 53 54 53 53 48
66 68 66 76 89 86 88 84 79 81 78 77 72 92 73 68 64 64 62 51 57 63 62 63 69 81 79 90 88 81 86 71 71 58 64 69 68 54 48 49 48 47 50 51 49
70 69 70 76 88 92 89 94 94 92 86 84 80 76 64 63 59 67 61 58 58 68 89 73 82 88 82 80 75 87 90 79 69 60 65 63 61 52 46 49 50 47 46 45 50
71 72 75 74 86 91 88 93 79 72 93 83 85 85 71 66 70 71 59 71 73 86 79 84 91 67 57 70 74 76 82 80 60 54 61 64 68 55 53 51 46 43 42 46 43
67 70 74 71 79 95 91 77 76 61 81 77 86 81 82 70 79 75 64 74 82 92 88 89 71 67 73 77 76 82 87 70 63 64 61 65 61 38 31 34 37 41 40 38 40
62 66 75 71 86 95 95 82 77 57 90 71 88 85 82 71 77 63 61 68 81 90 90 91 70 74 83 83 79 86 70 70 75 84 77 65 71 40 34 30 28 32 33 37 38
70 71 72 68 93 93 95 85 69 66 82 74 94 66 76 76 68 80 63 63 84 85 87 84 85 93 82 72 74 77 66 73 76 88 83 72 88 54 48 46 42 36 36 36 38
76 73 70 82 90 82 92 87 69 85 88 92 86 92 93 79 73 74 70 64 69 74 78 78 71 74 79 71 67 65 77 78 81 89 96 69 78 55 41 36 34 33 32 42 46
84 83 77 74 85 94 92 89 97 90 74 95 88 86 77 84 81 78 89 94 95 100 96 84 86 75 70 76 73 72 99 95 97 98 83 61 80 56 40 39 36 34 33 31 38
83 83 82 75 79 95 90 98 90 72 85 67 75 80 81 77 72 74 86 91 80 88 100 93 90 82 77 74 82 88 89 91 91 87 73 63 78 56 43 35 33 34 34 35 39
82 94 92 90 86 95 98 99 80 75 81 79 75 84 85 77 80 76 81 82 68 82 99 95 92 84 85 78 68 96 98 72 87 76 94 67 57 45 40 45 45 49 53 50 43
96 97 98 90 87 97 100 84 79 72 75 73 87 81 84 87 91 87 85 75 77 62 68 79 98 80 84 71 75 88 74 97 99 95 87 78 76 57 46 40 64 65 62 60 53
95 97 94 88 93 99 100 87 90 77 67 74 82 86 80 85 83 85 80 68 72 80 72 82 89 84 94 96 77 94 98 98 90 90 79 66 57 42 38 64 73 72 68 72 69
98 99 96 92 100 99 99 84 84 91 79 80 75 75 77 82 88 80 80 70 71 82 87 75 90 99 86 62 64 64 78 80 97 84 89 74 54 56 66 68 75 76 72 80 80
98 98 95 87 100 100 88 90 90 89 85 81 84 78 77 79 89 81 80 69 78 79 87 77 95 98 88 84 69 96 87 90 94 98 93 85 54 33 46 55 71 78 75 83 85
97 100 99 97 95 95 90 92 94 82 85 73 80 75 81 85 76 89 87 74 76 74 69 67 91 89 83 84 91 99 97 96 98 97 77 77 58 42 38 40 48 78 81 86 86
97 98 94 100 99 84 76 81 96 92 86 79 87 77 77 88 83 86 82 80 79 76 77 82 99 95 91 83 94 99 96 97 99 86 91 59 55 43 41 43 73 80 74 81 90
99 97 97 93 87 75 84 87 84 95 88 87 94 79 79 95 85 91 84 83 77 84 85 82 98 100 96 81 83 99 95 95 94 90 78 68 67 43 59 67 68 66 80 84 86
96 94 88 86 84 79 88 88 82 84 85 76 78 77 89 73 80 80 76 66 68 89 83 96 100 100 94 79 94 99 94 95 93 83 77 90 65 52 55 57 60 70 88 76 82

GFSSW_sfc_rhum_030.txt.gz
RH
80 75 77 78 72 70 68 68 69 70 71 72 72 77 83 85 87 88 77 52 52 61 58 46 40 39 40 40 48 46 37 34 31 30 25 27 26 21 23 23 23 20 21 25 31
72 80 77 76 76 72 70 69 70 70 70 72 73 75 80 84 70 91 61 65 65 60 50 46 45 41 40 43 45 42 42 34 28 27 29 26 30 27 28 26 23 24 22 24 34
69 73 81 80 77 76 72 70 71 70 71 71 74 76 78 71 64 57 64 70 69 64 48 45 45 43 45 45 45 45 44 30 40 36 38 37 38 33 30 29 25 24 23 26 28
64 70 75 80 82 78 74 72 72 71 70 69 75 77 77 60 61 53 59 59 64 60 55 54 50 51 50 48 43 53 42 42 41 43 47 44 38 40 35 28 21 29 28 29 28
62 64 69 79 83 82 80 73 72 71 71 70 71 76 63 63 54 46 56 46 52 63 63 63 56 51 52 47 52 50 40 43 41 47 43 40 42 38 34 30 29 30 32 31 28
62 65 63 73 80 86 84 76 73 72 72 73 70 74 58 49 35 40 38 46 56 65 65 58 56 53 53 52 52 47 50 47 45 43 41 46 39 36 34 28 27 28 28 26 28
56 65 64 64 73 85 84 80 75 73 73 70 72 60 70 50 40 42 42 46 55 57 75 58 57 62 56 61 53 53 60 46 42 40 43 41 45 41 31 28 28 26 24 26 24
54 64 66 66 67 83 87 84 80 79 76 72 74 58 62 45 43 43 41 43 47 49 58 59 57 63 56 55 55 57 56 54 42 45 43 46 40 29 29 28 32 29 26 24 24
55 66 68 67 66 77 88 88 84 79 76 74 67 64 65 46 52 41 39 47 48 41 44 56 58 67 61 62 61 56 51 55 47 37 40 46 44 34 38 33 35 33 30 31 30
59 66 72 71 71 81 88 87 82 80 77 72 60 75 61 57 50 50 43 41 49 50 54 53 51 53 50 59 55 47 56 46 48 41 45 46 44 36 34 33 33 32 30 30 31
61 67 70 71 74 77 92 99 99 98 81 65 66 58 56 52 49 55 44 45 46 53 64 60 68 66 51 46 43 55 56 58 50 43 46 45 41 35 31 31 32 29 28 27 27
68 69 66 68 74 71 91 98 74 63 85 67 66 60 60 56 61 59 46 51 56 66 57 68 74 46 47 50 55 58 61 54 45 41 46 43 44 36 33 32 29 27 24 22 22
67 67 64 65 75 79 90 92 61 50 63 75 68 63 64 59 62 63 50 52 54 66 62 60 55 52 55 55 60 60 69 65 58 44 39 45 43 28 21 20 21 23 23 23 22
67 72 67 68 80 77 85 83 91 61 96 74 79 68 61 59 65 50 45 50 63 62 63 62 48 57 61 62 55 60 46 54 58 61 65 47 56 31 24 22 21 19 20 21 23
69 78 75 72 87 76 89 92 94 76 96 64 81 59 58 57 60 71 47 53 62 64 66 66 66 71 71 61 53 62 50 53 55 62 66 56 83 34 30 30 25 20 18 18 19
77 86 82 80 84 66 81 95 93 97 85 85 80 90 84 62 62 69 66 56 53 60 63 54 54 59 54 51 52 52 60 63 59 69 89 56 68 40 27 23 22 19 17 17 17
82 86 80 75 75 76 86 95 99 93 63 90 77 85 70 70 70 66 81 88 79 97 96 66 63 60 58 67 61 66 95 79 90 94 64 33 50 45 24 25 23 21 20 20 23
87 81 75 71 67 86 96 99 98 63 66 61 67 73 80 65 67 73 83 89 61 65 86 81 77 63 66 65 59 74 70 74 69 54 43 39 52 32 23 22 20 23 27 37 35
86 88 86 78 77 93 97 99 88 56 60 71 73 80 83 67 65 72 72 63 56 63 88 83 82 61 59 55 57 88 97 60 85 63 78 48 31 23 21 23 24 30 41 37 41
97 92 83 78 75 91 100 100 67 59 56 56 72 60 72 72 72 66 64 53 55 51 56 65 89 57 57 61 63 74 58 90 97 81 67 41 36 33 26 28 40 39 40 45 48
98 93 86 76 82 98 100 99 76 56 52 58 64 69 60 68 62 61 60 54 54 54 53 59 68 68 75 82 65 83 96 98 71 72 68 54 37 21 22 22 34 40 43 52 55
97 100 93 80 99 99 99 83 69 66 61 63 56 57 59 61 65 64 61 54 49 56 65 54 71 82 77 42 44 40 52 62 95 81 82 70 57 24 33 40 44 35 40 49 56
97 98 94 88 100 100 94 82 72 68 67 64 68 60 56 62 70 59 59 54 54 59 57 56 88 88 81 68 55 74 58 55 83 85 93 86 51 24 28 36 32 35 41 46 58
95 100 97 96 87 91 93 84 81 71 68 64 65 59 62 65 61 74 66 62 57 54 61 60 71 82 70 80 77 99 76 90 99 98 72 72 57 36 30 30 26 25 30 44 61
95 98 89 99 95 85 70 76 75 76 69 63 70 63 65 75 78 84 63 62 64 65 61 64 100 83 83 69 82 90 85 88 100 92 94 55 48 38 34 33 29 29 44 46 62
98 92 90 75 74 70 69 67 67 78 69 75 68 66 65 73 68 67 67 66 58 63 64 68 92 93 97 70 70 92 91 95 96 95 95 80 69 41 37 36 39 46 43 48 69
92 93 90 78 83 71 68 63 64 66 70 62 61 66 71 69 66 68 60 63 62 61 69 73 96 99 96 69 73 90 95 95 88 78 76 94 61 43 44 43 50 52 67 67 68

GFSSW_sfc_rhum_033.txt.gz
RH
70 72 77 77 79 76 72 70 68 70 70 71 72 72 78 85 87 74 72 49 46 59 60 39 35 33 32 36 33 35 37 33 28 20 19 14 18 17 16 17 16 15 15 22 25
66 67 72 77 78 80 74 72 70 71 71 70 72 73 76 82 68 72 57 56 60 60 52 43 40 36 35 36 36 42 39 29 17 16 18 18 21 19 20 21 17 18 18 21 26
65 65 66 72 78 80 80 74 72 71 71 70 71 75 76 70 69 58 60 64 66 62 43 36 33 36 40 35 36 37 40 23 20 26 26 24 22 22 25 26 17 18 18 20 24
55 62 66 65 71 78 82 81 74 72 72 71 72 76 75 56 69 48 59 63 67 60 50 42 39 42 42 44 34 41 32 28 26 29 36 36 26 27 25 25 17 17 19 22 23
53 54 58 62 64 72 80 83 78 73 73 71 71 75 61 60 48 44 56 50 48 62 63 48 44 39 42 34 32 40 36 27 30 33 35 35 35 31 30 24 21 21 22 26 25
53 56 56 66 65 67 72 83 83 74 73 74 70 74 56 55 31 35 35 39 40 52 67 54 51 38 43 38 41 35 35 33 32 33 34 38 34 30 27 22 22 22 23 22 24
54 57 56 64 66 67 69 81 85 81 74 74 72 58 59 46 31 33 34 40 45 47 62 58 50 50 48 51 42 44 50 41 37 35 37 34 42 38 27 23 23 22 20 20 20
56 58 58 64 68 69 68 76 89 86 76 72 72 50 59 38 34 39 33 41 43 44 49 48 49 54 54 48 46 50 44 50 30 32 31 37 43 22 21 23 24 23 20 20 18
58 58 59 65 70 71 70 78 85 91 77 72 66 57 55 47 43 32 32 44 44 44 49 51 57 64 57 62 57 49 46 42 35 31 33 40 42 26 27 28 27 23 22 21 20
61 65 66 64 69 72 73 80 85 94 79 61 51 68 49 49 42 37 33 40 47 52 56 55 56 67 68 73 55 42 43 38 38 30 36 39 38 29 25 26 28 27 25 24 23
64 66 68 69 70 70 79 90 99 100 96 73 63 48 49 45 39 43 38 44 44 47 56 49 55 57 43 42 38 35 43 40 33 31 37 36 34 29 24 24 26 25 25 23 22
65 64 68 68 70 66 80 89 91 81 96 60 52 51 45 43 55 46 37 50 56 65 52 66 75 42 36 38 40 43 47 44 35 31 36 36 34 27 24 24 23 23 23 23 20
62 58 72 71 73 68 73 73 77 92 90 70 54 52 58 50 49 55 44 44 54 58 58 59 45 42 42 47 51 47 50 48 49 41 35 37 37 25 19 19 19 21 21 21 20
59 62 82 76 78 59 66 82 87 93 100 90 78 59 57 51 62 42 40 42 48 53 52 54 40 47 47 51 44 52 36 41 46 53 50 40 48 29 20 18 18 17 17 17 18
67 72 75 84 77 68 67 90 96 94 98 70 72 45 50 54 54 59 39 48 52 48 52 59 55 56 57 49 42 52 44 48 48 53 62 48 63 34 23 24 22 19 17 16 16
71 82 84 93 90 60 67 96 93 99 100 80 82 78 71 54 56 57 56 48 42 49 51 45 43 48 49 45 45 47 50 54 53 63 85 50 41 33 22 18 16 15 16 15 14
79 78 81 78 68 54 73 96 99 98 55 92 76 76 68 65 64 70 75 73 70 94 93 62 55 49 45 56 50 53 74 73 83 91 64 26 40 38 22 20 19 18 17 17 18
82 81 74 61 52 66 89 99 99 76 62 52 71 66 76 62 62 59 68 83 56 54 71 81 77 53 57 58 55 60 62 70 62 50 39 28 41 26 17 17 18 18 17 18 25
84 82 87 75 61 66 95 98 99 55 55 65 69 80 78 59 60 61 61 65 55 55 77 70 73 47 50 46 48 66 89 52 71 54 65 39 26 20 17 17 16 17 20 24 29
98 89 88 73 67 89 100 74 94 48 49 52 66 58 75 65 64 59 69 48 52 45 41 56 81 49 50 49 50 57 50 84 95 83 62 36 32 28 21 18 17 20 32 32 35
97 90 90 75 70 96 97 92 71 47 44 50 53 55 54 61 57 59 58 48 41 43 44 51 58 65 62 70 57 69 78 77 64 72 62 53 38 19 21 21 19 30 30 35 38
95 100 87 62 97 97 99 94 60 56 53 51 44 44 50 49 52 50 51 44 38 41 56 48 57 81 66 40 38 40 58 60 92 65 78 76 63 25 23 21 31 30 29 30 35
95 92 82 86 98 99 91 84 61 63 57 55 57 48 45 48 59 50 48 46 43 48 48 49 73 83 83 55 44 57 49 47 68 86 94 86 55 24 26 25 24 30 26 23 32
96 100 94 91 84 82 94 91 81 63 57 52 53 46 49 52 50 55 55 56 48 45 66 53 61 76 72 84 71 99 69 65 96 98 72 66 54 37 31 31 32 26 28 23 27
85 93 80 99 80 87 76 81 72 65 58 52 57 50 52 62 64 63 54 56 56 57 54 58 100 73 71 62 75 82 74 74 99 95 99 68 65 51 44 39 33 32 29 28 34
98 96 81 69 60 67 72 81 61 66 54 61 57 54 52 56 56 62 58 58 52 54 60 62 87 88 92 55 57 70 55 74 92 95 96 94 94 68 51 38 38 36 33 36 36
93 87 97 69 61 53 61 58 55 54 60 53 51 53 58 58 58 60 53 48 49 64 64 71 93 91 81 61 59 78 94 95 93 90 94 98 66 48 45 42 44 62 62 56 53

GFSSW_sfc_rhum_036.txt.gz
RH
63 66 67 69 74 77 81 76 72 70 70 71 71 72 72 79 84 78 75 56 55 57 58 48 42 39 36 45 38 39 60 52 43 33 27 17 19 20 21 22 20 22 23 31 41
57 57 62 66 68 73 77 82 74 72 71 72 71 72 73 79 75 71 54 54 54 56 52 49 47 41 46 45 45 55 66 54 32 25 25 19 22 24 26 24 25 23 23 28 34
54 54 55 58 64 66 74 78 82 74 72 72 71 72 76 71 75 60 58 59 61 60 52 44 40 39 50 43 42 47 58 35 28 22 32 33 33 24 30 34 26 23 24 27 33
56 55 55 56 57 62 67 74 80 83 74 72 72 73 76 63 76 63 63 60 63 63 58 51 42 50 55 51 38 46 37 35 35 30 36 40 34 36 30 31 26 25 24 29 31
58 57 55 57 57 60 67 70 76 81 79 73 71 74 68 71 58 59 63 60 59 70 70 66 49 48 52 41 40 44 38 32 32 33 36 37 43 43 38 30 27 25 26 30 35
60 58 58 57 57 63 66 69 71 81 87 74 72 75 69 64 31 37 36 38 44 56 72 65 48 44 45 40 40 38 38 38 34 33 36 39 40 40 35 29 30 28 29 28 31
60 60 59 59 59 63 67 68 70 75 86 75 72 66 63 56 31 32 35 37 41 43 72 62 54 56 50 56 46 44 57 48 44 40 41 39 47 44 34 30 30 28 26 25 27
63 63 60 60 61 62 67 70 69 77 89 82 72 61 68 39 38 38 32 37 42 48 49 62 59 58 58 51 50 57 57 72 40 40 37 42 58 37 30 32 33 30 27 26 25
65 65 64 65 64 63 70 71 70 75 84 85 74 72 63 48 44 37 33 40 43 51 54 51 58 67 62 74 70 54 70 59 46 38 38 43 56 38 32 35 36 34 31 26 25
64 66 66 65 67 67 71 72 72 73 86 75 58 77 52 54 42 36 34 41 48 51 69 75 71 74 72 74 81 64 66 56 49 40 42 47 48 37 32 31 34 36 35 33 30
68 68 67 63 69 72 75 80 90 96 99 84 74 52 47 42 40 41 37 47 49 58 73 72 80 87 71 61 56 54 50 49 42 33 41 43 40 36 31 30 30 31 31 30 29
69 66 60 67 72 73 76 80 79 95 98 76 61 49 44 45 54 47 40 58 62 83 58 66 78 50 44 46 53 48 53 53 43 35 41 44 45 37 32 29 27 27 27 27 28
62 60 64 71 81 72 74 67 74 89 98 82 59 53 54 46 53 56 47 50 64 68 69 63 54 46 49 49 52 55 62 57 53 45 43 46 49 38 29 28 27 26 24 24 25
60 68 73 75 89 68 70 72 88 93 100 98 80 59 56 51 57 44 42 46 56 71 58 61 45 45 51 54 49 62 45 46 48 62 74 49 78 45 32 27 24 26 26 28 26
67 69 73 73 91 81 71 78 92 97 99 92 81 46 54 55 58 57 44 43 53 53 55 69 57 60 61 51 46 56 49 52 55 66 66 65 82 54 32 33 29 26 26 26 25
68 72 75 85 92 70 64 80 92 100 97 98 84 71 72 57 57 54 54 50 46 48 48 54 43 54 54 46 48 48 55 55 61 66 91 71 64 54 35 31 28 24 26 24 26
69 76 80 75 85 72 76 92 99 98 89 98 87 73 66 67 69 65 72 77 78 93 95 64 60 53 49 60 53 56 74 96 98 95 90 38 59 44 28 24 25 26 25 27 25
75 81 76 62 67 71 86 97 98 96 98 56 74 71 70 64 70 68 79 84 63 63 84 86 80 60 53 60 65 67 67 96 86 90 71 43 57 41 26 23 22 22 24 24 30
82 84 87 82 73 78 96 96 99 88 58 77 74 86 79 63 66 72 74 70 57 58 79 80 74 50 52 49 55 70 86 64 82 70 91 61 39 28 23 23 22 22 23 27 31
99 87 92 82 70 86 99 82 99 78 53 56 74 62 76 71 68 69 72 55 56 48 49 64 78 56 55 46 49 61 54 92 97 97 85 60 51 41 32 28 25 26 38 40 46
91 93 93 76 76 96 98 82 86 74 48 65 56 57 53 65 61 63 58 50 46 49 47 54 67 72 69 74 71 72 78 75 75 85 89 81 60 43 35 31 32 33 44 45 57
91 100 85 80 99 99 95 88 84 79 50 46 44 46 50 51 59 55 59 48 42 46 56 51 66 92 81 50 52 53 66 66 90 83 83 92 71 32 33 35 31 32 46 47 40
94 94 86 95 100 100 96 93 80 70 56 53 51 43 43 53 61 51 52 50 49 51 53 54 81 93 90 67 53 67 58 55 67 87 92 94 67 30 33 33 32 33 34 31 35
94 97 92 94 90 90 97 82 78 66 57 49 49 45 46 57 48 57 63 57 54 52 64 56 69 86 94 90 84 95 79 65 80 98 83 76 66 50 42 43 43 45 33 37 36
86 92 82 99 90 86 87 78 73 68 58 54 54 49 50 59 62 60 56 64 56 65 60 67 99 84 79 66 74 81 79 74 98 95 99 79 78 66 68 72 62 56 43 39 39
96 98 86 70 66 69 84 94 70 61 60 59 59 53 51 56 64 65 57 55 64 59 62 66 97 89 92 67 67 78 66 65 70 92 96 92 90 65 62 61 55 59 64 62 47
94 86 98 69 61 62 66 66 57 61 63 54 53 57 62 65 62 66 61 52 55 64 65 80 96 96 90 69 69 82 72 82 92 85 92 98 91 78 74 72 84 87 82 79 74

GFSSW_sfc_rhum_039.txt.gz
RH
55 55 56 57 62 67 71 75 78 76 72 71 71 71 73 73 81 84 93 76 71 67 56 57 54 52 51 53 52 49 71 75 62 53 43 27 29 23 25 24 25 27 36 45 49
56 56 55 55 57 59 65 70 75 83 75 73 72 71 72 78 83 87 64 60 60 61 60 57 60 54 63 56 57 63 76 69 46 41 37 32 39 29 28 28 32 27 37 42 50
57 57 56 56 55 57 60 68 74 76 85 74 73 71 74 77 86 77 60 61 58 58 58 54 55 52 63 59 58 58 78 55 46 37 41 43 40 37 35 40 28 27 32 40 49
61 57 59 54 57 56 55 61 70 74 79 87 73 72 76 75 89 73 61 62 60 62 64 70 68 66 65 66 52 64 51 47 43 38 40 47 44 47 47 38 34 34 31 32 38
61 59 58 60 58 58 57 57 65 74 76 85 76 72 81 87 72 65 65 61 60 73 79 79 79 61 65 60 54 58 50 41 40 41 39 40 49 50 48 41 35 34 34 34 35
64 63 63 61 60 58 58 61 62 70 76 86 80 76 89 88 46 53 56 62 64 77 82 80 67 53 59 55 54 47 50 50 45 46 44 43 45 49 46 38 37 33 32 36 34
68 63 65 64 63 61 60 60 66 68 72 83 81 72 80 71 36 39 39 46 50 61 79 75 66 64 60 63 55 54 62 57 54 50 50 43 53 53 42 41 41 40 36 30 32
61 68 67 65 67 65 63 63 69 70 72 80 85 72 86 48 46 41 40 44 46 52 62 63 67 63 62 62 58 63 70 87 58 48 47 47 60 46 41 44 43 38 35 34 30
66 66 66 66 66 67 68 67 69 70 70 77 86 80 77 51 51 43 40 44 49 55 60 62 77 76 66 73 76 73 89 79 65 44 47 52 64 44 40 41 44 43 37 34 31
67 67 73 67 65 66 72 70 69 72 73 78 76 84 67 60 48 44 40 42 55 73 72 79 80 90 85 86 94 79 83 75 65 47 49 54 58 48 42 41 41 41 44 43 38
66 67 66 60 69 70 79 91 89 97 92 87 80 71 55 49 42 50 40 53 55 74 96 83 88 95 88 84 73 63 67 63 52 41 48 52 52 46 39 41 38 35 39 38 34
65 63 61 66 70 74 85 91 88 91 93 77 75 65 50 46 57 50 45 64 75 91 71 79 83 64 59 60 63 74 71 65 52 44 49 50 49 41 39 37 34 33 38 37 33
60 62 67 72 73 80 89 80 90 74 96 90 85 71 59 54 61 60 53 60 77 83 71 81 60 49 56 59 60 60 73 70 64 54 53 56 59 51 41 38 33 31 29 28 28
63 68 70 72 88 87 87 86 86 83 100 98 94 70 57 60 69 49 50 56 63 71 68 65 54 53 60 63 57 74 54 56 58 70 82 60 89 68 42 33 31 37 38 31 29
63 67 68 73 92 85 78 94 91 92 98 98 92 53 61 70 64 62 50 52 69 69 67 77 61 60 64 60 52 64 55 59 64 76 79 77 86 69 53 38 34 31 30 31 34
65 68 75 88 94 79 74 89 90 99 96 100 85 77 85 67 64 63 58 55 53 60 59 62 49 57 61 52 54 53 59 65 72 79 98 77 77 67 42 33 33 34 28 29 31
71 75 82 82 90 75 84 95 97 98 98 99 94 76 76 75 70 69 74 81 82 91 94 67 64 55 55 68 62 64 77 97 94 94 90 63 83 66 36 30 29 29 28 30 27
77 84 84 76 83 82 91 96 98 97 100 87 74 71 84 71 75 72 81 91 77 73 91 91 90 69 60 67 74 77 75 93 93 98 87 58 69 50 34 28 29 24 26 25 29
86 96 92 91 81 87 95 97 98 100 92 93 85 97 96 70 79 76 80 82 69 72 83 91 83 56 52 55 61 80 90 68 87 86 96 74 52 36 29 30 29 31 30 30 37
98 94 94 86 82 88 100 98 96 95 73 69 94 76 93 74 84 85 77 64 57 57 64 70 83 66 59 52 59 63 62 89 96 98 95 77 68 48 41 37 34 35 37 49 57
96 93 91 89 82 95 99 99 99 80 67 66 65 67 64 74 76 72 77 59 54 58 55 58 68 79 66 74 77 76 71 69 82 94 95 97 75 44 40 42 41 40 44 56 55
95 97 88 90 98 100 97 90 92 92 72 66 52 58 59 65 69 61 72 60 50 52 67 56 72 95 83 63 59 67 72 77 94 82 95 96 74 37 36 38 38 36 34 33 42
97 94 87 92 100 98 92 84 89 81 62 58 65 52 51 61 68 58 65 56 50 52 58 59 83 96 88 77 68 79 69 66 75 89 93 90 69 38 37 38 38 41 52 50 39
96 96 95 97 94 97 92 98 97 77 64 54 50 46 55 62 59 70 66 61 56 58 64 58 80 84 89 87 86 92 83 73 81 98 84 78 63 52 48 50 54 61 68 60 49
96 96 92 97 96 91 90 82 81 75 62 56 54 50 52 65 62 70 67 68 61 68 65 72 91 90 82 76 84 81 80 79 89 82 98 69 71 63 63 72 74 71 73 59 59
98 99 89 95 79 80 90 92 78 72 69 67 67 64 61 63 70 62 66 72 73 74 75 75 97 94 93 75 78 87 72 74 74 74 78 79 93 66 63 65 75 81 79 80 74
94 90 98 82 76 76 87 71 75 72 64 65 61 74 79 78 74 76 65 62 63 76 77 84 96 98 98 75 78 89 72 67 80 86 85 98 82 65 70 78 86 92 90 86 84

GFSSW_sfc_rhum_042.txt.gz
RH
56 54 56 55 55 56 55 65 71 74 81 77 72 72 72 73 76 86 95 78 72 61 57 60 58 56 59 62 55 54 75 83 69 57 48 38 36 29 24 28 29 32 51 53 54
59 59 56 56 58 56 55 53 66 70 75 84 75 73 72 75 87 93 71 64 62 65 74 70 68 62 70 62 60 67 80 70 53 50 50 38 45 40 32 30 33 47 48 58 58
63 60 59 56 57 56 58 55 53 63 71 77 86 74 73 78 91 84 63 66 64 61 63 58 59 59 71 65 64 68 82 57 53 48 45 45 45 47 45 37 37 39 56 53 64
68 66 65 65 62 59 60 56 54 62 66 76 83 76 74 82 86 68 65 64 61 64 65 70 74 75 73 71 59 71 57 52 51 47 47 48 45 54 48 40 44 44 41 34 45
70 68 69 64 66 61 60 56 55 57 64 74 78 83 83 93 78 53 64 61 58 72 73 81 89 75 71 67 63 70 59 48 46 48 46 41 48 51 50 44 40 39 37 36 36
66 67 67 66 65 67 64 60 56 57 62 69 75 85 88 88 50 53 66 66 65 78 84 85 83 64 63 63 65 56 53 51 50 50 52 49 49 49 49 43 40 40 41 38 36
64 66 68 69 67 67 65 63 61 63 66 68 74 80 83 68 43 55 57 72 76 76 82 79 77 67 62 68 54 56 62 62 56 53 55 49 52 56 43 41 44 44 44 40 36
67 67 66 65 65 67 66 65 65 65 68 69 70 92 81 52 48 49 42 46 50 62 70 67 71 71 67 64 61 63 71 81 56 53 49 50 60 50 44 51 48 46 46 44 39
66 66 65 70 68 66 66 69 70 68 67 67 81 91 74 57 57 49 43 48 51 60 66 68 74 79 71 78 82 77 86 83 68 52 52 59 69 46 37 44 49 46 46 44 41
62 66 67 66 62 71 70 70 70 69 72 66 76 88 69 64 54 48 45 44 59 74 82 86 93 95 85 81 91 85 88 83 74 52 54 61 66 52 48 49 48 47 44 44 43
62 62 64 62 65 69 81 92 84 88 95 86 82 75 62 54 47 54 45 50 64 85 95 91 90 94 87 74 66 67 72 70 64 45 49 51 55 47 40 45 45 39 41 41 39
59 62 63 67 70 74 86 95 86 82 91 65 77 73 57 51 62 58 46 69 77 93 82 96 93 78 74 78 73 78 70 69 57 49 52 54 53 42 38 37 36 34 33 35 35
62 64 67 71 72 85 89 86 87 85 94 72 83 78 60 52 63 65 54 66 78 90 80 81 64 56 61 66 72 63 74 74 67 58 57 58 45 44 41 40 36 31 32 33 34
61 64 66 69 83 86 84 83 84 77 95 73 91 83 58 62 71 52 54 60 74 87 69 73 56 58 63 63 61 68 58 59 63 71 84 62 81 68 49 45 38 35 44 41 36
64 64 68 74 94 91 80 89 85 86 100 88 91 68 62 70 67 62 52 54 75 71 67 78 66 62 64 62 52 67 57 62 68 79 83 83 88 66 55 42 35 35 33 32 35
72 73 76 89 95 81 86 90 95 99 97 98 92 88 78 67 69 65 60 54 53 62 58 64 55 60 59 56 55 54 61 70 79 83 95 78 82 66 48 37 38 34 30 30 30
84 79 85 85 94 79 85 95 96 98 99 99 97 79 77 80 78 72 76 79 81 94 98 69 69 60 55 68 63 63 76 93 93 98 84 71 87 73 50 38 34 32 31 30 34
83 83 86 83 83 82 91 97 96 96 100 88 76 77 91 69 77 73 76 88 76 77 89 90 92 66 60 68 74 75 71 90 79 97 91 67 83 51 42 37 33 34 33 32 31
78 90 94 95 85 87 96 97 98 100 97 78 83 99 94 83 78 78 74 86 75 72 83 91 84 63 58 59 62 80 88 69 88 87 96 79 63 38 37 38 37 38 38 48 38
96 93 93 89 82 90 100 96 99 99 81 69 97 92 98 88 88 80 72 68 67 63 69 73 93 68 61 55 60 65 64 88 94 95 91 80 77 49 42 42 40 43 47 49 55
94 95 90 88 81 96 100 100 99 89 86 74 86 79 78 76 76 70 67 64 57 62 62 66 79 83 68 76 79 79 82 82 84 91 94 95 74 50 43 47 45 47 45 48 52
94 98 82 89 95 99 100 98 97 92 81 84 58 66 71 70 77 74 78 71 56 59 72 59 82 95 81 69 64 70 76 77 94 77 97 95 80 43 51 49 43 40 44 48 48
96 94 88 90 100 99 90 94 87 88 82 70 60 59 60 66 76 68 66 61 57 55 65 62 84 95 88 75 75 85 75 73 78 92 96 94 74 43 46 37 37 49 58 60 61
95 94 92 96 94 97 100 98 94 81 84 58 58 53 62 67 65 73 72 64 60 59 66 63 80 80 89 80 85 89 83 78 80 98 91 86 65 51 46 44 51 64 68 72 67
97 96 94 98 95 90 92 88 79 82 66 59 58 61 62 73 71 80 72 68 62 62 66 69 89 91 85 78 87 83 81 83 90 77 95 67 72 62 56 54 68 75 74 74 77
99 97 87 94 78 87 90 90 82 76 73 74 79 71 66 76 75 76 74 75 71 73 76 77 89 95 93 76 82 90 79 78 73 70 71 74 79 54 55 60 80 86 85 83 82
93 91 98 84 85 87 88 75 72 72 69 78 73 76 82 80 76 68 62 62 66 72 83 84 96 97 98 78 84 95 80 74 74 75 68 88 76 64 66 79 91 93 82 70 65

GFSSW_sfc_rhum_045.txt.gz
RH
63 62 57 60 58 62 61 54 53 58 66 71 80 77 72 73 76 86 92 77 69 64 62 66 60 61 61 66 58 61 81 87 65 57 51 44 42 36 32 29 30 33 58 53 61
65 68 66 61 66 60 60 61 59 52 58 66 73 88 76 75 87 94 68 64 65 60 76 71 77 64 77 68 64 68 84 72 57 54 56 46 49 48 41 38 32 46 58 67 69
65 68 69 67 69 66 62 61 58 57 55 63 70 83 80 77 93 83 60 65 64 60 73 70 62 65 74 68 69 73 78 58 56 51 50 53 49 50 52 46 45 43 44 51 76
65 66 68 68 64 66 64 62 60 53 53 60 67 77 83 84 80 62 62 64 65 61 70 68 68 74 78 77 63 77 62 58 52 49 54 55 47 56 50 46 46 48 42 36 53
65 64 65 67 69 67 67 67 64 56 53 56 63 72 91 88 79 51 60 64 60 73 79 80 82 76 78 72 68 72 64 54 50 50 54 48 50 54 54 44 48 41 38 38 38
65 66 66 65 68 69 68 65 63 58 59 60 65 74 88 83 49 48 56 63 66 80 80 81 82 69 72 67 70 61 57 55 52 51 54 52 53 52 53 47 46 43 42 42 40
65 66 66 67 66 66 66 66 64 62 64 64 65 80 92 72 48 55 68 69 71 76 84 82 75 66 66 68 56 59 66 66 59 56 56 54 56 63 47 43 45 41 49 45 41
63 64 64 67 68 69 68 66 66 65 66 65 66 88 92 54 49 52 45 67 86 85 76 76 68 68 69 65 64 68 72 82 58 53 52 50 60 48 47 54 51 50 43 46 45
63 66 63 66 68 65 70 68 67 68 67 65 76 93 84 56 62 49 48 51 60 74 79 62 77 81 73 78 86 79 90 85 68 54 56 61 72 48 41 45 49 46 43 47 43
61 60 62 64 64 67 72 73 72 70 71 68 72 96 80 70 57 50 48 48 63 81 86 86 89 95 88 83 94 90 84 85 77 58 58 68 74 55 51 54 55 54 49 47 45
65 63 65 64 67 70 83 92 81 87 92 86 82 75 70 56 50 58 47 50 76 89 98 90 97 95 84 75 72 70 79 82 73 54 55 55 57 48 42 46 48 44 43 44 41
66 60 63 65 71 73 89 91 78 81 84 72 68 68 73 58 72 63 46 61 81 93 95 98 94 80 81 77 80 71 80 84 62 54 57 59 58 45 40 39 37 36 34 35 35
60 61 63 66 70 84 95 86 80 86 89 64 76 83 79 56 69 73 52 67 78 91 83 83 76 73 79 84 90 83 84 80 71 61 61 64 55 49 40 41 40 37 35 33 34
69 70 66 67 84 89 86 82 86 81 96 90 90 83 81 62 73 56 53 66 76 92 74 65 55 71 69 79 73 72 56 62 65 71 85 64 83 67 48 46 44 39 36 40 41
76 81 74 73 93 96 85 89 84 84 68 73 89 86 67 72 69 69 62 60 82 79 69 79 64 72 74 65 53 66 58 63 68 80 82 82 89 65 49 38 33 35 35 33 32
79 77 82 90 96 80 87 86 88 95 99 94 90 95 82 70 72 74 65 53 59 63 60 69 59 59 60 60 56 55 62 71 85 82 92 78 80 59 45 42 39 35 34 34 34
78 80 88 86 90 84 88 92 95 96 98 100 98 80 80 78 81 75 75 73 85 98 100 72 69 61 57 69 63 63 76 90 85 95 84 82 85 61 48 44 42 40 37 38 36
75 81 86 86 83 78 88 94 95 95 99 90 84 76 96 77 78 76 81 83 71 77 96 94 94 68 64 69 75 76 72 86 71 92 88 75 87 52 49 39 40 42 46 54 55
76 93 94 92 84 84 96 98 98 99 100 96 86 98 98 87 85 83 78 79 73 70 81 87 83 68 61 62 63 82 90 72 88 88 96 76 60 38 41 43 42 44 45 47 52
94 94 93 88 86 90 99 97 99 100 95 74 98 95 94 94 95 91 76 68 68 66 69 72 93 70 66 59 63 70 67 88 94 74 86 73 75 48 45 45 48 45 46 47 48
94 94 83 88 84 96 99 100 100 86 81 78 93 87 86 84 78 77 74 66 61 67 66 69 79 86 69 78 84 79 89 88 85 88 90 92 61 54 49 51 50 50 49 56 64
94 94 81 90 95 96 100 99 97 88 83 88 66 67 77 75 72 69 71 68 58 61 70 67 83 94 80 70 67 72 77 81 90 80 94 88 82 51 54 53 47 41 46 53 59
95 96 89 91 99 98 93 90 88 87 91 77 64 63 68 71 75 71 73 62 62 61 68 62 84 95 86 73 75 84 77 74 81 88 97 93 72 47 51 43 43 47 52 65 66
96 96 94 96 93 96 100 97 94 87 79 62 62 60 62 71 70 77 73 72 64 58 65 63 80 79 87 79 85 92 86 81 83 100 92 87 77 50 48 48 49 51 76 75 70
98 97 93 99 93 90 92 86 83 88 68 64 62 63 66 80 77 80 74 71 63 67 71 69 89 90 83 76 88 83 81 88 87 78 92 75 74 57 50 48 51 78 77 75 74
92 99 94 96 91 91 85 87 82 82 80 76 79 75 68 78 80 82 74 74 69 66 73 75 93 94 91 76 84 91 82 81 84 78 79 72 74 49 44 50 73 84 81 75 67
93 92 98 87 92 88 86 73 74 74 77 83 76 82 86 84 82 67 64 64 64 74 83 80 94 94 98 79 84 91 82 80 76 75 62 78 62 57 66 67 84 90 78 64 60

GFSSW_sfc_rhum_048.txt.gz
RH
68 65 64 69 68 68 68 65 60 53 57 57 61 68 86 78 77 87 93 72 72 67 66 67 78 69 62 69 61 66 84 87 62 60 51 46 48 43 39 38 32 34 51 56 87
63 63 64 67 69 68 68 68 65 61 53 58 58 66 80 88 90 95 68 64 65 61 63 84 86 67 79 70 67 70 88 76 56 50 48 51 52 52 47 47 41 44 51 77 97
65 64 63 62 64 67 68 68 65 66 57 54 56 64 71 88 88 80 57 65 60 61 67 66 65 64 78 74 72 73 77 58 56 50 52 56 58 52 56 51 40 48 45 53 88
64 65 66 63 63 65 66 69 68 65 62 57 54 60 71 89 84 56 59 57 62 59 74 72 70 78 82 80 68 79 65 57 53 50 54 58 52 58 53 45 43 50 49 43 54
61 60 64 64 65 67 66 68 67 65 62 57 56 59 85 93 75 59 56 59 56 67 77 81 75 76 77 74 67 74 66 59 54 53 56 54 55 54 55 48 47 46 45 43 43
62 62 65 63 66 68 67 66 66 67 66 61 61 63 93 97 49 50 49 65 62 76 82 80 74 67 70 72 70 65 60 60 56 53 54 56 57 56 54 54 50 50 45 46 44
64 61 65 62 64 65 68 67 67 68 66 62 63 69 93 76 49 54 62 72 64 75 90 75 70 70 66 69 62 62 69 67 62 58 58 58 61 66 51 47 48 48 52 44 44
62 62 64 66 64 66 66 68 67 66 65 64 63 78 90 60 64 68 50 90 84 83 73 75 66 68 69 64 66 72 74 86 63 59 56 52 64 51 47 55 54 54 55 52 45
68 65 63 61 62 64 67 70 70 69 67 65 79 85 82 62 78 65 55 80 91 89 88 60 78 78 74 80 87 78 93 88 68 58 60 63 79 56 52 57 56 54 55 50 49
69 69 66 63 65 66 72 72 72 70 73 69 75 91 84 78 68 56 50 61 71 86 86 82 89 94 92 83 84 82 85 87 81 61 68 70 74 53 50 58 58 58 57 56 52
58 62 60 60 65 69 83 90 87 79 89 83 78 77 77 65 68 62 51 65 82 91 98 85 95 94 78 81 71 76 79 81 78 60 59 63 64 52 43 49 49 47 44 40 37
68 66 66 61 66 71 90 91 83 77 93 70 66 62 58 67 81 71 48 65 87 90 97 96 94 85 75 69 70 76 86 88 70 58 61 61 61 49 42 43 42 40 39 38 38
77 75 71 69 65 86 94 87 77 84 90 80 70 82 78 81 76 75 53 66 84 92 88 87 85 78 81 84 83 86 83 82 80 65 65 68 61 49 42 42 39 38 40 41 40
73 74 76 72 84 88 88 86 88 82 94 90 84 80 74 72 86 57 53 69 81 89 75 66 77 84 89 88 84 97 63 64 64 73 86 67 85 65 52 44 41 40 38 37 34
78 77 77 80 89 88 81 89 82 81 67 75 85 86 85 75 84 70 66 64 82 82 82 88 83 92 94 82 68 68 60 65 69 78 82 80 85 58 49 38 37 36 41 42 39
80 81 79 90 93 84 91 88 87 91 97 94 89 96 83 70 81 77 73 58 62 70 69 67 55 59 60 62 56 57 63 71 80 81 91 78 76 50 42 49 46 46 48 52 48
77 80 85 83 88 84 86 90 92 94 89 100 99 87 80 81 84 73 78 80 88 96 97 73 68 59 57 68 60 65 80 92 80 92 80 83 82 57 52 49 52 48 50 55 56
74 80 82 83 86 84 88 91 92 94 99 92 96 91 92 80 84 82 79 82 67 84 96 95 92 67 64 68 74 81 75 87 67 84 75 76 90 48 52 43 48 51 51 48 50
74 92 93 89 88 89 96 96 97 98 100 100 93 98 99 93 84 94 83 81 72 65 83 88 86 69 63 66 66 80 89 71 90 89 94 73 60 34 49 52 52 49 48 50 51
94 93 90 85 88 92 96 92 99 100 95 78 93 89 96 98 91 95 77 72 69 65 68 76 95 76 70 63 67 70 68 86 93 78 74 64 69 42 49 48 50 49 48 51 60
92 90 79 91 82 95 99 100 100 87 91 80 94 89 90 94 80 82 75 71 60 71 64 71 79 88 68 80 82 79 91 87 84 86 78 73 45 52 48 57 55 51 52 58 70
93 94 79 87 95 98 98 95 91 88 85 69 67 72 79 76 76 77 80 68 58 60 71 69 82 96 85 74 71 76 80 80 86 86 91 93 75 53 57 59 54 52 52 60 69
96 93 86 90 98 99 94 94 88 90 89 66 66 66 69 72 74 73 70 67 62 60 65 63 84 96 88 75 74 83 76 75 80 86 99 95 64 50 56 49 45 53 61 82 78
96 97 94 95 94 97 99 94 88 89 75 62 66 60 64 75 73 76 73 74 67 59 66 61 78 78 87 79 86 93 86 81 82 96 90 91 78 51 49 51 48 54 85 75 70
98 96 92 99 92 90 90 85 87 88 71 66 65 66 70 83 81 82 75 74 68 72 70 69 89 89 81 76 88 83 80 88 86 82 89 77 79 59 54 52 50 61 79 74 68
90 97 88 92 86 86 82 85 88 91 86 78 85 84 74 77 78 82 75 79 79 71 72 74 99 94 91 77 86 92 84 85 86 81 83 74 76 50 46 48 63 87 82 74 60
94 88 91 86 93 90 90 81 82 79 82 84 80 86 86 89 86 72 69 68 67 75 81 75 94 93 92 80 85 92 84 81 85 80 71 87 62 53 65 64 75 88 79 65 59

GFSSW_sfc_rhum_051.txt.gz
RH
70 68 66 64 61 63 66 68 69 69 65 54 54 60 62 75 85 83 91 72 68 70 65 65 78 75 56 60 53 57 68 69 56 51 41 36 34 33 31 31 27 26 40 53 67
66 66 65 64 66 64 60 66 67 69 69 59 54 56 59 70 90 95 68 65 61 60 64 76 86 72 72 66 61 61 74 66 49 45 42 40 39 38 35 39 32 37 35 81 83
65 61 60 63 64 62 62 64 64 68 69 64 60 55 57 69 96 83 68 67 62 61 63 72 71 70 76 67 66 65 66 56 50 44 43 47 46 41 41 40 35 35 38 68 84
60 62 64 62 61 62 65 65 64 65 69 66 59 58 55 82 92 54 56 59 64 56 71 76 73 78 80 76 64 69 61 52 47 50 49 50 43 44 44 40 33 40 38 33 77
60 62 63 63 64 64 64 64 65 66 66 65 63 59 70 96 81 60 57 50 56 61 75 74 80 76 75 68 64 66 59 55 51 52 50 47 49 45 46 42 40 40 41 37 33
65 63 62 64 63 61 62 66 66 65 66 66 66 70 80 97 54 66 53 55 58 64 77 71 72 62 64 67 62 60 56 54 52 49 48 52 50 50 45 42 42 43 40 39 38
66 64 64 64 64 65 65 66 64 63 64 65 62 70 90 76 52 66 58 73 61 63 79 78 59 61 62 70 59 61 67 59 54 53 52 51 54 61 45 42 42 39 41 41 39
67 69 69 66 64 61 64 64 66 71 66 64 62 78 82 58 63 65 68 70 67 68 70 76 63 64 62 57 61 67 61 75 56 56 51 45 56 46 42 48 46 43 42 46 41
65 62 67 69 61 64 65 68 70 71 67 64 80 84 78 66 76 62 65 67 85 88 87 72 73 76 66 74 79 73 84 78 61 57 55 53 63 48 47 45 45 44 43 43 41
69 70 63 60 59 64 68 72 68 71 73 70 74 86 74 81 75 61 53 79 82 89 78 77 80 89 86 79 82 79 79 78 65 53 59 64 67 53 42 45 49 46 44 45 45
74 78 74 67 61 65 80 88 81 78 86 80 72 75 74 75 74 75 51 77 82 80 91 87 91 89 81 73 63 65 71 71 65 53 54 60 60 50 43 44 43 41 38 35 32
72 74 76 74 66 66 90 92 80 76 88 71 72 65 64 84 86 77 57 88 86 95 90 97 88 71 67 65 66 69 75 76 62 52 53 57 56 46 41 44 42 40 38 38 36
75 77 75 76 68 88 92 87 85 84 84 71 75 68 72 81 76 80 63 69 86 93 94 98 90 67 69 77 75 80 79 76 68 57 55 60 56 45 38 36 35 33 34 32 34
78 75 80 76 84 89 88 84 86 79 92 91 83 78 85 74 79 56 53 72 87 93 89 93 90 84 81 78 73 92 73 63 60 67 71 60 66 53 45 33 36 41 43 38 36
74 77 77 79 92 90 87 84 84 73 80 65 83 80 84 89 80 71 63 72 86 84 81 88 97 93 90 88 72 83 59 62 63 70 68 65 66 43 38 37 39 41 46 48 44
74 80 79 87 89 90 91 86 80 87 98 92 88 93 94 78 79 72 74 66 73 76 72 67 59 66 87 84 79 58 61 66 71 71 83 64 64 38 38 39 40 40 42 47 48
75 75 85 88 99 90 90 84 91 94 82 100 99 97 84 94 79 74 89 79 94 99 100 94 75 59 68 86 65 60 76 88 76 87 78 72 74 50 41 41 40 40 42 44 46
80 75 82 81 90 87 89 89 91 95 99 96 97 87 83 88 84 81 85 85 71 82 97 94 95 66 60 68 75 68 68 87 62 68 58 71 73 42 44 38 37 41 43 46 49
76 90 90 86 87 90 93 98 95 98 100 100 91 98 99 90 83 93 84 79 73 66 82 84 92 64 63 62 63 74 84 64 85 79 83 59 53 33 43 42 42 45 50 49 51
94 93 88 85 91 93 96 97 100 100 95 84 95 84 96 92 98 94 81 74 72 66 64 73 95 72 67 59 62 67 65 83 89 79 62 48 51 32 44 42 46 46 48 50 55
92 86 76 91 84 95 99 100 98 83 88 82 91 89 88 90 84 80 72 70 64 67 60 69 77 85 69 78 77 75 82 81 73 74 59 46 33 41 40 46 49 45 48 52 69
94 91 80 87 95 98 98 95 83 88 86 75 71 73 79 80 77 81 75 68 60 58 69 68 82 95 84 70 66 68 75 70 84 84 90 83 51 43 44 45 48 45 48 56 73
98 94 84 92 99 98 88 92 86 91 86 68 71 69 70 71 74 76 72 67 62 60 64 62 83 96 88 74 72 81 75 70 74 84 97 81 43 45 50 46 44 47 52 76 68
96 96 93 96 95 95 94 96 89 88 77 66 69 64 70 77 72 76 77 76 69 66 64 59 75 76 84 78 84 92 83 75 81 94 81 83 62 47 46 49 49 50 65 73 66
98 95 89 99 94 94 91 91 89 91 80 70 71 69 71 82 82 84 81 79 72 71 69 67 89 84 76 73 84 82 83 82 86 79 85 60 73 52 50 52 46 50 78 73 62
96 95 88 90 86 84 83 86 90 92 91 84 83 84 76 76 71 82 77 82 79 75 72 72 97 91 89 75 84 90 80 83 78 76 76 72 73 48 46 50 59 80 80 71 58
94 89 98 86 93 91 89 85 84 87 90 87 82 86 83 87 88 72 72 68 68 74 79 74 92 90 89 78 80 92 83 80 82 79 68 84 63 54 55 61 67 85 75 64 59

GFSSW_sfc_rhum_054.txt.gz
RH
63 63 64 62 63 64 66 64 61 65 67 71 61 55 56 60 68 70 90 53 52 62 63 52 60 65 48 43 41 43 37 38 37 34 27 22 22 21 21 17 18 18 23 40 43
60 59 61 63 63 64 63 65 65 62 64 70 65 58 55 58 63 77 62 63 62 60 66 57 70 67 54 45 39 35 36 30 25 28 27 26 21 23 24 23 21 22 27 54 57
62 62 59 63 63 61 62 63 62 62 62 67 71 64 58 54 63 62 56 68 66 56 49 54 57 65 62 49 39 35 35 28 37 29 28 27 26 25 23 27 19 20 28 48 70
65 64 62 63 63 62 62 62 61 62 63 64 68 66 56 49 80 49 58 70 65 52 50 59 64 76 65 60 40 44 31 32 39 40 38 33 26 28 26 21 22 26 28 29 55
67 67 65 63 63 62 59 60 62 63 62 64 63 65 64 64 60 52 61 49 55 59 56 60 64 71 63 53 49 45 42 36 34 40 40 37 35 28 30 26 25 26 30 27 26
69 68 67 66 66 65 64 63 66 65 64 63 64 68 65 79 37 40 60 49 47 60 58 56 54 51 53 54 51 41 40 38 34 40 39 41 37 38 29 25 25 26 24 23 25
68 68 68 68 69 65 63 63 64 64 64 63 63 58 70 57 43 52 64 49 48 53 59 56 46 52 50 55 46 47 49 39 42 37 35 36 40 42 26 22 24 22 22 25 25
67 68 68 67 66 66 63 62 64 68 69 65 63 65 66 38 45 54 58 50 48 48 54 59 49 46 47 44 48 48 43 51 32 38 40 37 28 32 30 29 28 26 23 25 25
72 73 74 72 64 60 62 64 68 68 66 64 66 63 55 49 68 50 55 56 55 55 63 59 67 52 52 56 57 46 40 40 46 41 33 38 30 26 26 31 29 26 24 25 26
68 70 72 77 66 60 66 70 67 66 62 59 57 69 48 59 60 61 61 57 76 64 82 80 84 74 55 51 50 48 43 44 38 43 46 45 35 36 31 33 32 27 24 23 25
70 73 71 74 75 60 70 66 59 66 66 55 53 60 60 73 74 81 59 84 67 74 93 76 96 80 58 44 40 38 44 38 42 43 43 41 42 38 33 31 30 26 24 23 22
70 74 75 74 72 72 69 66 62 67 64 55 55 56 53 76 90 92 59 95 67 80 77 89 94 52 46 49 49 45 42 42 52 45 43 44 43 35 32 32 31 28 26 24 24
70 74 77 76 76 68 68 72 76 65 68 57 61 61 72 77 72 79 60 91 73 85 85 95 77 52 52 54 53 51 48 51 47 47 43 44 39 37 32 27 29 26 25 23 24
73 76 74 69 69 70 79 75 71 65 91 64 88 85 88 92 71 56 69 87 92 95 85 94 74 58 57 54 46 63 54 53 52 52 46 45 32 38 27 33 31 31 31 32 32
73 77 74 73 72 76 71 73 67 66 90 74 92 77 76 77 68 66 71 89 84 91 93 96 88 85 65 56 48 65 55 52 51 51 54 48 46 32 27 35 34 33 35 36 39
78 74 77 74 71 79 72 64 64 92 93 90 82 93 89 71 67 63 64 68 70 73 71 91 88 85 89 91 61 48 50 51 52 54 73 52 46 27 27 30 35 33 34 37 39
77 77 72 69 78 72 72 73 97 89 80 92 96 95 73 75 66 64 84 77 92 96 100 96 82 85 83 95 76 51 62 86 81 89 60 52 53 28 29 30 35 39 37 38 40
77 77 70 63 68 68 72 87 89 94 100 81 96 79 92 86 74 89 96 71 61 80 100 99 98 81 82 75 73 70 62 73 61 54 42 54 41 29 28 28 29 34 38 39 42
78 65 71 67 72 71 80 98 98 100 97 100 89 90 99 75 79 91 77 67 57 59 76 94 96 55 52 49 51 63 78 49 64 60 60 35 36 32 30 32 32 37 41 42 44
84 74 67 68 74 72 93 98 100 97 91 81 84 66 75 76 84 90 64 57 59 52 47 59 92 62 56 50 50 52 46 70 85 70 52 34 31 24 37 36 32 37 41 40 47
72 68 61 72 67 78 100 100 95 74 78 69 66 68 64 69 69 61 60 57 50 52 45 51 59 79 59 63 60 58 61 59 49 51 34 21 23 24 32 30 34 35 38 40 53
84 96 65 73 91 85 87 84 79 74 72 67 54 57 57 59 59 56 56 53 48 44 49 54 59 83 74 56 53 51 52 45 67 69 65 50 27 30 26 31 34 36 39 44 54
95 81 69 82 97 90 77 82 76 71 64 53 53 52 51 54 59 55 55 56 49 47 48 49 69 88 85 65 61 67 58 52 57 72 84 45 30 33 33 32 31 38 39 50 56
86 92 73 75 77 76 81 81 71 69 61 52 52 47 49 54 52 59 58 61 54 54 62 51 59 64 65 78 70 90 67 57 80 91 54 45 36 34 32 32 35 38 45 57 54
83 89 79 96 78 74 74 72 70 67 61 53 50 49 49 54 57 59 62 60 58 60 53 51 96 76 61 61 80 72 69 67 87 65 87 40 42 29 30 35 36 39 60 61 52
87 94 81 77 72 71 73 71 73 73 76 58 54 60 53 51 48 56 57 55 54 55 52 56 92 82 80 62 67 78 61 63 61 56 58 52 53 33 33 34 42 50 64 60 52
75 80 96 77 72 67 68 67 69 72 75 66 58 57 59 64 61 49 48 45 48 53 56 58 76 80 78 66 65 73 61 59 58 56 54 66 45 36 38 44 50 61 66 57 52

GFSSW_sfc_rhum_057.txt.gz
RH
67 61 60 61 61 64 63 64 65 69 66 64 68 70 57 57 60 56 80 66 48 58 65 43 53 62 45 42 32 33 44 41 34 28 23 17 20 17 14 14 14 12 16 34 36
65 64 64 63 61 63 60 61 63 63 63 64 69 72 61 57 46 44 54 66 58 54 59 46 64 63 55 44 38 39 45 39 26 22 23 19 20 16 19 17 14 16 21 38 39
62 65 67 65 62 62 62 62 63 60 61 63 65 67 72 52 50 36 44 62 66 57 57 38 46 62 57 43 38 35 31 26 21 26 27 22 21 14 19 18 15 16 16 31 44
62 68 68 66 65 62 63 62 59 61 63 63 63 65 72 46 58 32 47 59 68 54 45 53 43 67 61 55 37 37 27 20 25 29 33 25 18 20 20 17 15 16 23 23 39
64 67 69 66 67 67 66 64 63 63 64 64 65 64 63 65 47 30 68 56 58 60 44 49 45 56 58 48 39 40 27 24 29 37 34 24 22 22 21 19 21 21 24 22 22
67 67 68 69 67 67 68 65 64 65 64 69 69 69 58 69 26 24 66 55 64 64 43 41 42 43 48 48 40 36 34 31 28 36 36 37 28 27 24 20 21 21 21 19 20
70 70 71 72 70 66 67 64 62 64 64 65 66 56 61 50 27 52 74 70 49 69 47 37 35 41 43 53 40 38 41 35 31 32 35 35 36 34 24 20 22 19 19 18 17
69 70 67 72 75 65 66 59 64 64 67 67 64 59 66 31 28 32 61 83 55 55 42 37 44 38 45 41 46 47 41 50 33 34 31 34 34 24 23 22 21 17 16 16 16
72 68 71 72 76 65 59 62 64 67 66 63 66 62 51 37 38 34 48 67 50 69 41 40 58 48 48 54 58 49 44 38 31 27 34 39 27 21 24 25 22 19 18 18 17
69 72 74 73 76 60 59 68 63 67 60 51 55 65 42 39 39 48 46 52 63 62 62 76 79 78 58 52 58 46 40 27 28 38 32 34 33 22 24 22 25 20 19 19 19
70 73 76 76 74 60 66 54 59 67 56 52 49 45 51 57 61 55 59 62 70 59 77 88 94 91 54 36 28 26 31 24 25 37 37 33 32 24 25 26 26 23 20 18 17
72 74 76 72 67 70 57 53 59 63 65 44 45 44 41 78 88 86 56 58 84 67 57 95 96 63 40 34 32 35 32 31 34 37 37 30 34 30 28 26 23 23 22 20 20
75 75 72 73 70 56 57 65 65 55 73 52 53 54 63 87 94 79 67 71 74 56 70 73 74 70 72 46 42 36 39 33 38 44 37 38 39 33 30 26 26 24 21 20 20
75 74 71 71 74 59 61 60 59 53 96 65 82 78 90 87 87 73 78 91 75 70 76 82 62 78 74 52 38 43 31 34 47 45 35 35 24 36 30 30 28 25 22 24 28
74 76 74 69 59 63 64 54 56 63 94 81 89 77 84 93 87 87 80 88 86 92 86 94 77 89 61 50 38 39 44 46 48 48 47 43 39 31 28 33 32 29 31 33 34
77 76 76 61 57 60 55 53 65 98 96 100 91 95 88 75 76 91 88 70 62 84 85 92 87 88 65 68 48 48 48 48 48 50 70 44 34 34 29 28 31 31 32 34 36
76 78 74 55 60 58 59 72 99 94 92 99 99 82 56 64 74 85 91 91 92 100 100 99 97 88 78 82 62 53 61 90 90 89 60 41 48 29 21 25 29 32 33 36 37
77 79 64 50 52 57 69 90 95 86 100 85 94 70 89 73 73 73 76 74 57 68 99 100 100 97 90 83 91 74 59 72 67 65 49 43 42 26 23 28 30 33 36 38 39
78 51 58 55 59 64 80 100 96 98 96 100 62 85 77 59 71 82 62 59 55 54 89 94 98 91 85 80 71 86 79 46 50 44 47 34 30 29 26 28 29 34 37 39 40
65 55 55 55 62 67 91 94 99 86 79 68 69 58 60 60 62 64 51 48 54 46 42 59 95 67 66 65 57 63 45 70 85 69 47 34 27 24 34 32 29 34 37 38 41
61 56 59 58 62 62 100 94 87 64 67 64 53 54 50 52 48 48 50 51 43 44 39 45 53 79 55 60 56 54 58 52 49 46 36 23 24 23 28 30 32 35 38 39 46
73 95 58 61 81 65 72 67 74 61 59 60 47 45 44 46 49 46 48 45 41 38 44 47 54 80 70 50 46 45 44 41 69 60 54 46 34 22 24 26 31 35 37 40 49
88 60 59 70 92 77 68 67 62 55 52 48 48 46 43 44 52 45 46 50 44 42 42 42 64 86 78 58 52 60 48 42 48 74 82 42 36 24 24 29 30 36 37 44 50
65 90 65 54 59 61 62 68 58 61 50 45 44 42 43 44 41 51 52 52 48 46 62 50 51 62 65 81 63 80 57 51 79 91 47 38 36 33 30 30 34 35 37 48 50
60 80 77 89 62 63 59 56 53 53 48 44 44 43 41 47 45 48 49 52 50 55 46 44 92 71 55 53 80 70 63 62 95 62 86 34 33 30 26 32 34 34 46 52 50
78 91 73 74 60 60 62 53 56 57 55 48 46 44 40 41 40 46 46 43 44 47 45 50 87 78 82 54 58 72 54 56 56 54 48 43 44 28 29 32 39 42 55 57 49
53 65 94 74 58 57 62 57 57 59 61 55 44 43 44 53 48 38 37 35 38 42 46 53 69 79 74 58 57 68 54 51 52 47 47 59 39 32 37 41 45 50 59 53 49

GFSSW_sfc_rhum_060.txt.gz
RH
66 61 63 63 64 62 61 62 61 62 64 66 66 66 70 61 58 56 75 64 60 59 59 43 53 60 67 57 46 39 64 66 53 44 33 21 23 21 20 21 20 18 43 45 67
66 61 63 66 64 64 62 62 61 62 61 62 63 63 66 73 58 55 43 56 68 60 54 52 60 65 80 57 52 48 65 55 38 30 32 25 24 24 23 24 23 20 37 42 62
61 60 64 67 67 64 64 62 61 60 60 62 63 62 67 64 66 50 44 53 63 65 48 49 48 67 78 54 49 47 55 42 33 31 33 30 27 26 26 29 21 21 27 46 57
66 68 67 68 67 66 67 66 63 61 61 63 64 62 64 60 83 43 48 47 62 61 51 64 44 70 75 64 44 46 40 34 32 36 37 34 25 27 24 27 23 31 29 38 52
67 68 70 72 71 69 68 67 66 62 62 65 65 64 66 73 64 33 56 44 53 68 57 65 49 63 68 56 46 49 36 30 31 40 42 29 30 28 28 26 26 28 29 32 31
68 68 70 70 70 73 69 66 65 64 66 67 66 65 69 77 32 28 37 61 54 67 67 51 45 46 52 50 50 41 39 34 33 42 41 34 32 27 28 27 27 30 33 31 28
68 69 69 69 72 71 70 65 64 62 64 63 61 57 67 60 29 52 59 50 67 65 67 43 38 41 51 57 45 39 46 44 37 41 43 40 42 37 30 28 28 29 28 26 25
71 68 70 71 73 73 67 63 59 63 63 64 65 61 73 36 34 34 52 62 63 69 68 42 38 41 48 48 55 50 52 60 39 38 40 42 51 35 29 34 32 29 26 26 24
70 70 72 74 73 70 60 58 62 64 66 63 68 71 63 37 40 32 32 55 60 70 67 46 53 64 50 65 76 66 64 58 47 35 37 40 49 31 26 30 32 29 25 22 23
72 71 74 74 70 62 59 62 62 65 64 48 59 76 53 42 53 38 44 68 80 78 83 72 75 84 71 79 87 70 74 47 46 38 37 48 48 30 30 31 32 31 28 28 26
72 73 73 70 67 63 70 70 69 74 57 58 55 56 48 52 56 54 60 72 77 90 89 70 88 89 74 59 46 42 49 50 35 37 40 43 44 35 30 31 34 34 30 27 25
71 74 71 73 69 68 67 55 66 66 70 44 42 42 47 63 82 63 70 92 96 92 71 86 91 65 54 48 46 38 40 42 33 41 43 41 39 32 30 32 32 34 31 28 27
73 74 73 72 70 73 54 65 61 56 75 52 53 56 68 74 86 77 78 84 94 88 75 81 67 58 57 50 46 42 47 37 43 47 44 44 45 40 35 35 32 34 33 29 28
69 74 75 73 76 60 61 56 60 55 99 76 77 92 83 83 86 82 72 79 92 68 64 85 71 71 80 69 42 49 36 38 47 57 60 44 46 42 40 36 33 33 32 32 39
69 75 76 76 75 64 62 56 61 74 96 81 89 75 86 96 85 87 74 78 85 85 80 94 85 81 94 72 46 42 39 50 54 59 61 54 68 60 38 41 38 36 41 45 46
71 74 78 67 77 58 58 63 75 100 97 100 93 92 95 85 80 78 82 83 62 82 82 93 75 80 82 81 76 46 55 56 58 63 92 60 50 54 42 38 39 38 43 45 49
74 74 79 57 69 60 67 82 100 96 90 99 100 94 93 88 86 85 92 87 90 97 100 97 96 86 90 87 66 58 72 90 96 97 88 48 58 54 32 35 38 42 44 48 51
80 80 69 52 59 64 79 98 92 85 100 92 84 70 86 85 94 88 84 84 72 81 99 99 100 97 92 83 85 68 68 92 79 94 74 49 67 41 34 39 41 41 46 47 53
81 69 66 67 63 72 91 96 91 96 93 98 65 73 77 63 70 85 75 70 79 80 98 99 99 94 88 77 78 87 97 59 71 56 84 56 43 35 40 42 40 44 45 51 55
81 66 65 60 66 82 97 89 99 84 74 70 67 52 64 62 65 69 60 51 56 48 50 70 98 96 91 78 78 78 59 80 96 78 74 52 49 44 43 42 38 49 52 52 51
82 69 70 63 74 87 99 92 85 60 60 70 53 50 50 53 48 51 55 53 44 48 44 55 75 97 90 97 97 92 96 73 68 66 75 56 48 38 35 38 40 47 48 50 58
81 94 70 73 94 80 78 63 75 57 57 61 52 43 45 47 50 51 57 54 44 45 54 55 70 95 76 52 52 62 58 63 96 78 79 74 59 30 32 39 43 46 44 49 58
84 71 72 80 93 80 70 61 58 53 51 50 49 48 47 47 58 51 58 57 49 52 55 53 80 95 87 68 60 71 56 52 67 87 90 85 62 31 35 38 37 43 46 55 58
77 94 80 74 65 70 70 72 62 66 51 45 45 45 49 51 46 56 60 58 58 52 62 56 63 79 91 87 78 86 67 61 87 94 79 67 52 41 38 39 39 44 48 60 58
67 86 79 95 75 68 61 56 54 56 53 47 49 45 46 54 52 54 57 60 58 57 59 61 88 84 67 67 95 88 72 69 93 79 80 58 47 41 37 39 44 43 57 59 57
71 89 78 74 67 65 69 58 57 54 58 52 53 46 46 50 52 53 52 55 58 56 57 64 90 89 89 58 66 84 64 66 67 66 62 54 56 41 41 42 48 53 61 64 57
59 64 92 70 66 62 75 65 64 62 61 55 57 51 50 60 51 45 46 44 46 56 59 68 87 92 90 70 69 83 64 60 65 58 59 71 52 43 44 48 53 62 65 60 56

GFSSW_sfc_rhum_063.txt.gz
RH
60 61 57 60 65 65 65 64 61 62 60 60 63 65 64 68 66 67 79 68 69 62 54 52 59 67 70 79 57 69 96 89 66 58 48 35 27 27 22 22 21 40 58 80 74
65 65 67 66 66 66 65 64 64 60 60 61 61 62 63 65 75 76 57 54 62 64 68 60 67 70 92 81 63 59 84 81 56 44 39 30 28 27 26 27 27 59 79 75 77
66 67 66 70 70 68 66 65 64 61 60 60 62 63 65 66 79 68 57 56 53 63 67 57 51 72 93 73 71 60 70 56 45 44 34 33 28 27 28 35 30 40 71 80 86
67 67 69 69 70 70 69 66 65 65 61 61 62 64 67 70 74 44 48 52 52 52 68 67 58 88 87 77 59 57 48 44 44 44 40 35 26 30 31 33 36 34 56 68 75
65 68 67 69 67 69 69 72 63 64 63 62 63 65 68 81 70 43 49 46 40 63 74 72 67 81 87 74 56 63 45 39 38 46 40 34 30 32 33 34 33 30 31 49 67
66 67 68 68 69 69 69 74 62 64 64 67 62 63 78 91 41 38 48 39 46 71 75 73 58 59 72 67 63 50 48 44 41 46 46 38 36 34 31 31 32 29 33 37 35
68 66 69 69 72 69 69 66 62 60 66 60 60 60 75 67 40 56 52 59 67 65 72 70 57 54 57 61 52 53 55 48 49 49 49 39 42 38 35 35 36 44 45 30 30
68 68 69 72 71 70 65 61 58 59 60 60 62 75 78 44 47 45 51 50 66 75 75 61 56 47 66 58 62 58 57 72 48 48 46 39 55 42 35 51 38 40 37 33 29
69 71 71 71 68 65 62 58 58 61 62 62 77 85 75 44 52 42 44 45 62 74 82 62 66 62 63 78 88 81 81 77 52 45 47 44 53 38 34 39 38 39 36 31 28
74 71 70 71 67 65 65 65 66 67 68 57 66 86 64 57 57 53 53 59 73 86 87 90 79 86 82 91 88 89 78 69 61 47 46 50 50 40 33 37 39 37 34 31 28
72 74 74 70 71 71 79 84 81 87 74 71 67 61 52 60 59 64 64 61 72 94 97 78 89 91 72 70 59 70 66 58 53 40 46 46 48 41 38 40 38 36 35 32 29
67 74 74 72 72 71 77 75 76 80 91 58 56 47 71 70 78 72 64 68 84 97 90 94 90 72 63 63 64 54 64 63 48 41 43 47 54 46 42 37 35 35 37 35 32
66 73 74 74 74 77 77 80 72 73 87 61 59 74 83 78 71 82 70 79 95 98 85 86 72 63 66 67 67 64 56 57 55 52 50 48 52 47 39 36 35 35 38 35 34
69 71 73 76 81 74 78 69 69 67 100 98 93 89 84 79 85 74 72 80 95 92 83 84 73 70 71 66 61 73 43 45 54 62 70 45 60 47 43 42 35 38 39 36 48
70 70 73 75 91 79 73 65 68 78 97 90 89 76 80 87 86 89 83 91 95 86 81 96 87 89 84 74 67 58 46 56 60 61 63 60 66 51 50 47 42 38 36 42 52
70 73 72 82 87 65 66 76 80 98 96 100 92 96 96 88 87 78 87 92 71 82 83 94 77 83 83 80 82 73 56 64 68 74 93 68 62 54 55 43 44 48 52 53 59
76 77 80 75 84 64 70 89 94 96 80 99 100 87 86 86 82 80 90 87 90 95 98 97 96 85 86 82 79 77 75 97 95 96 92 54 66 51 41 42 44 50 52 56 60
79 83 80 68 73 67 90 95 92 85 99 81 87 78 92 90 93 87 85 94 79 87 95 91 100 96 89 88 92 83 69 90 88 98 90 54 71 49 38 41 42 44 51 56 65
79 92 83 80 72 82 96 96 89 94 88 94 77 82 80 80 88 84 82 91 87 90 92 91 94 91 87 88 84 91 90 64 73 73 88 70 50 42 50 53 52 55 54 56 66
97 95 82 76 78 93 95 93 99 89 77 75 90 67 71 78 79 88 74 65 82 80 76 89 97 92 90 91 81 84 66 78 93 70 81 74 62 52 57 53 48 51 57 61 65
97 95 81 78 87 94 96 92 87 70 72 73 70 56 57 57 61 64 70 59 52 55 57 70 81 98 93 98 96 86 92 81 75 76 72 66 56 38 45 43 47 53 56 59 65
96 95 83 86 97 92 92 77 70 66 68 72 60 56 53 53 60 69 73 65 50 49 60 60 79 99 98 77 74 82 81 70 90 82 80 74 64 36 40 40 44 53 51 57 68
95 96 81 92 90 86 83 73 72 65 61 61 60 57 52 51 64 64 71 59 56 59 60 58 84 97 97 76 73 94 82 72 68 87 89 83 62 40 50 49 47 51 52 64 65
98 96 90 79 81 79 80 78 81 70 63 52 53 54 57 58 56 68 71 65 61 57 66 60 72 78 86 81 80 87 74 64 77 89 73 76 59 54 50 46 44 49 55 68 61
93 91 83 97 81 88 78 65 66 72 65 54 56 52 55 60 58 72 70 71 62 61 61 67 85 81 75 79 90 86 73 75 84 72 78 59 49 42 43 43 43 50 65 65 59
91 93 93 74 73 88 78 71 69 63 68 68 66 53 56 70 65 66 63 68 70 64 66 71 93 87 89 68 72 78 69 72 70 67 72 69 62 40 36 46 50 56 66 68 60
87 84 90 82 72 81 84 70 69 72 69 64 70 66 67 67 60 58 55 56 59 63 69 77 88 94 92 72 72 77 71 72 73 69 63 76 57 49 48 52 58 68 70 68 60

GFSSW_sfc_rhum_066.txt.gz
RH
62 66 66 66 69 71 67 65 64 64 62 60 60 60 65 66 72 69 82 73 64 63 64 61 63 72 72 77 80 86 88 85 74 65 55 54 51 28 24 30 49 63 80 74 80
64 66 66 67 69 68 69 69 65 64 62 59 60 62 63 68 78 86 61 57 57 63 80 69 77 79 87 84 67 86 95 77 54 51 74 69 58 49 28 44 70 95 86 81 82
65 64 66 66 66 68 68 72 71 65 65 60 60 61 63 70 86 78 58 63 57 53 72 62 65 81 95 86 73 69 80 63 54 51 71 62 54 44 30 37 52 90 93 90 90
65 64 65 65 66 67 67 68 70 63 63 60 61 62 64 74 85 53 48 54 53 52 68 82 70 90 91 89 67 70 54 53 52 70 79 67 42 40 31 42 33 68 87 91 89
65 66 66 66 68 66 67 68 68 66 62 64 61 61 70 86 82 40 50 47 39 56 71 85 77 68 89 78 69 74 53 48 46 60 67 55 58 36 29 36 42 56 72 89 90
68 69 67 70 70 70 69 68 67 64 61 62 64 65 78 94 47 46 45 48 46 57 69 79 80 70 78 73 71 62 56 47 56 48 52 62 54 33 32 35 38 34 42 51 76
68 68 69 68 69 70 67 63 63 62 64 62 63 61 82 74 46 50 49 50 56 53 75 72 71 68 71 74 62 55 63 61 57 49 46 43 50 42 31 34 39 41 36 30 30
67 71 69 68 67 65 62 60 58 59 60 60 62 78 84 51 53 45 50 52 56 74 68 66 78 57 72 65 73 70 64 82 51 50 45 39 53 40 35 39 38 45 59 43 34
70 71 71 70 69 66 65 62 60 61 61 62 80 86 78 47 56 51 46 48 60 72 86 69 79 74 71 80 91 89 84 78 60 49 49 43 54 38 35 42 38 40 42 38 34
65 70 74 73 70 72 72 69 67 67 68 63 71 90 65 60 57 56 52 59 71 83 96 96 91 90 81 90 90 79 79 77 61 52 55 53 51 38 39 43 40 40 38 36 32
64 70 69 72 72 72 81 81 78 82 76 81 74 67 58 60 61 70 62 64 74 87 96 94 93 91 79 72 70 68 64 67 62 47 54 57 54 44 40 46 44 44 39 35 33
67 65 70 71 74 74 75 82 78 74 82 65 61 63 69 77 77 82 63 77 85 98 94 99 91 71 69 68 67 67 69 69 53 47 49 51 51 45 42 45 40 39 38 36 37
68 67 72 72 77 76 81 80 72 72 88 78 75 79 85 81 65 88 68 75 91 97 96 88 79 65 67 76 76 73 70 68 58 55 52 58 63 55 49 46 38 38 40 38 31
70 68 73 74 81 81 82 71 73 71 97 99 94 82 81 76 87 70 72 78 91 96 96 84 71 72 78 79 71 81 51 51 55 65 78 51 79 49 49 46 43 42 40 39 45
70 71 73 71 94 80 68 70 73 79 97 94 91 75 86 92 86 87 69 81 90 92 96 97 81 81 82 74 60 65 50 52 62 68 66 68 68 55 51 54 47 45 42 40 58
71 74 71 84 96 75 69 79 80 95 96 99 90 95 91 84 85 81 87 87 76 91 85 92 81 87 86 86 80 76 63 66 72 77 92 69 68 62 54 47 41 46 44 48 60
74 77 75 80 87 69 74 87 94 96 81 98 100 87 91 98 94 87 94 96 96 99 100 96 94 87 87 82 81 80 75 97 95 98 93 68 73 54 44 44 43 51 62 68 71
77 80 82 76 80 74 87 93 91 82 97 80 87 86 97 90 92 91 95 98 83 81 96 94 99 95 89 89 87 88 71 91 90 95 87 62 82 57 48 44 42 47 54 66 73
79 95 88 83 78 85 86 96 87 90 86 94 79 91 99 89 90 90 87 94 87 85 88 95 98 90 84 82 89 94 95 69 75 81 90 72 60 45 56 55 54 56 62 68 73
97 95 86 80 83 94 95 95 96 86 82 83 88 70 91 93 88 87 82 81 85 86 81 87 98 84 86 84 86 91 70 81 92 78 85 78 68 59 68 60 58 61 64 65 72
96 93 86 83 89 94 96 94 89 76 77 80 83 65 70 63 77 79 78 63 66 82 80 80 83 94 90 96 97 96 88 83 74 74 75 73 64 49 54 49 54 55 57 61 73
95 95 86 88 96 96 91 82 75 70 74 80 80 66 64 64 68 81 79 71 57 56 80 74 84 97 89 82 77 82 83 66 90 82 83 72 59 41 46 48 49 52 54 59 70
98 97 83 93 96 93 85 78 80 72 70 67 67 60 59 61 71 76 74 66 62 58 64 62 89 98 97 82 81 97 91 83 76 86 90 81 51 44 48 45 48 55 56 64 70
94 95 86 78 77 83 90 82 85 74 69 57 58 56 59 59 61 75 75 68 62 57 67 62 77 79 87 79 85 90 92 80 84 93 86 83 57 50 53 53 54 53 54 69 65
95 95 86 98 90 81 83 74 65 74 72 60 61 58 61 68 68 78 76 74 64 61 68 62 85 84 82 82 86 81 88 80 85 77 85 66 52 45 50 49 45 48 61 73 65
95 97 92 93 80 92 81 78 81 74 71 73 71 72 65 70 63 72 70 78 73 69 77 76 92 86 88 77 72 75 76 76 70 65 68 69 63 44 42 48 51 56 71 70 64
94 86 91 83 69 81 76 68 72 74 72 68 74 74 72 69 64 61 65 61 65 65 75 77 89 91 87 77 79 77 71 73 74 69 61 72 56 50 49 53 58 66 73 72 65

GFSSW_sfc_rhum_069.txt.gz
RH
67 63 64 66 66 66 68 67 69 68 68 62 60 60 61 64 70 80 86 71 67 62 65 68 67 69 77 87 81 82 89 76 75 67 62 67 66 50 40 35 67 87 86 83 89
65 63 64 63 63 64 65 66 66 70 65 63 59 59 62 67 81 86 64 63 60 60 82 77 82 81 89 87 86 84 82 68 54 56 69 71 65 58 40 35 88 95 92 86 88
68 68 63 66 68 66 63 66 64 71 69 64 59 59 62 71 84 75 58 62 60 52 65 80 75 80 86 88 80 82 82 61 59 63 77 74 61 54 41 35 64 92 94 92 93
69 69 62 65 68 69 65 66 67 68 69 62 61 60 61 77 72 54 50 53 59 53 63 89 83 94 91 89 78 82 70 56 67 82 78 74 69 71 50 34 39 71 91 92 94
71 67 64 66 68 70 70 69 66 66 66 62 60 60 71 90 85 53 47 44 45 52 67 78 84 91 79 90 79 74 58 50 74 86 84 72 76 74 72 56 40 80 89 92 93
70 68 70 64 66 66 69 67 66 64 63 60 60 62 79 95 50 54 48 44 46 60 69 72 78 75 86 84 82 72 57 68 72 82 62 76 73 68 66 42 43 86 90 90 88
71 70 72 67 65 64 62 64 63 63 63 60 62 64 84 73 50 54 52 49 50 59 71 68 81 72 82 83 71 66 76 70 66 62 70 76 82 88 65 54 39 50 70 62 80
65 72 70 72 68 68 66 61 59 61 61 60 62 80 86 55 56 50 51 52 50 60 61 71 75 68 80 77 80 71 76 88 65 60 60 68 84 76 60 53 39 39 41 39 36
60 65 72 71 71 71 72 69 61 62 61 62 81 87 76 47 64 56 52 65 63 75 74 62 83 77 78 90 92 84 89 79 66 55 50 59 57 51 56 47 36 40 41 39 39
61 65 71 72 72 73 71 69 65 67 70 67 73 89 64 61 59 54 51 61 72 77 83 88 98 88 89 94 84 87 89 70 64 57 51 56 51 40 39 40 41 40 43 42 38
65 65 70 70 72 76 82 76 80 84 76 82 79 72 63 63 59 66 58 65 70 79 94 95 97 84 81 85 77 69 72 68 62 49 56 58 53 46 42 43 47 49 46 42 36
68 68 65 72 72 76 77 85 79 75 81 67 66 69 74 81 74 72 66 79 84 100 88 98 97 66 73 72 72 70 73 70 57 52 54 56 57 47 43 46 41 43 46 43 38
70 69 67 70 74 75 81 80 76 78 90 77 78 83 85 79 65 80 72 76 89 100 98 97 85 68 71 81 77 82 74 69 62 53 52 56 61 55 51 56 45 40 43 43 40
71 70 70 69 83 84 83 72 76 72 98 99 88 86 78 75 77 72 75 77 90 99 96 91 69 74 82 85 78 86 60 56 59 63 76 54 86 57 58 53 50 46 44 43 38
71 71 74 67 91 84 69 75 76 82 97 95 92 79 83 92 86 82 73 79 91 97 99 97 80 83 84 80 65 73 59 57 62 68 67 65 75 64 57 65 49 46 49 45 48
72 73 71 92 97 78 70 76 79 91 97 100 89 93 96 86 87 76 78 85 83 93 91 90 87 83 87 84 68 68 64 68 76 75 92 70 71 71 55 49 53 48 50 44 63
75 77 74 82 88 71 75 84 93 94 81 96 100 95 89 96 90 89 88 96 97 99 100 90 93 90 85 84 83 74 77 97 97 97 94 73 72 54 47 46 45 44 49 47 70
76 81 84 81 86 74 80 88 90 82 97 78 94 89 96 91 95 93 96 96 89 95 99 99 99 93 90 85 86 83 70 92 89 96 90 71 84 62 50 49 45 45 50 66 79
78 95 94 87 80 80 84 94 83 87 84 91 86 99 88 82 93 92 96 96 83 85 86 94 99 87 86 88 87 91 91 69 80 85 92 75 64 46 52 51 58 65 73 76 77
97 95 89 86 84 85 95 91 93 82 82 81 93 71 97 94 89 92 89 83 84 79 74 81 98 86 91 76 88 91 82 85 92 86 92 80 74 54 61 57 61 68 77 77 75
94 93 88 88 90 88 96 94 89 77 77 88 88 76 80 90 89 84 82 71 77 87 78 78 85 93 91 94 83 96 94 86 79 74 78 76 62 50 45 52 59 60 64 76 80
95 96 88 92 97 97 92 84 76 76 83 83 85 76 71 70 80 85 81 77 65 72 84 79 85 92 95 80 74 80 84 78 92 84 87 75 64 42 48 53 55 62 61 65 75
97 97 83 94 97 95 86 82 81 76 76 72 71 63 63 66 78 81 78 67 64 63 72 72 88 98 97 83 83 97 88 79 78 84 90 83 63 45 61 59 57 60 60 59 71
95 91 86 88 86 92 95 86 87 77 73 62 63 60 62 66 70 81 79 70 63 61 67 61 81 80 86 77 87 99 96 89 82 92 88 80 62 48 55 54 58 58 60 64 68
94 98 93 97 87 81 89 84 79 78 73 65 67 67 65 70 74 84 81 78 63 62 72 62 86 83 83 84 85 87 86 87 94 75 84 64 66 44 41 52 54 59 61 74 71
93 88 92 93 87 84 77 82 85 82 78 77 76 77 72 69 67 74 74 80 75 74 78 76 91 83 84 78 74 75 77 89 86 81 81 71 66 42 40 45 51 53 63 72 70
96 90 94 83 86 88 77 73 81 80 72 74 79 78 73 72 71 71 70 65 68 67 78 77 88 87 81 81 71 69 69 80 84 71 68 78 58 50 47 50 53 58 68 70 70

GFSSW_sfc_rhum_072.txt.gz
RH
69 67 64 64 66 67 63 64 66 66 69 69 63 60 61 65 69 78 87 70 67 60 67 71 72 76 76 90 84 85 86 87 80 71 62 71 67 57 51 41 77 96 90 87 95
67 66 64 64 66 65 67 64 65 65 69 71 61 61 59 65 85 84 66 63 64 57 79 80 87 83 92 91 85 91 83 75 58 61 69 70 64 68 56 47 80 94 97 97 97
66 68 66 64 66 67 68 67 66 67 66 69 64 59 61 73 83 67 54 60 60 56 61 84 79 80 93 91 90 90 80 64 58 73 69 72 74 68 65 46 56 56 88 97 96
67 68 67 58 65 68 68 68 67 65 64 64 62 62 65 77 70 61 54 55 58 59 56 81 80 88 92 95 85 92 86 61 64 77 74 79 69 77 79 55 58 58 72 97 97
66 67 69 68 61 64 68 68 66 65 65 61 60 60 72 89 78 65 48 51 50 62 55 76 80 88 92 88 83 85 68 64 65 81 84 70 73 77 68 62 58 50 93 96 98
65 68 68 70 65 64 63 65 65 65 64 62 62 63 79 89 52 57 48 51 47 57 61 71 69 80 84 87 85 77 66 61 88 83 66 72 70 71 60 62 58 54 93 95 96
60 67 70 72 68 68 66 61 65 65 64 61 61 66 84 72 53 58 50 49 48 54 68 66 79 71 84 88 79 74 87 85 89 82 76 76 81 82 59 56 63 63 68 88 88
65 60 70 72 72 70 71 71 60 62 62 62 65 80 90 55 59 53 60 57 48 61 67 65 79 72 83 82 86 82 82 94 78 78 78 67 85 72 57 75 71 63 40 38 43
68 64 64 72 72 74 73 69 65 62 61 63 80 86 74 48 61 57 64 62 59 73 69 60 84 80 74 92 93 87 95 90 84 62 81 80 80 52 74 79 70 60 46 38 37
68 66 62 72 74 74 75 69 64 68 72 70 75 83 65 68 61 57 65 69 74 79 79 82 93 94 93 95 90 90 94 90 91 78 80 91 82 64 76 82 66 52 44 45 40
72 70 64 70 74 73 82 78 83 84 82 85 81 77 69 65 64 67 65 76 72 89 87 82 98 91 89 86 81 81 82 84 68 65 66 78 72 52 83 84 66 50 47 44 43
72 71 67 71 69 74 79 80 77 69 79 70 71 71 73 81 77 72 64 85 92 89 92 97 100 76 77 78 74 74 81 83 64 59 62 62 69 62 59 59 48 38 38 43 46
71 68 67 76 69 76 82 80 78 77 88 79 80 86 83 82 72 75 71 78 96 99 99 90 90 70 76 85 80 84 84 81 72 62 55 64 75 80 59 56 44 43 45 46 46
68 69 72 71 83 86 85 76 78 76 97 96 82 83 80 83 84 72 78 80 90 93 96 93 81 75 80 86 78 89 67 60 62 71 87 58 91 68 56 48 44 38 50 47 47
71 69 76 66 87 82 68 80 80 83 97 98 86 78 83 89 86 81 76 80 90 96 96 97 93 91 84 82 67 75 62 62 66 69 75 69 79 68 53 56 44 38 49 50 46
72 71 74 93 96 80 72 74 77 88 97 100 91 92 83 80 79 82 75 88 81 94 91 94 76 84 87 80 72 64 67 67 75 73 92 72 75 74 59 49 47 44 47 45 44
75 78 76 83 89 75 75 83 93 93 77 97 100 89 93 98 90 86 86 91 94 99 99 97 96 90 81 86 82 68 79 98 98 97 94 73 75 57 50 44 41 38 44 50 56
77 82 82 82 82 73 79 87 95 82 93 82 89 95 99 95 91 86 87 95 92 100 100 100 99 93 92 83 86 74 70 92 90 96 91 73 85 59 48 48 43 42 44 51 73
78 95 98 90 78 77 82 96 85 85 86 88 84 78 86 91 90 86 91 87 89 92 92 97 100 86 88 90 84 90 93 69 84 87 92 80 66 46 45 46 51 49 63 63 81
96 94 93 86 78 83 94 89 91 78 82 83 95 86 93 85 91 96 90 79 91 89 71 83 98 87 83 82 90 86 72 85 92 88 93 82 76 60 47 45 50 60 77 81 87
94 94 90 84 81 89 96 94 88 77 80 89 91 79 87 92 90 86 87 83 85 88 74 78 83 96 82 91 94 96 96 87 79 77 82 83 64 54 47 41 46 59 77 87 84
95 96 91 93 96 98 93 85 75 81 84 85 89 85 78 76 82 81 82 78 77 78 83 78 82 95 85 80 85 86 90 81 92 88 90 80 70 43 48 50 55 66 72 80 84
96 95 87 95 95 96 87 86 82 80 81 81 73 66 66 71 84 84 82 70 65 73 79 73 89 97 95 84 89 96 86 86 80 86 91 88 71 41 56 70 68 69 72 75 81
92 92 86 92 91 94 93 89 86 80 73 66 67 62 64 74 75 83 83 72 62 66 66 65 84 81 88 77 89 98 87 84 88 96 90 81 70 55 50 55 63 66 68 72 81
93 96 93 96 92 91 91 87 86 83 73 69 68 76 71 77 80 86 83 80 64 68 73 65 87 83 80 86 90 91 86 87 98 81 90 74 67 49 47 46 53 62 65 75 78
84 86 93 92 90 91 81 88 92 87 85 81 81 79 75 75 76 79 77 80 76 75 80 74 88 80 83 77 83 81 83 89 86 82 78 74 79 49 46 54 56 59 65 74 75
96 93 93 84 86 90 75 80 85 86 81 81 87 83 77 79 77 71 74 70 72 69 79 77 87 86 84 81 74 74 72 80 85 79 80 93 66 57 49 50 52 62 67 69 72

GFSSW_sfc_rhum_075.txt.gz
RH
66 65 65 63 64 67 65 67 66 65 66 68 65 68 61 64 68 75 83 68 65 56 63 68 69 65 79 85 85 84 85 70 65 59 58 61 53 55 48 39 65 85 88 84 87
64 65 66 64 59 61 66 66 66 66 66 63 69 65 62 66 76 84 64 62 72 63 67 82 82 71 84 82 82 85 84 68 57 54 69 63 63 64 50 46 48 48 44 90 88
65 65 65 67 59 62 66 67 67 66 65 64 70 64 65 70 73 59 55 57 70 66 59 79 75 72 88 86 87 85 77 59 57 65 64 65 69 62 55 44 58 59 53 72 92
63 68 65 68 63 62 65 67 66 64 64 64 68 66 66 70 56 58 57 54 62 64 67 78 83 80 89 94 78 84 71 57 66 71 68 75 67 66 66 50 55 55 58 75 89
58 66 67 68 67 62 62 66 65 65 64 62 60 60 67 78 68 51 54 61 64 75 61 80 87 76 84 78 78 76 69 64 76 77 77 66 71 69 63 57 52 48 52 83 86
65 57 70 69 70 66 66 61 65 65 64 62 63 60 74 74 47 52 49 61 55 78 60 73 82 67 75 79 79 71 60 71 77 83 68 67 70 59 59 53 51 52 52 60 87
71 62 63 71 70 70 68 68 60 65 64 62 60 65 78 63 54 57 52 61 61 60 65 61 74 71 74 87 74 70 81 86 80 86 87 65 69 70 52 54 55 55 52 46 61
68 71 64 66 72 70 72 69 65 60 61 62 66 76 73 50 56 54 56 57 66 59 63 69 75 72 78 71 80 78 80 90 83 78 89 75 78 59 54 62 59 57 52 50 37
70 70 66 66 73 70 76 71 67 61 61 64 79 82 67 47 58 54 63 63 59 68 73 59 88 78 78 88 89 85 89 87 93 68 86 78 77 52 58 60 66 59 52 48 41
71 73 71 64 73 72 76 70 65 67 74 71 75 72 64 66 60 58 71 72 75 76 76 76 88 94 92 91 85 94 87 84 77 78 79 76 76 59 66 64 58 60 54 46 39
73 75 71 67 72 70 83 80 81 85 84 82 81 77 67 67 65 71 68 71 70 84 95 80 98 95 84 74 67 76 74 70 75 73 75 81 73 67 68 76 69 56 56 50 42
72 74 67 65 74 70 80 82 74 71 79 72 74 70 72 80 76 78 64 80 91 93 80 91 100 80 77 71 71 70 78 74 60 70 65 77 75 60 73 69 71 64 59 48 40
71 70 68 75 68 78 80 81 78 77 87 83 82 85 83 79 77 81 73 80 97 100 89 84 92 81 77 80 76 75 74 75 68 73 58 67 72 74 65 65 69 65 57 48 37
68 68 71 67 84 87 85 76 80 75 95 89 77 81 80 84 81 72 68 73 97 98 95 84 88 89 82 82 71 81 65 64 69 76 86 62 78 76 67 67 69 63 51 47 39
68 71 72 63 88 84 70 83 79 78 95 97 85 78 83 83 79 76 72 74 93 93 94 98 94 93 85 79 66 74 61 62 65 67 64 63 73 62 61 70 62 62 52 42 41
70 71 75 91 96 80 74 73 76 88 98 100 92 88 79 83 77 79 75 81 75 87 87 93 82 90 76 80 66 62 66 68 74 70 92 69 71 67 54 59 53 45 41 38 40
74 78 82 86 86 75 76 82 93 92 76 99 100 95 86 87 78 83 87 95 90 98 100 96 95 91 80 83 75 65 75 95 95 97 86 67 74 57 47 41 38 36 36 36 43
79 82 83 82 80 74 79 87 88 83 95 78 93 97 100 95 96 77 90 98 87 96 99 97 100 95 84 81 80 71 68 87 88 91 82 70 78 54 44 42 42 38 36 40 47
77 96 97 89 76 78 77 96 85 86 84 88 82 98 99 84 84 85 89 91 90 92 96 98 100 88 89 87 79 83 91 64 81 79 81 68 60 43 40 40 42 43 46 49 49
96 94 95 86 77 81 94 89 90 76 82 83 88 83 93 88 92 97 92 79 96 89 83 84 99 86 86 81 84 77 66 83 89 87 84 68 64 49 41 36 36 38 50 58 70
95 95 92 84 82 85 97 96 87 76 81 90 87 76 91 95 91 91 91 85 82 87 66 71 82 97 77 88 90 89 88 81 72 70 70 72 54 47 42 37 40 40 49 65 76
95 97 94 87 98 98 94 86 75 84 85 83 90 84 76 78 86 86 81 77 77 74 73 70 75 97 97 78 82 86 85 73 89 86 81 69 61 36 38 47 48 53 61 73 75
95 97 89 91 98 96 88 87 83 83 83 82 75 68 67 74 84 84 80 70 76 76 75 72 87 96 92 76 81 93 90 77 77 82 91 81 65 39 46 50 57 59 66 75 76
90 95 90 96 93 95 92 91 88 82 77 70 71 65 67 74 75 82 83 74 65 68 68 63 80 77 85 76 86 95 93 86 88 98 83 74 65 49 47 47 45 56 62 72 76
90 93 93 96 92 92 92 90 89 89 78 75 73 81 77 80 82 87 84 76 62 69 68 67 88 83 73 72 90 91 88 90 92 80 85 69 68 52 48 46 43 44 60 69 78
79 86 93 92 90 93 82 90 94 89 89 85 84 83 76 74 80 82 80 80 74 71 76 72 89 86 86 82 83 85 84 89 87 82 74 70 72 49 49 47 48 48 60 68 72
98 94 88 86 86 93 88 84 80 86 86 82 90 83 81 82 83 78 74 72 71 70 78 74 83 86 86 79 73 74 69 78 85 81 76 85 64 60 61 60 55 51 60 60 63

GFSSW_sfc_rhum_078.txt.gz
RH
68 70 64 65 59 61 64 64 64 66 66 65 64 63 68 64 68 56 55 49 54 58 58 54 52 53 64 68 61 54 66 51 46 40 38 49 40 42 35 29 52 40 57 67 68
65 70 67 66 63 59 65 64 66 66 66 63 62 66 63 68 57 52 41 56 65 66 61 59 58 61 67 65 63 61 64 48 32 32 45 52 44 51 35 39 39 36 49 76 85
58 66 69 65 67 60 61 66 65 65 65 64 65 66 68 64 55 37 55 58 60 65 69 65 56 62 72 58 64 58 56 36 34 31 45 52 50 50 34 43 42 43 44 63 90
64 56 66 65 67 62 61 65 64 64 63 62 60 61 65 54 55 47 56 59 58 59 77 77 68 64 60 62 54 61 47 41 46 49 50 49 50 49 48 45 41 40 44 59 88
71 65 56 63 67 66 66 61 63 63 60 60 58 60 51 51 40 36 54 56 53 62 75 77 69 50 54 52 56 60 50 45 44 56 52 52 55 50 47 42 40 36 39 71 80
68 70 62 59 69 69 66 65 63 63 62 62 61 58 51 51 35 37 39 49 57 75 69 77 80 39 44 48 56 52 54 46 60 61 58 55 55 50 46 41 37 36 36 43 70
69 69 66 64 66 68 69 67 58 62 63 61 59 48 55 46 36 41 43 50 65 78 70 62 88 58 42 49 45 50 66 61 61 66 59 58 58 55 36 39 37 33 32 36 35
69 70 70 64 65 70 69 73 66 59 61 63 63 55 45 36 38 42 40 58 60 59 71 61 88 62 51 52 54 54 47 82 54 65 73 57 63 39 34 38 37 34 32 35 32
71 70 70 65 63 70 71 73 66 61 60 62 58 60 50 40 42 43 44 54 66 62 65 53 84 74 63 58 63 59 50 47 63 54 71 60 61 37 37 38 37 33 34 36 34
74 72 73 68 68 70 72 68 67 65 63 57 59 62 48 53 47 47 51 56 64 67 78 73 88 85 60 58 61 60 51 51 55 67 62 59 50 49 52 47 35 31 31 36 37
71 72 70 70 69 71 73 62 62 72 65 58 61 59 56 49 49 58 51 58 66 72 95 88 96 90 54 40 34 45 52 58 52 66 58 57 54 48 41 40 37 32 31 32 36
71 73 70 70 73 71 62 61 56 55 61 61 62 59 56 60 61 65 49 65 74 93 85 95 100 74 52 48 43 44 49 48 50 53 52 52 53 42 38 43 42 37 29 32 35
72 72 72 74 71 71 58 59 59 58 61 72 66 66 64 62 63 74 66 70 91 81 97 90 89 66 58 57 49 45 45 48 47 56 52 51 54 47 40 44 42 38 36 33 33
72 73 73 71 77 64 63 58 62 55 95 89 69 68 66 67 70 82 77 69 96 91 86 79 80 80 65 52 41 60 43 46 52 53 53 45 40 40 39 49 46 36 34 37 36
71 73 74 65 67 64 58 61 60 59 87 94 80 67 66 71 64 88 69 68 97 95 84 96 93 95 69 54 43 45 49 46 46 42 50 54 54 33 41 44 41 38 34 36 36
69 75 74 74 74 67 62 60 61 93 97 100 87 72 64 64 64 64 68 79 69 80 84 89 75 88 55 61 51 48 49 52 53 56 70 45 48 34 37 38 34 32 35 38 37
77 77 74 67 67 67 65 65 98 91 76 100 99 75 73 67 66 74 82 75 77 99 100 96 96 83 71 66 52 49 52 84 86 86 60 49 55 36 30 31 30 33 34 32 33
84 76 76 66 71 69 64 77 96 79 99 80 95 83 80 76 81 79 72 79 67 90 100 97 100 95 67 67 63 53 44 62 63 62 46 53 53 34 29 30 31 30 26 29 30
79 74 74 75 70 70 63 99 92 93 76 83 94 99 99 91 77 67 70 71 71 79 84 90 98 87 71 70 60 66 69 45 61 57 57 41 39 28 24 25 27 28 32 32 28
73 71 78 79 72 72 88 87 95 63 70 70 76 75 66 72 74 82 67 62 84 76 71 74 96 84 79 75 62 57 46 66 80 77 58 43 40 24 25 23 23 24 26 29 34
71 73 81 80 77 78 98 85 74 61 65 76 73 74 81 86 72 73 65 76 76 80 72 60 65 95 68 75 61 63 63 59 49 52 44 37 30 24 26 26 31 31 35 36 39
77 97 82 86 95 88 73 68 70 69 66 68 69 58 59 69 62 61 65 62 71 63 67 56 63 93 96 66 64 63 58 47 67 66 58 47 32 23 25 28 36 34 42 49 48
72 85 73 92 94 80 70 71 67 68 65 67 58 52 48 56 65 62 60 57 62 58 56 52 68 91 95 67 65 69 62 56 55 68 83 54 33 26 27 32 36 36 40 47 51
61 91 70 81 66 75 73 74 72 66 60 55 55 48 49 56 56 63 62 58 60 55 64 55 56 59 67 69 60 80 68 65 74 98 56 51 36 32 31 32 31 31 35 42 48
55 74 75 90 66 69 71 72 70 72 62 56 57 60 53 54 57 62 60 54 53 63 54 52 86 73 55 54 78 75 70 69 96 71 78 44 38 33 28 26 29 31 32 38 47
50 59 59 61 69 69 70 76 78 75 74 68 64 61 53 53 53 58 55 52 52 52 53 52 86 76 80 63 67 72 58 60 62 60 57 53 53 35 32 33 38 35 35 39 44
76 70 61 70 65 67 62 68 75 72 73 65 72 60 62 66 58 51 48 50 46 48 54 55 64 73 72 61 61 65 53 54 54 54 56 67 48 38 42 42 44 41 40 38 35

GFSSW_sfc_rhum_081.txt.gz
RH
57 63 69 65 69 60 61 66 66 66 66 66 64 62 62 62 63 47 50 35 46 56 59 44 44 49 43 52 70 68 90 66 40 40 32 35 30 36 28 24 40 33 48 62 71
60 56 61 67 66 62 60 68 64 64 65 62 62 62 62 63 47 47 38 45 52 62 55 45 53 50 53 52 68 84 87 65 33 27 32 35 31 37 30 30 34 34 42 68 78
69 63 58 64 65 66 62 64 66 64 64 63 62 62 62 51 53 44 54 55 58 55 56 56 45 51 57 42 60 70 79 38 25 21 36 37 42 40 28 35 36 39 40 73 84
68 71 61 57 65 68 65 61 62 63 60 59 58 60 63 47 72 39 53 53 59 54 64 63 62 62 60 49 45 57 49 39 36 40 48 37 36 42 40 39 34 34 43 71 89
67 69 68 60 61 69 68 66 65 62 61 61 58 60 53 46 38 28 45 45 45 71 76 72 69 57 52 42 38 49 36 32 39 42 41 34 34 41 42 37 34 31 41 73 86
68 68 69 64 62 68 68 67 59 63 63 60 60 63 46 47 29 30 33 40 53 66 75 69 74 44 40 36 38 43 39 36 48 40 42 45 44 33 40 35 34 33 35 52 74
69 68 69 68 60 66 68 69 65 60 64 62 62 43 48 39 31 33 37 42 63 79 67 77 89 90 36 39 40 39 52 48 51 52 52 42 46 42 37 36 36 31 31 37 39
69 70 68 69 64 63 71 70 72 61 63 63 64 44 41 34 32 34 32 45 65 76 87 84 86 90 42 31 47 55 47 67 54 46 55 52 55 40 28 35 36 31 30 35 34
68 72 69 70 67 65 71 73 68 64 61 61 56 48 38 39 37 34 38 45 52 69 78 73 90 84 49 49 65 59 57 47 53 46 61 58 49 39 35 32 36 32 28 30 35
70 70 69 68 68 68 71 70 66 64 57 43 43 58 38 45 40 39 40 46 55 65 82 91 91 94 62 52 61 51 37 37 49 54 55 58 50 47 48 41 41 31 29 28 34
72 70 71 66 67 73 72 57 60 67 54 52 48 47 44 39 38 49 43 50 54 83 96 88 97 98 50 34 24 27 31 30 27 39 51 49 48 40 38 40 40 35 30 27 28
72 72 68 70 74 72 62 52 48 50 55 50 50 47 44 49 47 56 43 60 60 99 85 94 99 81 42 32 39 34 49 48 46 44 46 40 40 34 33 37 35 30 28 27 26
72 71 70 72 69 70 54 47 46 44 55 60 53 53 52 54 53 56 59 62 76 93 89 94 90 64 52 42 48 40 39 42 43 45 43 37 40 39 33 31 29 30 27 24 26
72 70 71 72 80 53 56 47 50 48 96 81 61 60 54 53 86 72 66 73 86 88 90 70 80 66 56 42 31 42 29 35 43 54 57 41 34 30 31 33 32 32 31 30 26
70 70 75 73 58 59 52 49 49 52 87 88 67 53 52 64 64 88 74 74 88 81 96 97 92 79 60 43 33 35 33 36 41 44 34 44 46 27 28 31 31 30 30 28 26
70 75 74 65 62 54 48 50 58 93 94 97 74 58 51 52 55 67 83 79 71 86 74 82 72 78 57 41 39 42 43 40 39 39 64 40 38 26 27 28 25 24 25 28 26
79 73 71 53 62 54 53 60 97 92 70 94 85 58 54 59 58 85 94 90 87 97 100 93 94 81 68 59 49 41 47 75 76 80 56 34 37 29 25 24 26 25 24 23 25
76 74 72 56 60 56 57 73 98 78 98 87 74 67 64 57 61 64 65 66 66 84 99 99 98 91 59 57 58 43 40 56 56 53 41 41 45 30 23 24 25 26 24 25 26
82 61 61 70 63 63 70 99 97 94 69 85 81 88 79 69 61 52 59 56 60 65 69 81 99 77 68 58 53 54 62 40 51 42 47 38 30 24 20 20 22 23 26 27 25
61 63 69 70 67 67 88 89 92 60 60 60 77 63 54 57 56 63 53 48 66 63 55 58 97 89 62 63 53 57 37 52 75 68 46 37 32 24 23 24 23 22 22 21 25
62 74 78 73 67 74 96 76 65 54 57 69 61 68 43 52 49 54 46 59 66 66 61 52 58 88 63 94 68 60 60 50 44 48 43 30 27 18 25 26 28 27 30 30 27
64 94 79 76 95 79 62 59 67 61 56 60 58 47 52 53 52 49 53 54 61 60 60 49 58 93 75 56 52 54 45 43 66 56 46 45 32 20 22 25 29 30 36 37 37
61 82 79 91 89 70 60 60 57 60 57 58 52 47 43 48 54 51 52 53 59 55 62 46 67 94 89 62 52 60 49 46 42 70 79 50 30 22 21 25 30 30 30 34 38
57 91 74 84 63 64 61 61 63 58 52 48 46 43 45 47 46 54 56 57 56 52 66 53 52 60 68 63 52 66 52 48 66 96 53 48 35 26 26 28 29 27 25 26 37
45 56 62 87 60 56 59 56 57 59 52 47 50 47 43 48 49 52 52 56 54 64 49 50 79 66 53 47 72 68 56 51 83 69 73 42 35 27 24 22 22 23 28 30 34
42 42 49 51 56 54 66 60 58 64 57 56 52 49 43 44 48 51 48 48 49 50 48 47 82 71 77 50 56 66 52 49 51 51 55 50 47 30 28 26 27 28 30 30 31
52 49 41 60 52 51 50 56 63 61 62 58 58 48 53 63 48 45 42 42 41 45 48 51 59 67 67 51 50 59 49 48 46 44 47 59 43 32 32 33 34 34 36 36 34

GFSSW_sfc_rhum_084.txt.gz
RH
67 65 58 61 67 68 62 62 67 65 66 65 65 64 64 63 65 56 59 45 44 49 55 52 45 49 49 59 76 76 92 79 60 37 49 31 36 39 32 40 41 53 84 83 79
66 74 63 59 64 67 63 60 66 65 66 65 65 64 62 63 53 51 42 45 43 50 59 66 54 55 66 58 78 88 94 72 46 38 46 40 34 39 37 42 43 54 77 76 86
66 70 68 60 59 67 67 64 65 64 62 64 63 63 64 59 55 51 54 54 52 51 56 70 62 62 72 58 69 87 81 66 52 45 52 40 47 43 44 45 46 48 78 89 90
64 68 68 65 60 62 70 66 63 64 62 62 61 60 63 55 77 44 44 49 50 51 58 73 69 77 72 70 52 77 64 56 58 60 56 46 41 49 47 47 39 43 64 86 93
64 68 68 68 61 62 70 69 65 63 64 63 62 62 60 58 46 28 38 37 44 52 63 85 75 72 70 56 48 62 58 56 54 79 57 52 44 49 50 41 39 39 68 90 92
62 70 68 70 68 61 67 68 69 62 64 64 60 61 62 62 29 30 32 38 56 60 68 72 79 66 65 45 48 48 48 52 55 68 83 56 52 45 48 41 39 38 57 81 86
66 68 70 69 68 61 63 70 70 67 62 66 66 55 52 47 29 32 33 54 64 87 78 64 87 86 78 56 36 38 52 49 78 73 78 55 64 60 45 42 41 38 46 60 78
64 68 70 67 70 64 62 70 71 70 63 63 64 54 58 34 35 31 33 53 54 72 90 85 78 79 80 60 42 60 55 69 59 72 72 64 68 48 42 47 46 43 43 45 46
65 69 69 67 67 65 65 71 72 68 62 60 61 53 50 40 39 32 36 45 52 66 80 76 78 84 78 86 72 70 74 64 64 55 59 66 65 42 39 44 48 48 42 42 42
67 72 68 67 65 66 72 70 65 63 61 43 40 58 53 46 39 38 37 44 56 64 86 88 88 96 91 77 86 72 68 58 59 71 74 69 68 54 65 56 48 46 41 39 45
69 71 70 65 66 70 74 73 74 71 54 54 49 45 38 39 35 42 40 46 58 80 98 94 99 99 82 56 45 52 47 54 48 55 65 67 63 56 58 60 58 52 46 40 38
71 72 69 69 71 71 68 73 54 56 62 46 47 44 41 45 50 50 46 59 63 100 98 97 100 82 64 48 38 38 47 56 65 54 56 59 58 51 42 54 50 47 43 40 35
71 71 68 70 69 70 70 49 49 45 68 56 50 49 50 52 55 60 60 60 82 99 97 97 94 78 70 64 53 37 40 73 72 58 51 49 55 46 39 38 41 40 39 36 33
70 68 68 70 78 64 60 47 53 53 99 79 61 61 55 51 91 68 62 71 75 97 85 90 80 87 80 64 50 60 37 42 47 60 74 51 66 45 39 44 41 42 41 41 33
67 65 71 73 76 65 55 52 54 63 94 82 65 44 50 66 83 82 71 76 73 80 90 95 82 78 65 54 44 54 45 46 52 61 59 62 75 43 38 44 42 39 40 42 40
69 74 70 67 72 54 52 55 66 98 93 92 65 53 52 53 67 79 86 84 77 89 79 90 70 80 84 54 48 52 55 47 46 54 87 54 57 46 44 38 37 36 36 38 39
78 76 74 52 71 57 58 75 100 92 70 82 80 56 50 59 74 90 88 84 94 98 99 92 94 77 71 71 55 54 58 91 94 94 84 44 55 51 36 34 33 36 36 36 36
78 74 72 57 60 60 70 89 90 78 98 71 66 57 68 58 61 55 67 74 68 83 93 97 96 88 71 75 68 59 56 88 72 82 69 48 66 42 33 32 32 33 36 35 35
79 77 73 76 64 71 82 96 93 97 74 76 72 73 70 60 57 54 60 71 76 72 95 92 95 80 72 73 68 66 79 53 73 61 80 62 45 38 29 31 34 34 35 40 39
78 74 81 71 69 77 95 89 93 66 55 58 85 74 57 55 57 67 58 52 69 63 63 64 97 83 80 73 64 67 53 70 90 80 63 59 47 42 34 32 30 32 36 37 38
85 83 87 76 76 85 100 80 66 52 56 62 60 57 48 55 50 57 53 63 64 69 65 60 73 95 76 87 78 75 74 64 59 68 80 65 49 34 37 37 41 45 44 47 42
78 97 81 78 99 83 79 60 64 57 55 58 61 50 49 51 52 54 50 65 64 61 68 60 74 95 83 67 60 63 77 59 92 75 73 70 59 31 38 40 40 46 46 52 51
74 88 82 87 99 84 64 62 54 61 58 57 54 52 47 53 64 55 58 62 63 63 67 60 82 98 91 74 65 74 62 58 64 84 82 83 53 31 34 33 40 44 42 48 50
72 97 93 89 74 76 67 66 67 64 54 50 48 47 49 52 53 59 64 64 63 60 70 66 65 76 94 81 75 80 62 58 78 98 79 75 62 41 36 36 39 40 43 43 52
70 80 71 94 80 67 64 56 59 63 57 51 55 50 49 56 55 57 59 69 65 67 63 64 85 80 71 54 83 84 68 62 84 72 86 63 51 38 35 36 35 37 37 39 44
61 64 67 64 57 61 68 64 52 64 59 57 57 52 49 55 58 59 55 60 64 65 65 59 94 88 88 56 60 78 64 60 58 57 66 64 64 45 40 37 39 40 41 39 40
64 58 64 66 63 63 63 53 53 61 65 59 56 54 58 66 55 54 52 48 51 59 64 65 79 85 87 61 58 75 58 60 57 53 57 70 55 46 47 44 47 47 46 43 44

GFSSW_sfc_rhum_087.txt.gz
RH
65 65 70 62 59 61 68 64 63 65 64 66 66 66 65 66 66 68 77 64 52 47 56 58 60 59 60 69 79 76 91 84 79 58 58 40 42 43 37 51 67 76 89 86 89
64 65 70 66 60 59 67 65 62 64 63 64 64 65 65 65 67 64 53 49 58 48 60 67 68 67 76 73 86 94 94 80 59 74 65 43 44 41 40 50 80 91 87 89 90
61 64 70 67 63 59 63 70 65 65 63 62 61 61 63 65 74 67 51 48 49 53 60 66 70 83 84 73 78 93 90 66 69 71 74 49 53 48 45 56 55 92 98 95 97
63 65 70 67 67 60 61 70 68 64 63 64 63 61 62 66 86 60 42 46 44 52 63 73 72 91 84 81 66 84 72 66 63 76 71 58 50 53 53 51 47 72 90 93 97
61 63 71 66 68 65 61 69 67 66 63 65 61 62 67 78 62 37 39 38 42 60 68 79 83 86 82 77 66 80 80 75 66 74 74 62 64 55 56 46 59 76 85 96 96
63 66 70 71 68 68 60 64 69 72 63 64 64 66 73 89 38 36 38 47 61 65 72 75 80 73 82 69 70 63 65 61 60 75 71 77 76 70 54 50 53 80 90 96 94
65 65 70 70 68 69 61 62 69 71 67 61 64 63 76 71 37 36 37 57 72 78 78 72 79 91 90 71 50 53 66 64 83 72 70 82 83 82 51 48 47 72 90 91 85
64 66 70 69 66 67 61 62 70 72 70 62 61 73 78 41 46 36 39 62 68 80 76 82 93 78 90 75 66 61 68 84 83 74 71 69 86 59 51 54 50 57 78 86 84
65 66 72 67 67 61 61 70 72 70 67 58 73 82 68 41 41 38 43 52 66 77 78 66 79 86 87 90 82 77 82 78 89 70 76 71 87 69 59 53 54 53 60 55 59
67 68 70 67 64 63 66 72 71 67 65 52 52 67 58 49 47 42 41 50 62 72 78 85 89 96 93 94 83 84 79 68 76 80 72 81 85 80 67 56 55 52 51 55 50
67 71 68 66 63 68 78 89 88 88 76 70 60 54 47 47 44 54 52 54 61 78 96 95 98 99 93 90 80 61 64 62 62 69 78 80 74 69 64 66 66 63 59 55 51
67 72 69 64 66 68 76 92 66 67 75 53 52 51 44 51 59 62 58 70 73 99 97 98 100 83 72 68 67 58 64 66 60 60 62 74 75 63 62 61 57 56 55 53 50
69 70 66 67 66 78 84 70 60 62 78 60 53 56 60 57 72 78 71 74 81 100 99 91 95 76 76 70 58 64 62 82 62 75 75 70 73 61 55 59 56 56 55 52 49
68 63 66 69 79 79 73 60 61 63 99 82 68 64 62 80 84 70 70 78 79 98 96 98 80 78 78 68 64 69 59 74 71 73 94 64 77 59 54 52 59 61 58 53 49
68 64 68 71 84 72 65 61 62 72 94 80 66 52 62 72 80 74 74 80 92 90 93 99 93 90 85 70 62 68 60 73 79 69 74 63 72 53 49 54 50 53 54 50 48
67 70 72 75 80 61 60 65 77 92 96 86 75 66 68 76 80 75 86 86 78 84 79 93 84 87 86 73 69 73 62 59 68 73 85 69 72 64 57 44 50 53 48 45 45
73 78 74 61 78 63 68 87 95 93 74 77 81 59 62 84 87 83 82 93 94 90 98 84 90 81 77 72 74 82 73 96 92 91 83 55 67 60 45 41 40 41 47 46 47
81 78 77 65 74 70 86 95 89 77 92 72 71 67 81 66 65 81 87 88 78 87 92 94 87 92 78 87 80 78 60 86 87 93 75 54 68 46 38 38 38 36 36 38 45
81 94 89 88 72 83 90 96 92 91 80 84 76 86 82 69 70 66 80 88 85 81 89 96 94 79 75 84 76 72 84 56 79 74 86 71 56 38 42 43 44 43 43 46 43
98 86 95 79 81 93 97 85 91 83 70 67 87 79 73 68 71 75 72 65 79 72 75 79 98 81 82 76 69 68 61 70 89 76 70 75 65 48 40 37 36 40 46 40 39
94 95 91 80 89 96 97 86 77 61 65 64 80 76 59 66 64 69 80 72 73 78 79 73 79 95 79 91 84 76 77 69 65 73 76 68 55 42 40 43 50 55 54 53 48
88 100 89 86 98 95 96 73 68 66 66 72 73 71 57 59 61 66 75 80 74 72 77 69 85 89 89 73 72 74 78 74 89 77 79 75 61 40 45 47 49 53 52 65 57
88 98 86 93 99 97 79 71 68 70 70 68 68 59 50 60 66 64 77 75 72 69 80 69 89 98 89 77 72 80 73 73 73 82 84 82 58 35 49 46 48 51 53 54 57
89 99 97 96 92 96 82 83 80 69 64 58 59 56 59 62 60 66 78 71 72 68 69 67 76 78 88 79 80 87 70 68 79 93 83 82 66 50 39 36 38 46 49 54 58
86 94 82 99 96 94 77 72 76 75 68 59 64 61 61 66 66 62 71 81 73 71 65 70 86 81 73 64 85 87 75 70 87 76 85 64 63 47 50 46 44 38 42 41 56
72 88 84 90 81 92 79 74 72 73 68 67 70 58 60 72 74 68 72 81 77 81 76 68 90 87 83 64 67 79 70 70 71 69 74 70 70 49 52 49 50 46 45 44 42
72 66 69 76 83 85 84 70 59 71 72 70 69 66 76 75 72 71 68 58 56 71 75 75 83 88 93 67 64 70 60 66 68 62 64 79 58 61 58 53 50 50 52 51 49

GFSSW_sfc_rhum_090.txt.gz
RH
62 63 61 69 65 59 61 69 65 63 64 62 64 65 65 65 65 72 85 69 58 54 54 60 60 64 68 76 79 81 98 82 80 55 47 45 44 43 44 66 80 82 84 74 83
64 60 64 70 66 62 60 64 68 64 65 62 62 62 63 66 74 74 57 52 50 54 66 73 75 72 85 79 85 96 92 76 65 80 68 66 49 42 59 72 85 94 93 83 82
61 63 65 71 67 64 60 61 70 66 63 63 64 62 62 65 81 67 50 45 43 55 72 74 71 82 90 73 88 74 87 77 75 77 77 68 52 48 57 64 58 90 86 93 91
63 63 61 71 65 66 61 61 70 68 63 64 63 63 64 71 77 60 44 41 47 68 71 72 74 88 94 79 73 82 77 77 73 82 76 76 67 58 55 55 59 89 88 93 95
64 64 66 69 72 66 65 60 67 67 65 62 64 62 69 82 76 43 38 41 51 61 63 74 82 75 88 87 72 82 73 74 81 76 80 76 79 82 57 60 71 88 89 92 94
66 64 64 70 71 67 66 61 63 70 73 61 65 68 77 89 45 37 39 50 56 69 70 75 79 66 90 93 79 70 64 70 86 76 71 74 77 72 59 62 91 91 96 97 92
67 64 66 69 68 64 67 60 61 70 71 65 60 64 83 76 45 43 52 64 70 72 72 80 76 86 81 82 68 66 80 68 82 84 80 71 74 86 69 56 92 95 96 98 96
67 62 66 71 68 65 60 60 68 71 71 68 59 77 90 48 48 40 47 67 72 77 74 77 87 83 90 82 83 72 79 97 87 88 89 71 84 64 61 68 71 91 95 97 96
68 64 66 69 64 64 60 63 70 68 66 64 75 86 80 44 43 41 46 54 69 84 83 67 89 91 83 93 91 78 93 92 98 81 87 84 84 63 68 79 63 75 89 92 95
68 66 69 66 66 62 64 69 72 72 65 57 58 78 56 55 50 44 49 50 68 76 80 83 91 96 95 97 90 93 85 72 92 88 82 86 86 79 68 75 73 65 70 69 84
70 67 70 66 60 63 78 90 84 86 83 73 66 64 53 49 50 62 58 64 68 77 92 92 95 99 97 91 90 66 69 75 78 81 74 83 76 73 77 84 81 63 60 59 56
70 70 66 63 61 65 84 93 71 68 79 60 54 56 50 57 65 67 63 73 75 99 97 98 97 84 89 80 74 63 67 70 70 66 70 83 81 69 83 81 72 63 63 58 54
71 71 68 61 66 77 85 76 62 63 86 69 60 62 61 61 80 81 75 79 94 100 100 98 89 74 82 84 75 69 67 66 79 78 75 75 81 64 70 66 58 59 57 55 54
73 68 67 68 77 79 84 64 64 66 95 83 71 67 63 74 86 68 70 82 96 100 96 97 81 77 89 75 60 72 58 54 76 90 99 79 90 71 53 58 60 55 67 62 56
72 69 68 73 90 81 69 66 64 63 82 64 72 56 65 78 82 74 75 83 96 96 93 98 87 85 86 78 63 70 62 62 72 82 94 93 94 56 53 60 56 61 60 62 59
72 69 71 78 81 76 65 67 78 85 92 82 76 71 79 74 75 79 84 87 90 91 84 93 85 90 92 78 70 69 73 75 82 90 96 75 79 55 62 60 50 54 56 57 55
74 75 78 66 84 69 74 86 90 90 70 80 79 69 70 89 83 87 86 90 96 90 96 91 95 85 80 78 72 71 84 99 99 98 81 61 74 59 45 42 46 47 50 51 52
78 79 76 68 75 75 86 88 90 78 88 75 77 71 83 70 70 86 86 89 78 84 93 95 96 86 76 92 93 86 81 88 90 91 76 63 83 53 40 39 40 42 47 49 49
84 94 91 90 76 84 84 97 87 88 80 86 81 90 79 73 76 69 84 89 87 87 93 94 94 75 80 84 85 84 81 59 76 78 81 67 53 39 44 45 42 39 39 59 58
96 97 97 84 85 90 96 86 91 77 74 71 85 77 79 72 75 77 78 76 78 76 83 84 98 87 82 76 72 67 62 72 87 76 78 75 71 50 48 46 44 44 53 47 44
93 96 96 87 91 96 98 92 82 67 66 72 84 85 68 71 73 75 86 74 74 75 76 76 80 87 79 87 92 77 75 75 70 76 71 74 62 44 39 43 48 57 62 67 65
94 99 91 94 99 98 97 80 68 70 72 75 76 79 59 64 65 72 88 88 81 77 78 79 84 93 90 76 75 77 87 73 87 77 85 79 58 43 46 50 54 59 56 68 67
99 97 87 95 94 98 89 74 71 74 74 75 75 64 60 67 73 76 85 78 73 74 83 76 90 91 83 71 72 82 77 75 75 84 87 84 58 37 59 59 55 58 62 56 62
93 98 98 96 92 95 88 86 84 72 72 65 62 58 62 66 63 77 85 78 75 72 69 66 82 75 88 77 82 88 81 78 81 93 82 83 62 48 43 44 42 50 52 49 58
87 96 85 98 98 96 86 82 84 80 71 62 68 63 64 76 70 79 84 85 76 71 72 74 89 85 78 67 84 85 80 79 88 80 86 66 68 55 50 48 47 48 46 46 45
86 96 92 94 87 95 89 85 77 75 72 73 70 62 62 74 75 77 80 85 80 82 79 74 92 86 82 68 72 76 71 72 75 77 76 73 74 49 50 56 59 53 50 50 48
78 73 78 86 94 93 87 78 73 75 76 68 64 75 74 70 67 74 75 64 66 76 79 78 84 88 92 75 66 74 61 69 74 69 71 78 56 56 60 57 59 56 55 52 52

GFSSW_sfc_rhum_093.txt.gz
RH
67 64 60 65 70 65 58 60 65 65 64 62 62 63 64 67 67 73 87 70 64 56 57 62 64 67 72 82 80 86 93 93 84 63 48 42 45 44 56 68 80 80 76 74 90
65 60 62 65 71 66 64 61 63 70 64 62 62 62 61 64 80 81 62 53 54 53 65 76 82 71 89 89 82 96 91 88 69 75 57 63 48 43 64 84 93 97 83 84 92
66 63 62 60 72 66 67 62 62 71 65 62 63 64 63 66 87 72 52 41 41 63 73 77 77 82 88 84 89 87 86 66 65 73 78 66 57 50 64 69 80 92 92 97 93
67 64 62 64 68 69 67 63 60 70 69 62 64 61 63 75 69 58 48 40 40 61 64 75 79 90 93 91 77 94 71 69 77 81 85 76 75 63 60 59 55 86 86 89 91
69 66 66 66 69 71 62 65 62 63 73 62 64 66 70 85 80 46 42 41 54 66 69 74 82 82 88 90 75 82 74 60 78 89 82 83 86 78 64 69 89 88 89 91 92
73 68 67 65 69 68 65 65 61 63 73 63 61 67 81 83 49 44 43 51 62 71 64 69 78 75 86 87 84 71 67 64 68 88 77 82 80 67 62 81 93 91 94 91 92
75 70 67 67 70 65 61 63 60 63 71 70 59 67 87 76 51 46 55 65 70 70 66 78 83 80 77 87 69 67 85 72 76 85 90 77 82 82 76 72 95 94 94 96 91
78 70 65 67 68 65 62 57 63 71 72 69 61 80 96 52 52 46 64 73 73 77 74 80 82 83 86 84 91 80 80 88 74 88 87 87 88 75 74 73 89 95 98 97 97
82 71 67 68 64 60 61 59 68 70 66 65 80 88 87 46 54 45 47 58 73 80 80 68 82 88 87 97 90 86 93 84 86 82 83 93 85 73 75 79 75 71 91 95 98
85 76 69 68 66 60 63 67 72 72 67 62 62 88 60 58 50 47 56 58 70 79 80 88 94 99 98 97 91 78 95 84 79 94 90 90 86 76 79 77 83 75 75 84 95
84 75 70 70 60 60 79 86 86 86 85 74 67 70 59 52 54 66 64 70 68 78 99 86 100 98 99 94 90 69 86 95 87 81 85 88 87 78 83 87 87 84 67 67 72
87 79 73 67 61 72 85 92 72 66 81 68 60 59 54 60 72 68 66 77 78 100 97 98 98 85 82 88 92 77 78 79 82 84 75 86 91 82 83 91 88 85 73 62 60
87 84 71 66 68 78 84 81 65 62 87 72 62 63 64 68 83 75 75 81 94 100 100 90 83 77 86 95 97 83 74 77 82 82 78 80 90 84 80 82 71 77 72 63 58
89 83 70 70 80 85 85 71 68 65 92 70 75 68 70 76 78 69 77 88 98 100 97 90 84 86 97 94 74 83 69 75 84 93 99 84 94 79 67 71 68 69 72 68 60
89 79 69 71 86 85 70 71 70 58 67 54 73 59 73 77 78 72 80 91 97 92 96 98 92 98 98 91 75 80 64 78 80 92 93 94 84 68 63 62 58 61 68 67 65
87 77 72 82 89 77 71 71 73 82 59 81 75 71 80 73 76 79 90 93 82 83 83 92 81 88 92 81 73 70 76 84 94 91 98 95 89 70 64 58 50 44 56 61 62
84 76 79 72 88 75 77 83 90 75 64 70 73 72 74 83 82 90 89 88 98 96 99 91 96 81 85 81 73 76 78 99 97 98 89 74 88 69 52 48 48 48 53 52 56
83 78 75 72 77 78 82 86 79 76 90 77 78 77 86 72 71 81 83 92 84 84 96 98 94 91 81 92 88 90 78 90 92 96 82 73 80 61 40 42 45 47 49 52 55
86 91 92 91 80 81 84 96 78 87 77 83 81 91 79 74 77 71 86 91 88 87 85 94 99 75 78 83 86 82 88 63 75 75 82 79 58 39 42 42 42 42 41 44 46
94 93 96 87 83 86 95 88 94 76 75 70 80 79 79 77 79 78 82 84 84 81 84 86 95 81 77 72 76 78 55 74 86 80 70 76 71 51 49 47 42 42 42 44 43
80 96 97 89 85 93 99 92 86 76 70 76 83 86 77 78 79 84 90 81 82 77 77 80 81 87 75 87 90 73 75 76 72 76 68 79 63 50 42 43 47 52 54 54 53
89 99 95 94 99 97 99 86 72 76 77 77 77 78 61 71 73 88 91 91 80 81 83 84 84 97 92 82 82 83 87 73 84 77 88 77 59 46 52 51 54 57 52 56 56
95 95 90 92 98 98 90 81 74 77 77 81 79 71 63 66 80 87 90 78 76 77 83 76 88 94 82 71 71 83 83 80 79 84 87 81 54 44 59 56 60 63 58 54 58
92 99 99 96 88 90 91 89 88 75 74 73 64 62 65 70 71 85 89 81 76 74 68 67 83 75 85 76 81 88 85 85 83 93 85 84 69 60 51 52 45 47 54 51 49
84 96 88 97 95 92 92 86 89 84 74 68 71 65 64 79 78 88 89 87 78 73 74 74 88 86 79 77 85 86 85 84 90 83 86 70 69 58 55 53 46 49 55 53 49
91 96 93 95 92 96 92 89 84 80 75 76 72 66 67 72 73 81 85 88 84 80 79 78 95 84 83 70 81 78 76 76 81 82 80 82 79 51 50 55 56 57 58 53 52
80 78 80 90 96 96 92 87 76 79 78 69 67 73 73 72 73 76 74 74 77 79 80 81 85 88 91 82 68 75 67 73 78 76 76 80 62 64 62 60 60 58 57 53 56

GFSSW_sfc_rhum_096.txt.gz
RH
72 68 66 64 66 72 65 61 62 62 66 64 61 61 63 65 69 74 88 68 74 57 57 66 66 68 76 85 83 82 92 86 78 82 68 43 38 46 58 66 64 58 68 73 93
78 70 65 64 64 71 66 65 62 62 71 63 61 63 62 64 83 86 64 53 53 52 66 76 80 80 90 90 82 88 84 74 68 63 58 48 54 44 74 86 87 87 88 81 84
84 75 68 64 62 71 67 66 61 62 71 63 62 63 63 68 86 76 53 46 41 59 71 79 81 83 92 87 90 88 83 63 61 72 77 83 60 57 69 84 80 71 90 81 84
85 84 72 66 66 69 68 65 62 60 69 68 63 63 66 77 60 58 47 40 41 61 62 73 86 93 95 93 85 93 73 68 60 69 71 90 80 69 67 65 59 60 80 86 87
88 87 82 69 66 69 70 62 62 61 67 72 61 66 70 88 83 50 42 44 60 66 68 74 88 88 94 89 87 92 78 70 62 80 80 86 86 84 68 66 90 86 86 83 77
89 86 85 74 68 70 63 66 64 60 67 70 60 66 83 83 44 48 46 52 62 67 67 70 79 77 84 84 87 76 71 68 69 66 81 93 85 84 69 67 95 89 90 84 79
90 86 86 80 72 71 63 60 59 60 66 71 62 68 90 66 54 55 53 65 68 73 71 66 70 80 78 88 72 77 86 70 68 72 83 85 92 86 73 71 95 95 80 88 86
93 87 89 79 75 69 64 58 60 67 70 70 64 80 83 54 59 51 67 75 76 75 75 76 77 86 78 81 89 84 78 94 71 78 80 88 93 79 83 84 88 94 97 88 92
94 86 85 82 78 66 60 61 63 70 65 65 82 87 89 49 55 54 48 59 74 78 80 69 77 86 82 95 92 93 96 96 91 73 88 92 96 84 82 79 81 80 90 95 95
93 91 89 85 75 67 62 66 70 73 70 64 65 89 63 60 55 49 55 57 72 78 79 91 95 98 93 99 90 98 93 90 80 87 84 90 96 78 82 85 87 82 77 82 96
94 92 90 88 73 63 76 84 84 87 87 76 70 74 62 55 57 66 66 69 75 81 97 96 100 98 89 84 80 85 88 92 88 85 87 89 94 84 81 87 84 83 78 68 72
92 92 90 85 73 66 84 89 75 64 80 73 70 64 58 60 72 69 66 77 87 90 88 96 99 79 82 84 87 81 91 84 95 83 84 87 90 87 79 89 85 82 81 68 64
92 91 89 86 72 82 86 82 69 64 86 75 66 66 66 66 77 75 74 82 90 99 92 97 87 77 96 95 95 85 86 92 90 89 85 88 90 88 85 71 86 77 79 78 64
90 89 88 82 81 82 84 72 70 58 88 59 77 68 70 77 76 69 76 87 98 100 97 98 79 77 99 92 74 93 73 80 90 96 99 85 93 90 85 77 74 75 74 71 68
91 87 88 79 83 85 72 73 67 54 56 49 72 60 74 86 80 79 82 95 98 93 98 98 96 97 100 94 78 87 75 77 84 92 92 93 95 80 84 81 69 65 69 65 64
93 88 88 91 87 76 74 69 69 81 52 71 74 72 77 79 77 78 92 94 88 93 88 97 96 94 94 87 81 72 74 87 91 89 93 94 88 76 64 59 57 56 56 60 63
92 88 90 81 85 78 75 75 89 74 58 70 73 73 77 81 80 88 89 90 96 94 96 90 93 85 91 84 80 77 81 98 94 95 90 88 86 60 54 45 51 47 49 55 60
90 90 88 74 76 80 76 84 84 70 86 79 78 76 84 74 72 75 82 93 87 85 96 94 96 96 82 95 94 90 79 92 92 94 82 81 87 59 42 43 48 54 54 59 59
90 98 96 86 81 77 82 97 80 82 76 82 79 84 74 73 82 75 88 92 89 89 86 97 99 73 83 85 85 87 88 68 79 74 91 85 64 39 42 45 45 45 44 49 53
97 97 97 85 82 81 94 89 93 76 76 69 75 82 79 74 76 81 85 85 86 81 86 86 94 76 75 71 76 69 63 78 88 80 71 76 73 59 47 46 42 45 50 50 49
94 97 96 88 82 90 99 92 86 77 72 74 84 85 79 80 80 90 94 84 84 81 80 82 84 86 78 92 91 79 77 77 74 76 69 73 55 51 50 46 44 59 60 63 60
97 100 95 89 97 93 95 91 74 82 82 81 82 73 67 75 83 90 95 94 84 82 83 82 86 99 95 83 84 84 89 72 83 78 88 76 59 45 68 69 58 61 61 65 65
98 98 92 89 98 97 92 86 78 80 82 83 84 74 65 73 84 88 91 80 80 81 84 76 87 93 81 72 71 82 85 81 81 84 87 75 56 46 66 61 54 64 52 52 52
98 99 98 97 82 90 93 91 88 78 76 78 74 68 72 78 82 88 91 82 79 82 69 67 84 74 86 78 84 86 85 85 83 92 85 83 69 61 55 52 47 46 53 57 55
94 97 88 96 94 88 91 88 90 87 80 81 76 69 69 81 84 91 91 85 77 74 76 73 90 88 82 84 84 85 84 88 90 84 85 79 76 63 59 62 58 50 50 55 54
89 98 89 94 88 87 89 91 86 84 79 81 77 70 76 76 74 82 86 88 83 77 81 80 96 83 84 76 76 79 80 82 85 85 85 85 83 65 66 64 61 61 62 62 56
84 83 85 80 97 92 94 89 79 80 84 75 68 73 75 78 77 78 79 79 81 81 82 82 85 87 92 83 70 73 71 74 79 81 80 78 63 67 59 58 62 60 60 61 58

GFSSW_sfc_rhum_099.txt.gz
RH
81 80 79 72 66 66 72 67 64 61 63 66 62 60 61 63 67 70 81 62 71 58 59 59 61 66 66 77 75 73 88 81 65 65 68 49 47 37 43 61 57 56 63 62 78
85 81 81 77 71 65 71 68 66 62 62 69 61 61 62 64 76 82 61 54 53 56 60 60 61 71 75 81 77 80 83 70 52 53 64 53 54 45 54 64 65 64 86 86 82
94 85 83 83 78 69 67 70 67 63 62 73 62 61 61 66 76 64 54 54 41 57 67 70 71 74 84 75 82 78 84 59 53 52 65 72 71 70 55 59 59 64 90 83 87
85 91 87 84 82 69 70 69 63 64 61 74 62 62 64 71 52 51 48 40 51 58 57 64 78 84 92 81 75 82 65 62 62 55 64 68 72 77 60 55 60 59 84 83 80
82 90 89 85 82 73 75 71 63 63 61 73 61 66 67 82 76 49 45 45 60 62 64 67 80 83 80 83 76 82 74 65 62 63 62 71 76 78 78 60 58 77 73 81 80
79 86 89 89 84 82 80 63 65 66 60 72 60 66 76 69 39 47 46 51 60 63 64 72 75 74 83 81 83 67 58 64 62 68 66 81 74 84 64 63 66 78 79 70 71
74 87 92 90 88 81 80 65 60 63 61 70 63 67 86 61 49 55 49 61 63 66 69 64 62 72 76 81 69 66 79 75 66 61 74 78 78 74 70 72 80 89 72 79 73
75 83 92 89 87 84 77 66 60 65 70 70 66 78 79 52 59 54 64 67 71 70 70 70 69 74 88 75 83 80 74 89 66 60 73 72 82 77 70 70 78 84 63 78 80
71 80 90 89 88 88 74 66 61 69 66 68 82 82 80 51 55 54 56 59 71 76 80 64 75 91 94 96 81 74 89 95 77 56 88 79 91 77 74 64 75 80 84 72 79
74 87 91 89 88 88 77 67 70 71 70 63 65 86 59 58 55 49 53 58 70 75 80 88 94 99 95 99 86 90 84 78 81 79 75 91 98 81 70 71 78 84 84 73 82
74 85 91 87 88 88 86 86 85 86 88 78 74 72 62 55 56 61 64 69 71 82 84 92 100 98 90 80 76 98 69 68 73 81 77 82 87 81 79 80 79 84 86 88 82
73 84 90 85 85 86 88 89 70 62 81 81 71 69 60 59 71 68 67 79 89 81 82 94 99 94 66 69 80 96 77 82 76 77 75 84 84 84 84 82 79 78 82 77 80
73 82 89 85 86 95 91 80 67 68 80 74 69 67 66 63 77 74 70 83 90 93 90 96 89 91 94 84 86 84 82 87 80 85 80 81 88 83 74 85 75 72 72 74 70
68 76 87 87 94 93 88 69 72 61 86 59 77 69 72 76 78 67 69 83 96 99 98 99 94 95 97 88 91 92 75 70 84 88 98 88 88 87 85 88 78 59 62 66 64
75 79 87 79 94 93 72 74 69 52 60 47 73 60 76 82 81 78 76 95 97 97 99 99 95 99 95 84 80 76 76 79 84 87 88 88 88 79 80 87 74 55 53 56 60
73 81 86 94 97 84 73 66 64 80 52 71 74 72 73 79 76 76 91 93 86 98 97 99 91 88 91 88 80 72 81 84 83 81 90 84 66 59 72 75 62 47 52 54 60
73 88 88 86 94 77 71 71 88 74 59 71 75 73 75 75 74 84 85 88 94 96 97 99 97 90 89 88 82 76 74 93 88 91 80 68 71 60 52 58 52 47 41 40 46
78 91 90 87 88 74 73 83 78 65 80 78 77 73 76 73 72 77 86 93 86 84 93 96 98 94 85 90 88 86 72 83 86 87 81 77 73 55 41 45 46 47 48 52 51
84 98 97 96 84 71 82 94 79 79 74 82 70 70 70 72 81 72 87 94 88 89 86 90 99 78 86 84 86 82 82 64 74 69 85 73 57 38 40 41 40 43 45 51 52
99 95 97 92 76 79 95 89 92 74 76 70 63 78 77 71 76 82 86 87 91 81 86 79 98 85 75 81 77 68 59 70 84 77 74 61 60 54 47 43 44 52 54 52 50
93 97 98 89 73 92 99 93 87 79 75 74 82 82 79 81 80 92 96 83 89 84 74 77 82 86 74 90 96 82 78 73 70 68 59 57 53 43 50 49 47 56 57 57 56
97 100 99 91 96 96 93 92 76 85 82 83 78 71 71 76 87 92 96 94 83 87 83 82 84 98 94 76 78 82 86 67 80 72 80 61 54 42 57 57 54 54 53 51 51
98 98 98 86 94 89 91 89 83 85 86 83 83 77 66 78 87 90 91 81 81 81 86 74 84 91 77 66 68 81 82 76 76 76 84 64 53 45 52 52 44 45 46 49 50
98 99 99 95 77 89 94 93 90 80 81 80 73 69 74 81 84 89 91 83 80 80 70 66 83 72 82 75 81 81 82 82 79 86 77 66 58 53 57 59 58 56 47 48 51
97 98 86 98 96 95 92 88 90 87 80 77 76 71 76 82 86 93 91 83 76 73 75 71 90 86 80 79 78 81 80 82 89 78 80 73 68 61 66 65 60 54 56 57 55
92 93 85 84 70 92 86 91 87 87 83 83 74 70 77 77 76 83 86 87 85 73 81 78 95 81 86 73 71 74 72 78 79 81 81 81 75 62 56 57 62 61 62 60 59
82 85 85 77 73 87 80 89 82 82 83 76 70 74 77 80 80 80 83 82 83 82 83 81 83 83 90 78 64 68 65 70 74 75 74 70 64 68 71 71 70 69 68 67 64

GFSSW_sfc_rhum_102.txt.gz
RH
80 84 85 78 77 70 66 69 68 63 61 64 66 62 62 63 65 49 50 38 45 55 56 46 42 46 46 49 53 52 71 58 38 35 33 24 34 33 30 30 30 41 39 54 80
77 81 90 82 79 74 68 69 67 63 61 63 67 62 62 64 52 45 35 53 53 56 47 43 42 44 45 50 52 62 59 47 31 27 30 26 36 35 39 36 33 38 42 62 75
76 78 80 84 84 81 72 68 68 64 61 62 70 61 61 60 48 36 53 56 52 46 41 44 42 42 52 46 48 50 59 36 35 33 33 41 39 36 41 53 34 32 41 66 80
71 73 80 88 85 80 71 72 66 62 62 61 71 62 64 52 40 35 52 42 49 45 46 48 48 48 53 50 37 56 44 41 39 41 47 51 43 48 45 40 30 45 56 73 69
63 70 82 88 86 82 75 78 72 69 61 65 66 66 56 54 37 34 47 48 43 42 38 48 50 48 47 40 43 45 38 35 41 42 44 44 51 56 55 43 42 49 56 68 74
63 70 83 87 89 87 79 83 69 69 63 64 66 65 53 51 27 35 34 39 39 46 49 51 51 48 51 50 49 31 36 33 42 46 47 48 49 56 50 63 52 51 56 65 74
64 66 76 88 88 86 79 82 70 69 67 64 68 57 62 41 31 36 39 39 43 44 47 46 49 54 56 59 44 43 50 43 43 40 50 42 55 64 53 53 50 48 58 70 70
63 68 78 83 89 84 84 83 83 65 70 71 70 60 51 36 37 42 38 47 50 49 52 51 54 60 71 59 66 62 52 57 36 47 48 62 53 34 56 52 55 51 58 69 77
62 69 79 83 86 85 86 83 79 68 70 72 67 58 45 42 48 36 38 42 47 56 60 53 62 77 92 99 96 60 52 52 42 42 49 72 61 52 63 64 54 50 56 71 79
61 69 86 90 85 87 83 83 76 69 64 54 52 69 50 43 41 39 39 42 48 55 62 70 77 94 99 99 72 56 54 40 50 47 55 71 81 59 55 64 59 51 59 68 83
62 65 90 84 84 84 86 90 68 78 72 57 51 52 46 42 42 47 46 51 52 58 66 60 100 95 97 70 58 85 48 43 45 39 54 56 62 60 60 63 65 61 66 71 82
62 67 74 88 83 82 86 76 56 54 67 63 60 58 49 46 56 53 52 59 66 75 59 92 98 72 63 62 57 99 67 50 54 53 47 64 63 60 60 68 65 62 66 70 86
64 66 77 86 83 88 89 71 58 50 61 62 58 55 52 51 60 60 53 70 77 84 80 96 81 92 86 65 67 85 65 49 60 66 59 59 69 72 61 65 59 61 59 68 79
67 72 91 87 88 94 92 69 61 50 87 56 64 57 58 59 68 60 61 76 94 100 98 100 90 96 93 68 66 67 51 50 60 63 74 73 74 63 70 70 67 70 64 66 67
64 70 90 78 92 92 78 62 56 46 77 50 60 49 60 70 68 73 68 93 100 99 100 98 92 96 93 69 60 49 49 61 63 64 62 67 62 76 80 82 75 70 60 61 59
68 71 90 88 88 85 68 54 48 85 59 90 59 61 66 68 70 71 85 86 86 99 95 96 82 90 77 54 63 66 75 70 60 64 82 71 66 82 85 87 86 59 53 54 58
71 74 87 76 89 90 57 53 95 80 54 70 68 58 53 57 60 71 76 73 86 100 100 99 96 85 78 72 70 70 86 94 83 87 76 58 57 70 59 59 74 62 52 33 43
75 86 86 86 88 74 54 69 86 53 69 58 58 52 56 57 58 57 68 67 60 77 95 96 98 96 82 76 66 62 54 66 66 61 63 59 89 70 43 33 47 59 45 40 40
77 96 93 97 86 69 53 97 87 64 55 60 55 49 55 52 59 54 61 68 64 66 71 72 100 87 71 70 68 60 66 51 58 56 55 53 44 40 32 32 35 37 38 41 39
98 94 98 92 83 64 76 80 81 57 58 53 45 50 50 55 55 56 58 64 70 63 58 64 99 87 77 63 60 53 47 58 68 62 58 46 42 45 38 36 35 37 36 36 36
94 96 98 89 76 58 90 74 71 61 59 54 50 53 52 54 59 64 68 62 66 62 51 55 59 86 69 73 76 59 53 53 47 45 36 38 44 36 37 36 40 37 40 39 37
96 100 98 92 87 66 65 73 71 61 63 63 51 50 49 54 62 64 66 70 61 64 56 56 57 86 72 61 59 61 59 49 58 51 54 34 46 37 40 39 36 37 37 35 35
98 98 97 88 87 69 72 77 69 65 66 61 59 53 47 57 61 67 68 61 61 62 60 49 59 74 64 53 50 61 60 55 52 57 67 41 47 36 34 36 38 38 33 32 34
94 99 98 91 62 56 79 76 68 64 64 60 56 50 53 59 59 65 64 64 65 61 70 52 57 56 61 68 65 63 58 56 63 87 43 41 46 43 42 40 35 37 36 36 36
90 91 80 98 76 67 76 70 67 65 62 54 53 52 52 54 59 64 66 58 54 59 55 51 76 72 62 60 65 61 61 57 88 58 60 50 46 46 43 45 45 43 44 42 42
89 73 63 63 59 70 79 72 58 70 64 59 55 53 49 52 52 54 60 57 60 48 56 53 77 65 65 50 52 56 53 55 56 60 57 54 56 50 46 44 44 48 48 48 47
64 60 50 68 65 74 64 69 62 64 66 59 51 52 57 61 54 56 54 54 56 55 58 56 59 62 70 54 46 49 50 50 53 53 54 47 58 52 50 53 52 52 50 51 50

GFSSW_sfc_rhum_105.txt.gz
RH
74 76 79 81 84 78 71 66 71 66 62 60 68 63 61 62 64 44 41 38 38 41 59 37 34 34 34 40 39 41 64 50 36 30 24 17 20 21 23 30 27 24 27 45 67
67 72 74 77 87 79 75 67 71 66 62 60 68 63 61 62 44 34 31 44 50 52 43 36 34 33 36 36 38 53 59 44 26 23 22 18 18 18 23 32 33 32 30 48 68
62 63 77 75 83 82 79 69 74 66 63 61 69 62 61 58 42 25 43 48 54 51 37 35 33 34 38 33 37 42 53 34 26 22 24 23 22 24 31 40 41 35 28 66 63
60 63 65 80 81 86 82 76 71 62 62 60 69 63 64 42 43 36 56 52 52 39 39 37 35 38 38 36 30 42 35 32 32 29 34 36 35 34 37 37 25 29 45 47 63
59 63 62 78 79 90 82 76 75 70 64 61 68 66 52 52 37 33 48 50 42 39 34 34 38 32 35 24 24 30 30 29 30 32 33 34 41 42 36 36 48 48 48 46 62
58 60 65 75 81 91 79 80 75 68 65 62 67 66 52 60 22 26 34 38 32 36 34 37 39 34 40 36 34 26 24 24 26 29 34 37 36 37 35 33 46 44 43 43 57
59 62 64 74 84 85 80 80 75 74 67 62 69 57 59 47 21 26 31 31 31 35 38 34 37 44 38 45 34 36 44 33 30 31 35 34 43 40 28 34 44 39 37 43 54
60 61 65 73 84 83 81 84 77 67 65 67 71 58 59 29 24 32 28 33 35 35 40 38 42 46 49 51 53 59 55 58 31 28 32 37 54 28 24 42 43 40 43 43 50
58 62 64 69 78 85 86 80 75 67 72 70 68 62 45 42 36 26 27 37 36 41 45 40 50 57 67 80 83 62 68 50 40 22 32 42 54 29 33 48 44 43 40 37 50
58 62 66 82 87 84 80 77 75 71 62 52 44 55 40 39 35 32 30 34 40 42 54 59 66 77 82 94 75 83 66 40 38 25 31 44 53 45 48 52 50 46 43 42 53
62 62 68 89 83 81 85 83 69 72 62 50 44 44 36 33 36 40 34 42 43 49 59 53 92 85 68 63 76 70 49 44 38 22 44 40 48 42 40 49 50 51 50 48 60
65 67 62 84 87 81 88 78 51 52 70 50 51 46 41 40 50 46 42 57 60 81 62 86 92 55 87 76 88 97 60 52 37 36 38 37 45 37 40 44 43 47 49 52 66
66 68 66 77 86 93 83 70 50 46 52 59 50 49 46 46 52 52 53 59 68 90 96 96 74 86 95 71 67 63 60 53 94 44 36 35 48 50 50 52 48 49 46 52 66
65 68 84 88 88 85 89 76 54 50 88 60 57 50 51 53 68 46 51 64 94 99 99 100 79 92 95 70 50 48 36 72 78 52 69 41 67 62 65 65 51 42 50 62 75
64 67 90 73 90 84 85 62 58 52 79 49 54 45 49 70 57 66 55 88 100 98 99 94 83 92 88 56 43 53 42 49 58 55 64 79 93 75 68 75 64 64 54 67 77
66 72 91 79 87 89 76 56 56 90 74 89 51 60 63 59 56 62 77 81 82 99 95 88 74 80 68 52 47 54 58 93 88 80 67 62 65 88 88 90 84 64 63 67 76
71 75 90 71 90 88 65 55 96 84 45 71 69 52 47 51 50 58 69 95 94 100 100 97 86 72 69 65 73 98 96 95 91 94 71 58 61 97 78 71 83 82 51 70 69
79 86 84 82 91 82 57 70 91 49 59 47 50 48 50 48 49 47 55 92 78 73 80 92 96 95 66 79 92 97 69 79 92 80 69 57 93 96 68 65 83 77 48 52 52
86 94 94 96 86 84 60 96 90 59 46 52 49 46 48 44 48 45 49 60 57 56 88 93 99 70 60 59 60 57 64 47 53 39 58 72 83 68 37 52 70 66 44 47 43
97 94 98 93 89 76 71 75 70 47 48 42 41 40 41 44 44 44 46 53 62 50 57 68 94 68 60 54 51 49 42 58 67 56 57 72 89 84 47 40 46 46 41 39 37
94 94 98 92 85 61 88 67 55 48 53 49 40 40 40 42 46 45 48 52 53 54 45 56 69 77 56 61 70 56 51 42 43 40 36 46 52 37 38 36 36 38 38 38 36
93 100 96 91 90 60 52 65 66 49 53 50 42 40 41 45 46 45 53 54 50 51 50 46 55 77 66 49 47 52 50 41 62 39 39 35 53 33 35 35 33 34 34 35 36
96 97 93 87 87 55 58 62 59 52 52 48 46 42 41 46 49 50 50 53 50 53 55 45 52 78 61 48 43 48 42 39 43 61 57 43 52 31 32 33 33 35 34 34 35
76 100 97 74 48 46 64 61 52 56 54 48 46 42 42 44 44 51 48 52 53 49 67 53 50 54 67 70 59 56 47 42 61 80 42 47 48 38 36 38 38 37 35 36 38
58 78 65 84 62 52 66 54 51 53 52 45 44 43 43 42 42 46 48 43 44 56 46 43 67 71 51 50 58 50 49 46 72 45 58 43 47 44 42 39 39 39 39 40 40
56 57 57 57 50 54 66 60 46 54 53 46 45 45 38 46 47 44 45 43 48 38 44 42 66 61 55 41 44 45 41 42 45 44 44 44 55 41 39 36 39 41 41 42 42
50 47 40 61 50 54 51 53 49 51 55 50 43 41 48 55 46 44 42 42 45 46 44 45 50 57 62 43 39 44 46 43 45 45 46 44 52 42 45 47 46 47 44 40 37

GFSSW_sfc_rhum_108.txt.gz
RH
62 64 66 73 77 83 84 76 70 71 65 60 61 66 61 62 64 57 52 40 40 48 52 40 37 34 36 44 46 44 69 72 55 44 36 23 22 17 21 25 24 32 39 60 82
62 62 60 70 78 84 85 81 71 71 66 60 61 66 62 61 54 41 31 42 46 46 45 41 37 33 44 41 48 57 73 64 41 33 30 24 23 21 20 26 33 37 36 76 84
56 58 65 63 73 79 87 81 74 70 65 60 64 65 63 59 51 42 43 45 51 52 41 35 34 35 43 40 40 48 64 48 40 32 30 30 34 25 36 40 31 48 44 72 82
58 58 57 67 75 78 88 79 75 74 66 60 64 65 64 47 48 54 48 54 55 37 37 35 36 44 44 39 31 45 37 36 38 35 36 37 35 40 40 42 33 45 51 59 72
60 58 59 60 69 78 89 80 74 69 67 62 68 66 61 52 40 46 48 50 46 39 34 33 38 38 40 30 26 30 29 26 29 33 34 32 38 40 41 37 37 47 51 59 67
57 60 60 63 71 78 88 77 77 75 68 67 69 68 54 55 23 35 34 40 33 36 34 38 40 38 44 41 40 31 30 30 31 31 28 34 40 37 34 32 32 40 55 56 64
61 60 62 63 69 82 81 78 75 72 68 64 69 58 57 41 23 26 30 31 31 35 38 35 39 47 45 48 39 42 55 46 43 37 35 31 42 44 33 30 34 46 46 48 61
63 59 61 63 68 86 81 80 78 72 65 65 70 61 59 30 30 30 28 31 33 35 39 40 44 50 54 53 57 61 61 75 46 42 36 39 56 41 32 31 35 42 46 53 55
66 61 62 64 69 78 87 85 73 67 70 67 74 66 48 40 32 27 27 35 36 41 42 35 46 62 61 83 80 66 87 62 50 37 38 38 52 36 30 31 32 47 48 50 52
67 63 65 70 81 86 83 78 71 75 65 54 45 64 39 39 35 31 31 34 39 46 54 59 71 84 80 92 87 79 76 83 74 41 36 40 51 40 36 36 34 54 52 54 54
66 65 69 88 89 82 84 95 91 77 60 58 49 41 36 36 35 40 34 41 44 50 64 58 95 95 80 69 61 64 82 74 54 34 42 36 64 65 57 67 68 62 62 61 60
66 65 70 90 80 84 90 84 58 57 74 58 44 41 39 38 48 45 39 54 61 84 70 91 97 64 54 66 74 86 86 78 58 49 42 56 62 44 43 50 58 60 63 60 63
65 66 66 71 85 90 94 76 57 49 61 59 47 48 46 46 51 51 50 59 88 99 99 100 78 72 86 87 79 81 73 68 84 76 47 63 81 55 43 44 46 50 57 58 68
65 67 75 87 88 92 85 76 67 56 96 67 60 52 50 53 68 43 51 73 95 100 98 98 72 86 86 78 65 74 48 62 85 88 96 73 89 54 62 74 64 61 59 63 82
66 87 86 75 91 87 88 86 66 64 95 54 56 46 49 67 60 66 56 88 99 97 99 95 88 76 78 63 50 53 56 92 82 97 74 61 89 97 78 76 70 64 63 80 89
73 84 88 84 89 91 86 67 69 94 95 80 56 62 63 62 59 70 80 80 80 98 97 94 71 82 70 62 58 56 84 94 100 100 99 91 98 99 98 92 82 67 74 82 94
75 85 87 74 95 91 73 73 98 95 48 72 72 54 55 58 55 61 90 95 91 100 98 91 87 74 69 81 75 95 100 98 98 98 98 89 92 99 92 82 85 80 69 91 93
86 85 89 88 93 86 76 84 87 51 72 46 51 52 62 49 52 48 83 83 72 76 97 96 90 94 71 85 99 96 96 99 97 97 98 66 97 99 88 85 84 77 81 86 93
79 88 91 95 88 84 78 96 94 79 47 54 51 59 59 49 54 50 62 63 64 62 92 99 95 68 72 68 70 77 94 68 99 61 88 99 98 87 86 86 73 77 77 92 86
91 91 98 93 90 80 92 76 76 48 45 43 55 46 47 48 52 52 59 58 63 56 72 66 90 65 60 60 65 67 50 77 96 90 95 96 98 98 98 97 64 60 64 83 68
89 95 97 92 87 81 96 76 54 45 54 55 47 45 42 48 49 51 57 61 57 60 57 65 79 74 61 70 74 66 68 56 55 53 59 83 96 64 83 81 75 50 46 44 45
84 98 92 88 90 74 74 64 66 51 54 52 50 44 46 48 52 54 60 64 54 55 61 56 68 89 78 57 52 60 53 52 91 74 70 78 87 42 45 42 42 46 44 45 46
96 98 87 89 94 70 61 56 57 54 54 53 49 46 44 50 60 55 55 58 55 60 65 58 71 92 79 67 58 56 49 55 56 85 68 82 87 37 45 46 44 47 47 47 47
72 99 92 79 66 61 69 59 53 63 55 47 46 44 44 46 46 57 54 59 57 54 67 68 67 79 94 86 75 75 56 55 80 84 69 76 60 54 52 54 52 50 50 50 48
66 80 70 92 71 61 68 56 51 56 54 47 50 45 46 49 48 53 50 50 49 58 57 58 80 78 62 58 71 57 56 56 66 59 76 59 66 61 54 56 53 50 48 48 47
74 70 66 64 53 58 74 65 52 52 60 49 52 45 50 60 57 61 55 59 60 51 55 51 79 77 71 46 48 57 51 55 56 52 59 62 67 53 52 52 52 52 49 47 43
62 57 62 68 58 60 61 58 51 57 60 53 52 50 59 63 53 52 52 50 57 59 58 56 69 79 84 58 50 67 56 53 55 56 61 72 63 53 58 54 55 58 51 45 39

GFSSW_sfc_rhum_111.txt.gz
RH
62 63 62 63 67 78 82 83 76 78 68 63 59 68 62 61 64 67 71 51 50 46 47 49 44 43 47 54 53 57 83 74 78 65 54 35 33 26 22 23 26 34 46 63 87
61 59 61 62 64 72 82 84 81 76 70 63 61 68 63 62 69 63 43 43 44 44 51 55 46 42 54 54 56 69 89 76 56 51 49 38 36 37 37 40 36 41 82 84 90
55 56 57 56 61 75 81 89 79 76 70 63 65 69 64 65 72 58 42 41 47 52 56 41 40 41 52 49 51 59 72 55 51 46 44 43 39 35 46 52 45 54 66 92 93
60 58 58 57 59 66 79 88 77 74 70 65 66 68 64 71 71 62 43 47 51 49 46 40 44 53 56 51 38 51 43 41 45 44 43 42 38 39 42 44 40 43 61 65 81
63 58 58 60 62 67 78 85 78 76 69 64 68 68 73 74 62 54 52 56 48 48 41 44 48 52 56 47 43 43 34 33 36 39 36 30 34 43 40 37 36 36 42 62 67
63 61 59 62 64 68 73 88 78 73 67 67 70 68 74 56 53 50 51 51 39 46 45 47 51 49 54 54 55 49 51 48 46 44 39 39 37 38 32 37 34 32 38 58 67
65 62 61 62 64 77 81 83 83 72 68 68 70 66 67 44 32 47 38 42 38 44 51 51 51 54 60 64 56 57 68 58 53 52 53 43 46 41 32 36 37 35 36 55 62
68 66 61 62 63 81 84 82 76 73 67 67 68 78 72 41 39 34 36 41 39 43 47 47 51 61 66 66 66 70 70 86 55 53 51 55 64 34 34 40 41 40 34 48 60
65 66 63 65 65 79 86 81 77 68 66 66 87 88 66 41 36 36 35 41 46 47 51 35 56 70 71 88 90 84 95 85 68 48 52 59 61 39 32 36 40 39 36 45 56
64 65 69 75 76 87 81 80 72 73 69 65 55 78 53 50 40 34 34 40 49 60 67 69 80 93 90 96 95 90 94 78 82 58 53 58 59 40 35 39 36 33 38 57 59
66 68 75 85 88 80 88 94 91 85 76 74 62 52 44 45 40 47 41 48 52 61 78 78 98 97 90 86 73 76 83 82 68 61 64 60 52 44 38 56 71 65 39 64 64
67 68 79 83 79 78 85 89 72 69 84 63 54 48 43 46 56 53 45 63 70 89 82 93 96 75 66 62 68 97 94 84 68 58 61 67 58 49 43 61 65 75 71 70 69
67 67 83 91 79 87 92 89 71 65 76 66 55 53 53 52 59 65 55 72 87 94 96 97 82 77 85 91 94 88 87 85 87 68 65 64 75 56 44 61 62 65 67 69 66
75 70 71 84 89 93 93 81 78 68 92 72 65 60 54 62 73 56 63 74 86 91 96 94 71 81 84 88 81 91 63 79 94 85 98 74 95 75 66 58 54 61 73 68 76
81 82 82 76 96 92 92 89 83 74 89 60 66 54 57 73 65 72 64 86 99 96 99 86 88 93 78 69 64 73 56 76 92 97 86 69 96 91 91 79 90 82 71 74 90
81 83 77 87 91 94 88 85 76 89 81 74 68 72 75 70 64 72 79 79 81 98 96 96 73 88 73 62 63 67 80 87 100 98 98 80 90 99 99 96 85 76 84 93 97
84 82 82 80 97 93 78 82 91 85 54 76 75 66 66 76 72 80 94 97 98 96 97 94 89 82 71 85 80 93 100 98 98 98 98 99 98 99 96 87 86 92 76 97 96
83 83 86 87 91 90 85 90 82 63 74 56 62 62 75 58 61 64 89 88 79 78 94 93 82 90 75 83 99 99 99 99 97 97 98 90 98 99 93 77 79 80 93 97 95
78 95 92 94 90 91 94 96 92 82 58 65 61 72 72 58 62 62 77 77 75 73 93 91 89 73 74 72 83 91 100 85 100 94 93 98 100 89 89 87 87 95 93 90 84
96 96 96 94 96 91 95 83 77 61 62 56 70 57 65 60 66 56 74 70 71 64 78 81 96 67 62 68 69 84 62 85 97 96 96 97 98 99 98 98 87 92 84 85 73
95 95 90 92 92 96 95 85 67 54 65 69 68 57 56 59 58 67 75 73 66 67 71 71 82 75 65 72 78 79 74 63 63 68 89 92 98 98 99 86 71 88 87 72 53
93 98 88 95 98 95 90 77 68 58 61 65 60 56 60 59 64 66 77 77 63 66 73 62 77 93 80 59 54 64 65 60 89 78 81 89 98 61 86 81 52 53 51 51 51
97 94 89 95 96 92 75 69 66 70 65 60 59 56 54 60 71 65 68 63 63 67 70 65 82 92 77 64 62 74 55 64 66 81 88 90 98 48 53 54 54 56 54 50 51
88 96 93 95 93 82 82 67 70 70 66 56 54 54 54 55 56 66 64 61 63 60 66 68 74 82 92 80 78 74 61 61 76 92 87 89 82 69 67 64 61 60 58 56 53
84 91 86 96 82 82 82 70 63 72 64 59 58 58 61 68 63 66 61 59 58 56 59 64 80 82 73 64 68 64 65 66 77 71 82 75 77 70 72 70 67 61 54 49 45
83 90 85 86 65 80 83 77 63 64 70 67 63 64 66 76 74 78 69 70 73 60 59 61 80 80 75 53 57 62 59 60 64 64 72 72 75 59 64 63 61 59 51 47 42
74 77 78 78 75 78 78 72 64 68 68 62 68 68 73 72 66 64 64 58 70 70 69 64 76 85 87 68 59 69 61 64 63 68 68 77 69 61 67 62 68 68 55 50 44

GFSSW_sfc_rhum_114.txt.gz
RH
57 60 59 57 61 64 72 82 86 74 73 66 61 67 64 62 62 70 73 53 55 45 43 51 47 47 48 56 54 62 90 92 78 74 67 44 46 37 36 41 40 43 85 88 87
56 55 59 59 58 61 75 82 84 78 78 69 64 69 65 63 72 73 52 42 47 42 53 55 46 46 56 56 59 73 94 82 63 59 60 50 49 44 41 45 51 50 49 86 91
76 57 59 58 54 59 68 84 82 81 74 67 65 70 66 68 71 61 42 40 45 54 62 45 43 44 54 51 54 63 80 60 53 52 51 51 48 41 47 53 45 54 51 74 90
76 68 56 59 59 60 65 80 89 82 74 66 68 70 67 73 73 65 42 46 45 45 44 40 42 54 59 56 44 50 41 43 48 46 47 43 40 40 42 41 39 42 48 55 72
72 68 57 57 60 64 68 78 86 76 72 66 69 70 69 71 70 54 54 48 44 43 41 44 48 54 60 57 48 50 49 48 49 49 46 38 41 38 36 36 38 40 40 45 64
81 66 62 59 61 65 70 76 86 76 70 67 70 70 72 60 57 56 54 56 43 46 46 46 54 52 60 61 61 58 58 56 56 55 52 52 46 43 34 34 34 37 40 44 59
77 68 62 61 63 76 79 86 81 74 67 69 72 64 61 45 42 55 48 47 44 46 54 54 54 57 64 68 61 61 65 59 52 53 54 49 53 50 36 32 33 38 35 41 48
71 65 61 64 65 83 84 85 88 85 70 69 70 75 65 44 49 38 38 46 42 44 48 50 51 59 66 67 67 72 74 86 56 55 56 57 63 43 35 39 38 38 39 40 45
69 64 64 66 71 82 88 80 74 70 68 70 80 80 69 38 43 41 40 48 48 50 54 38 57 72 74 88 91 82 90 89 72 58 60 63 75 52 42 40 37 34 46 45 42
68 67 69 68 84 83 77 73 69 71 70 67 60 66 59 55 42 38 38 44 56 62 67 69 86 94 94 95 92 88 95 86 82 61 56 66 74 58 46 43 39 36 36 46 47
68 74 84 86 87 82 81 86 89 90 77 74 74 59 52 49 44 50 44 50 53 64 85 85 96 98 93 89 76 81 86 90 74 60 67 71 70 60 53 51 50 49 57 55 50
70 87 86 84 88 87 84 83 86 75 79 64 58 52 49 50 61 56 48 65 74 90 86 88 93 78 75 75 82 86 91 82 72 62 65 72 73 59 53 51 50 59 64 74 58
70 86 80 77 75 86 90 90 79 67 72 65 59 59 57 54 63 65 54 71 86 85 92 83 75 72 78 80 85 80 85 85 91 70 72 76 82 69 53 57 54 56 74 75 74
71 86 82 77 83 92 95 88 82 74 90 78 71 64 58 64 78 60 62 74 85 85 82 90 74 80 85 83 71 86 66 75 81 95 96 66 93 75 89 82 58 58 59 73 76
73 72 79 79 96 92 93 92 86 72 79 60 70 55 61 73 72 75 70 78 92 88 93 86 93 90 95 75 68 76 64 71 81 99 97 86 96 84 82 93 92 89 89 75 77
81 81 80 88 94 94 89 86 73 80 79 73 72 74 80 72 69 75 77 78 80 92 88 92 78 89 81 64 58 63 90 87 96 99 100 84 88 99 98 97 88 88 89 90 82
85 81 86 82 96 93 83 78 85 87 55 72 79 77 77 81 74 81 93 97 97 95 96 89 89 84 76 86 82 96 100 98 98 98 96 99 97 100 98 91 86 88 84 90 96
82 80 86 88 96 92 84 79 87 64 72 61 70 70 77 70 73 79 93 94 92 87 90 90 87 90 76 92 100 100 100 99 97 97 96 98 98 99 95 89 87 93 93 93 97
79 96 96 93 94 89 80 94 86 79 67 68 64 76 74 60 63 69 90 83 80 77 92 91 89 65 70 71 89 92 100 94 100 98 90 98 98 96 92 90 88 91 90 97 95
96 96 94 92 95 87 91 84 77 63 68 63 76 64 71 64 69 70 82 79 77 71 79 76 94 68 62 72 77 84 75 95 98 95 97 90 98 98 98 100 95 93 92 89 86
94 94 86 89 89 88 95 88 70 56 67 67 74 68 66 70 69 77 84 75 73 73 72 79 85 78 68 73 76 76 79 69 66 90 98 96 98 99 100 97 96 86 79 74 66
94 97 84 93 90 95 89 78 68 62 65 68 66 64 67 68 73 76 80 76 70 71 79 72 81 94 70 68 63 68 72 68 84 75 83 92 97 80 88 85 78 59 54 54 55
96 97 89 89 93 93 78 69 69 69 70 63 62 61 59 64 75 70 70 62 66 69 70 69 85 92 59 52 61 77 64 67 72 80 93 87 96 57 74 62 60 60 58 54 52
92 94 91 93 94 86 82 70 67 69 69 60 62 57 59 60 61 71 66 63 65 62 68 67 78 81 80 72 79 76 66 69 77 94 91 93 86 80 74 70 66 65 60 53 49
91 90 87 95 80 83 83 75 70 72 66 60 59 67 70 72 69 74 69 64 59 61 67 64 76 82 73 68 73 67 69 75 78 80 83 80 79 75 78 77 75 64 52 46 44
92 85 89 90 78 75 81 79 68 69 72 68 71 66 72 81 81 81 74 76 79 63 69 66 77 82 76 56 57 62 59 63 69 73 78 78 81 63 73 71 66 62 52 49 46
88 80 82 80 82 81 79 73 66 71 69 67 74 77 72 71 76 69 72 69 67 75 71 68 79 87 86 67 60 66 61 72 72 77 74 77 65 66 71 66 71 71 60 51 48

GFSSW_sfc_rhum_117.txt.gz
RH
69 60 61 58 55 61 66 76 88 84 75 69 64 68 66 64 59 69 67 55 59 47 44 52 39 47 49 56 55 66 92 97 85 81 72 53 54 41 38 45 40 50 70 87 95
83 62 56 57 60 55 65 76 83 90 76 72 65 70 67 63 71 66 54 43 46 43 56 45 46 49 57 55 61 77 96 85 67 66 66 56 57 53 46 46 49 45 38 55 91
82 77 65 63 61 55 61 72 82 82 79 70 67 71 69 68 65 64 45 42 50 56 57 45 43 45 54 50 56 70 85 68 57 52 53 58 55 46 49 52 46 43 42 46 70
84 72 68 55 59 60 61 68 79 86 77 69 68 72 69 72 73 64 42 45 44 41 41 42 43 54 59 57 48 53 46 44 48 50 50 44 39 38 41 38 35 40 45 49 50
83 74 70 55 57 60 64 70 79 82 75 69 71 71 66 64 84 57 51 46 41 42 43 46 53 56 60 64 53 58 55 54 55 57 55 48 48 44 39 36 35 39 43 50 51
88 77 66 58 60 63 71 72 79 86 72 70 72 68 65 79 59 61 58 49 41 51 57 52 56 54 65 66 65 66 64 60 57 55 54 53 45 49 40 37 33 34 38 44 51
78 73 66 60 63 70 79 77 86 75 69 71 71 61 56 75 53 58 46 48 44 49 57 55 54 56 65 67 64 66 68 62 57 54 55 52 61 51 34 38 38 32 37 40 49
69 64 63 65 68 77 83 84 80 76 72 70 67 62 66 44 60 49 42 46 45 46 50 52 52 60 64 69 68 75 78 81 56 57 54 59 64 49 44 42 42 38 35 39 47
66 65 65 67 72 86 88 85 83 85 71 69 74 61 66 40 47 44 44 50 50 50 55 43 58 74 74 86 85 78 88 86 73 60 64 70 80 60 51 48 50 45 40 41 44
66 66 67 84 89 88 82 78 79 74 68 57 57 53 59 54 46 43 41 50 58 65 67 72 86 93 94 94 90 87 93 86 90 63 61 68 75 60 53 55 56 49 43 47 53
80 83 76 84 88 86 81 81 84 77 70 74 74 60 55 50 45 49 47 51 57 64 88 88 96 98 86 89 82 84 90 87 72 61 71 76 75 63 53 60 62 58 46 45 56
83 87 83 88 81 84 86 86 88 71 73 63 59 55 49 52 60 57 50 66 74 90 86 84 93 79 76 80 85 94 86 78 70 64 71 70 72 61 61 61 57 61 51 55 63
83 85 83 89 84 85 90 94 84 69 72 67 60 60 59 56 67 65 55 67 80 84 84 92 76 72 81 80 82 81 80 77 85 75 76 83 88 69 72 64 61 57 57 66 71
84 80 76 76 80 93 98 94 85 66 92 79 69 65 60 66 80 65 65 73 86 81 85 88 77 85 90 88 81 78 63 70 82 94 97 68 94 75 87 90 80 87 85 67 71
77 79 81 78 92 97 96 93 85 58 94 63 74 59 66 76 75 79 73 81 94 89 90 83 94 85 92 85 73 81 60 74 96 98 99 91 96 78 89 89 87 84 90 92 93
82 80 81 89 93 96 93 86 67 80 86 76 74 76 80 71 72 77 78 75 83 94 88 96 77 86 86 71 61 57 74 86 94 99 99 82 92 94 97 96 91 83 90 95 97
80 80 84 82 98 94 87 71 85 88 56 74 82 81 82 77 76 82 90 96 98 98 91 85 86 87 83 92 80 89 100 98 97 97 94 100 98 99 97 93 91 90 90 95 95
79 82 83 87 96 91 74 78 88 68 71 63 72 77 83 76 77 83 90 95 94 92 96 91 83 91 84 91 99 100 100 99 98 97 94 89 98 100 95 89 88 88 90 92 96
78 95 94 90 93 84 71 94 85 77 69 71 68 81 76 67 69 81 95 86 80 90 91 96 90 65 72 78 86 92 100 96 100 96 94 98 96 96 92 94 90 89 90 96 97
95 95 90 89 92 81 90 82 80 67 69 68 75 69 75 74 76 79 84 75 77 70 79 82 94 73 66 72 85 85 80 98 98 97 95 93 98 98 98 99 98 96 94 93 90
94 88 82 91 85 85 94 86 72 58 67 71 77 74 75 78 78 80 79 71 74 74 82 83 89 78 69 74 77 80 81 83 74 90 95 95 97 98 100 99 98 94 86 78 68
93 90 81 88 87 95 89 82 72 69 68 71 70 69 76 72 78 78 79 71 69 77 83 79 84 96 74 71 70 72 78 76 91 74 92 89 96 78 83 85 82 63 57 52 53
95 94 86 81 93 93 78 70 71 73 73 69 68 64 65 72 78 76 72 61 70 74 77 76 86 91 57 54 64 76 69 74 76 79 91 87 88 60 73 79 67 62 57 50 47
89 92 91 89 93 85 87 70 65 67 72 66 66 62 64 66 67 74 69 62 66 67 68 66 82 76 81 67 76 80 70 77 80 92 91 90 83 79 82 75 73 64 54 52 50
90 91 88 94 83 85 87 80 72 70 69 67 67 73 80 77 77 80 76 68 60 64 76 67 75 83 72 73 72 66 67 76 84 83 80 79 87 79 80 78 74 60 52 47 50
92 93 94 90 86 80 79 81 72 68 76 70 76 74 80 80 79 80 81 79 79 66 74 69 73 82 80 68 63 61 59 65 77 82 82 83 78 65 74 76 71 67 56 52 52
96 89 84 81 83 82 82 80 74 78 71 72 80 82 76 74 76 74 72 73 75 79 74 73 79 86 83 71 61 56 60 62 70 75 75 85 69 71 78 70 71 70 61 55 57